[[{"header":{"parameterUnit":"m.s-1","parameterCategory":1,"la1":31.0,"la2":29.5877,"lo1":-88.7671,"lo2":-86.6584,"dy":0.0162,"dx":0.0185,"nx":115,"ny":88,"refTime":"2024-08-05T12:00:00:Z","depth":0,"parameterNumber":2,"parameterNumberName":"U-component_of_WINDS"},"data":[0.0,0.0,0.0,0.0,0.0,0.0,0.0,0.0,0.0,0.0,0.0,0.0,0.0,0.0,0.0,0.0,0.0,0.0,0.0,0.0,0.0,0.0,0.0,0.0,0.0,0.0,0.0,0.0,0.0,0.0,0.0,0.0,0.0,0.0,0.0,0.0,0.0,0.0,0.0,0.0,0.0,0.0,0.0,0.0,0.0,0.0,0.0,0.0,0.0,0.0,0.0,0.0,0.0,0.0,0.0,0.0,0.0,0.0,0.0,0.0,0.0,0.0,0.0,0.0,0.0,0.0,0.0,0.0,0.0,0.0,0.0,0.0,0.0,0.0,0.0,0.0,0.0,0.0,0.0,0.0,0.0,0.0,0.0,0.0,0.0,0.0,0.0,0.0,0.0,0.0,0.0,0.0,0.0,0.0,0.0,0.0,0.0,0.0,0.0,0.0,0.0,0.0,0.0,0.0,0.0,0.0,0.0,0.0,0.0,0.0,0.0,0.0,0.0,0.0,0.0,0.0,0.0,0.0,0.0,0.0,0.0,0.0,0.0,0.0,0.0,0.0,0.0,0.0,0.0,0.0,0.0,0.0,0.0,0.0,0.0,0.0,0.0,0.0,0.0,0.0,0.0,0.0,0.0,0.0,0.0,0.0,0.0,0.0,0.0,0.0,0.0,0.0,0.0,0.0,0.0,0.0,0.0,0.0,0.0,0.0,0.0,0.0,0.0,0.0,0.0,0.0,0.0,0.0,0.0,0.0,0.0,0.0,0.0,0.0,0.0,0.0,0.0,0.0,0.0,0.0,0.0,0.0,0.0,0.0,0.0,0.0,0.0,0.0,0.0,0.0,0.0,0.0,0.0,0.0,0.0,0.0,0.0,0.0,0.0,0.0,0.0,0.0,0.0,0.0,0.0,0.0,0.0,0.0,0.0,0.0,0.0,0.0,0.0,0.0,0.0,0.0,0.0,0.0,0.0,0.0,0.0,0.0,0.0,0.0,0.0,0.0,0.0,0.0,0.0,0.0,0.0,0.0,0.0,0.0,0.0,0.0,0.0,0.0,0.0,0.0,0.0,0.0,0.0,0.0,0.0,0.0,0.0,0.0,0.0,0.0,0.0,0.0,0.0,0.0,0.0,0.0,0.0,0.0,0.0,0.0,0.0,0.0,0.0,0.0,0.0,0.0,0.0,0.0,0.0,0.0,0.0,0.0,0.0,0.0,0.0,0.0,0.0,0.0,0.0,0.0,0.0,0.0,0.0,0.0,0.0,0.0,0.0,0.0,0.0,0.0,0.0,0.0,0.0,0.0,0.0,0.0,0.0,0.0,0.0,0.0,0.0,0.0,0.0,0.0,0.0,0.0,0.0,0.0,0.0,0.0,0.0,0.0,0.0,0.0,0.0,0.0,0.0,0.0,0.0,0.0,0.0,0.0,0.0,0.0,0.0,0.0,0.0,0.0,0.0,0.0,0.0,0.0,0.0,0.0,0.0,0.0,0.0,0.0,0.0,0.0,0.0,0.0,0.0,0.0,0.0,0.0,0.0,0.0,0.0,0.0,0.0,0.0,0.0,0.0,0.0,0.0,0.0,0.0,0.0,0.0,0.0,0.0,0.0,0.0,0.0,0.0,0.0,0.0,0.0,0.0,0.0,0.0,0.0,0.0,0.0,0.0,0.0,0.0,0.0,0.0,0.0,0.0,0.0,0.0,0.0,0.0,0.0,0.0,0.0,0.0,0.0,0.0,0.0,0.0,0.0,0.0,0.0,0.0,0.0,0.0,0.0,0.0,0.0,0.0,0.0,0.0,0.0,0.0,0.0,0.0,0.0,0.0,0.0,0.0,0.0,0.0,0.0,0.0,0.0,0.0,0.0,0.0,0.0,0.0,0.0,0.0,0.0,0.0,0.0,0.0,0.0,0.0,0.0,0.0,0.0,0.0,0.0,0.0,0.0,0.0,0.0,0.0,0.0,0.0,0.0,0.0,0.0,0.0,0.0,0.0,0.0,0.0,0.0,0.0,0.0,0.0,0.0,0.0,0.0,0.0,0.0,0.0,0.0,0.0,0.0,0.0,0.0,0.0,0.0,0.0,0.0,0.0,0.0,0.0,0.0,0.0,0.0,0.0,0.0,0.0,0.0,0.0,0.0,0.0,0.0,0.0,0.0,0.0,0.0,0.0,0.0,0.0,0.0,0.0,0.0,0.0,0.0,0.0,0.0,0.0,0.0,0.0,0.0,0.0,0.0,0.0,0.0,0.0,0.0,0.0,0.0,0.0,0.0,0.0,0.0,0.0,0.0,0.0,0.0,0.0,0.0,0.0,0.0,0.0,0.0,0.0,0.0,0.0,0.0,0.0,0.0,0.0,0.0,0.0,0.0,0.0,0.0,0.0,0.0,0.0,0.0,0.0,0.0,0.0,0.0,0.0,0.0,0.0,0.0,0.0,0.0,0.0,0.0,0.0,0.0,0.0,0.0,0.0,0.0,0.0,0.0,0.0,0.0,0.0,0.0,0.0,0.0,0.0,0.0,0.0,0.0,0.0,0.0,0.0,0.0,0.0,0.0,0.0,0.0,0.0,0.0,0.0,0.0,0.0,0.0,0.0,0.0,0.0,0.0,0.0,0.0,0.0,0.0,0.0,0.0,0.0,0.0,0.0,0.0,0.0,0.0,0.0,0.0,0.0,0.0,0.0,0.0,0.0,0.0,0.0,0.0,0.0,0.0,0.0,0.0,0.0,0.0,0.0,0.0,0.0,0.0,0.0,0.0,0.0,0.0,0.0,0.0,0.0,0.0,0.0,0.0,0.0,0.0,0.0,0.0,0.0,0.0,0.0,0.0,0.0,0.0,0.0,0.0,0.0,0.0,0.0,0.0,0.0,0.0,0.0,0.0,0.0,0.0,0.0,0.0,0.0,0.0,0.0,0.0,0.0,0.0,0.0,0.0,0.0,0.0,0.0,0.0,0.0,0.0,0.0,0.0,0.0,0.0,0.0,0.0,0.0,0.0,0.0,0.0,0.0,0.0,0.0,0.0,0.0,0.0,0.0,0.0,0.0,0.0,0.0,0.0,0.0,0.0,0.0,0.0,0.0,0.0,0.0,0.0,0.0,0.0,0.0,0.0,0.0,0.0,0.0,0.0,0.0,0.0,0.0,0.0,0.0,0.0,0.0,0.0,0.0,0.0,0.0,0.0,0.0,0.0,0.0,0.0,0.0,0.0,0.0,0.0,0.0,0.0,0.0,0.0,0.0,0.0,0.0,0.0,0.0,0.0,0.0,0.0,0.0,0.0,0.0,0.0,0.0,0.0,0.0,0.0,0.0,0.0,0.0,0.0,0.0,0.0,0.0,0.0,0.0,0.0,0.0,0.0,0.0,0.0,0.0,0.0,0.0,0.0,0.0,0.0,0.0,0.0,0.0,0.0,0.0,0.0,0.0,0.0,0.0,0.0,0.0,0.0,0.0,0.0,0.0,0.0,0.0,0.0,0.0,0.0,0.0,0.0,0.0,0.0,0.0,0.0,0.0,0.0,0.0,0.0,0.0,0.0,0.0,0.0,0.0,0.0,0.0,0.0,0.0,0.0,0.0,0.0,0.0,0.0,0.0,0.0,0.0,0.0,0.0,0.0,0.0,0.0,0.0,0.0,0.0,0.0,0.0,0.0,0.0,0.0,0.0,0.0,0.0,0.0,0.0,0.0,0.0,0.0,0.0,0.0,0.0,0.0,0.0,0.0,0.0,0.0,0.0,0.0,0.0,0.0,0.0,0.0,0.0,0.0,0.0,0.0,0.0,0.0,0.0,0.0,0.0,0.0,0.0,0.0,0.0,0.0,0.0,0.0,0.0,0.0,0.0,0.0,0.0,0.0,0.0,0.0,0.0,0.0,0.0,0.0,0.0,0.0,0.0,0.0,0.0,0.0,0.0,0.0,0.0,0.0,0.0,0.0,0.0,0.0,0.0,0.0,0.0,0.0,0.0,0.0,0.0,0.0,0.0,0.0,0.0,0.0,0.0,0.0,0.0,0.0,0.0,0.0,0.0,0.0,0.0,0.0,0.0,0.0,0.0,0.0,0.0,0.0,0.0,0.0,0.0,0.0,0.0,0.0,0.0,0.0,0.0,0.0,0.0,0.0,0.0,0.0,0.0,0.0,0.0,0.0,0.0,0.0,0.0,0.0,0.0,0.0,0.0,0.0,0.0,0.0,0.0,0.0,0.0,0.0,0.0,0.0,0.0,0.0,0.0,0.0,0.0,0.0,0.0,0.0,0.0,0.0,0.0,0.0,0.0,1.3406,0.0,0.0,0.0,0.0,0.0,0.0,0.0,0.0,0.0,0.0,0.0,0.0,0.0,0.0,0.0,0.0,0.0,0.0,0.0,0.0,0.0,0.0,0.0,0.0,0.0,0.0,0.0,0.0,0.0,0.0,0.0,0.0,0.0,0.0,0.0,0.0,0.0,0.0,0.0,0.0,0.0,0.0,0.0,0.0,0.0,0.0,0.0,0.0,0.0,0.0,0.0,0.0,0.0,0.0,0.0,0.0,0.0,0.0,0.0,0.0,0.0,0.0,0.0,0.0,0.0,0.0,0.0,0.0,0.0,0.0,0.0,0.0,0.0,0.0,0.0,0.0,0.0,0.0,0.0,0.0,0.0,0.0,0.0,0.0,0.0,0.0,0.0,0.0,0.0,0.0,0.0,0.0,0.0,0.0,0.0,0.0,0.0,0.0,0.0,0.0,0.0,0.0,0.0,0.0,0.0,0.0,0.0,0.0,0.0,0.0,1.5272,1.492,1.3982,1.3337,1.291,0.0,0.0,0.0,0.0,0.0,0.0,0.0,0.0,0.0,0.0,0.0,0.0,0.0,0.0,0.0,0.0,0.0,0.0,0.0,0.0,0.0,0.0,0.0,0.0,0.0,0.0,0.0,0.0,0.0,0.0,0.0,0.0,0.0,0.0,0.0,0.0,0.0,0.0,0.0,0.0,0.0,0.0,0.0,0.0,0.0,0.0,0.0,0.0,0.0,0.0,0.0,0.0,0.0,0.0,0.0,0.0,0.0,0.0,0.0,0.0,0.0,0.0,0.0,0.0,0.0,0.0,0.0,0.0,0.0,0.0,0.0,0.0,0.0,0.0,0.0,0.0,0.0,0.0,0.0,0.0,0.0,0.0,0.0,0.0,0.0,0.0,0.0,0.0,0.0,0.0,0.0,0.0,0.0,0.0,0.0,0.0,0.0,0.0,0.0,0.0,0.0,0.0,0.0,0.0,0.0,0.0,0.0,0.0,0.0,0.0,0.0,0.0,1.4387,1.3712,1.299,0.0,0.0,0.0,0.0,0.0,0.0,0.0,0.0,0.0,0.0,0.0,0.0,0.0,0.0,0.0,0.0,0.0,0.0,0.0,0.0,0.0,0.0,0.0,0.0,0.0,0.0,0.0,0.0,0.0,0.0,0.0,0.0,0.0,0.0,0.0,0.0,0.0,0.0,0.0,0.0,0.0,0.0,0.0,0.0,0.0,0.0,0.0,0.0,0.0,0.0,0.0,0.0,0.0,0.0,0.0,0.0,0.0,0.0,0.0,0.0,0.0,0.0,0.0,0.0,0.0,0.0,0.0,0.0,0.0,0.0,0.0,0.0,0.0,0.0,0.0,0.0,0.0,0.0,0.0,0.0,0.0,0.0,0.0,0.0,0.0,0.0,0.0,0.0,0.0,0.0,0.0,0.0,0.0,0.0,0.0,0.0,0.0,0.0,0.0,0.0,0.0,0.0,0.0,0.0,0.0,0.0,0.0,0.0,0.0,0.0,1.4536,1.6275,1.5654,0.0,1.442,0.0,0.0,0.0,0.0,0.0,0.0,0.0,0.0,0.0,0.0,0.0,0.0,0.0,0.0,0.0,0.0,0.0,0.0,0.0,0.0,0.0,0.0,0.0,0.0,0.0,0.0,0.0,0.0,0.0,0.0,0.0,0.0,0.0,0.0,0.0,0.0,0.0,0.0,0.0,0.0,0.0,0.0,0.0,0.0,0.0,0.0,0.0,0.0,0.0,0.0,0.0,0.0,0.0,0.0,0.0,0.0,0.0,0.0,0.0,0.0,0.0,0.0,0.0,0.0,0.0,0.0,0.0,0.0,0.0,0.0,0.0,0.0,0.0,0.0,0.0,0.0,0.0,0.0,0.0,0.0,0.0,0.0,0.0,0.0,0.0,0.0,0.0,0.0,0.0,0.0,0.0,0.0,0.0,0.0,0.0,0.0,0.0,0.0,0.0,0.0,0.0,0.0,0.0,0.0,0.0,0.0,0.0,0.0,0.0,0.0,0.0,1.604,1.5301,1.4772,0.0,0.0,0.0,0.0,0.0,0.0,0.0,0.0,0.0,0.0,0.0,0.0,0.0,0.0,0.0,0.0,0.0,0.0,0.0,0.0,0.0,0.0,0.0,0.0,0.0,0.0,0.0,0.0,0.0,0.0,0.0,0.0,0.0,0.0,0.0,0.0,0.0,0.0,0.0,0.0,0.0,0.0,0.0,0.0,0.0,0.0,0.0,0.0,0.0,0.0,0.0,0.0,0.0,0.0,0.0,0.0,0.0,0.0,0.0,0.0,0.0,0.0,0.0,0.0,0.0,0.0,0.0,0.0,0.0,0.0,0.0,0.0,0.0,0.0,0.0,0.0,0.0,0.0,0.0,0.0,0.0,0.0,0.0,0.0,0.0,0.0,0.0,0.0,0.0,0.0,0.0,0.0,0.0,0.0,0.0,0.0,0.0,0.0,0.0,0.0,0.0,0.0,0.0,0.0,0.0,0.0,0.0,0.0,0.0,0.0,1.5801,0.0,1.6189,1.5625,1.5037,1.4536,0.0,0.0,0.0,0.0,0.0,0.0,0.0,0.0,0.0,0.0,0.0,0.0,0.0,0.0,0.0,0.0,0.0,0.0,0.0,0.0,0.0,0.0,0.0,0.0,0.0,0.0,0.0,0.0,0.0,0.0,0.0,0.0,0.0,0.0,0.0,0.0,0.0,0.0,0.0,0.0,0.0,0.0,0.0,0.0,0.0,0.0,0.0,0.0,0.0,0.0,0.0,0.0,0.0,0.0,0.0,0.0,0.0,0.0,0.0,0.0,0.0,0.0,0.0,0.0,0.0,0.0,0.0,0.0,0.0,0.0,0.0,0.0,0.0,0.0,0.0,0.0,0.0,0.0,0.0,0.0,0.0,0.0,0.0,0.0,0.0,0.0,0.0,0.0,0.0,0.0,0.0,0.0,0.0,0.0,0.0,0.0,0.0,0.0,0.0,0.0,0.0,0.0,0.0,0.0,0.0,0.0,0.0,0.0,0.0,1.601,1.5683,1.7468,1.7335,1.6448,0.0,0.0,0.0,0.0,0.0,0.0,0.0,0.0,0.0,0.0,0.0,0.0,0.0,0.0,0.0,0.0,0.0,0.0,0.0,0.0,0.0,0.0,0.0,0.0,0.0,0.0,0.0,0.0,0.0,0.0,0.0,0.0,0.0,0.0,0.0,0.0,0.0,0.0,0.0,0.0,0.0,0.0,0.0,0.0,0.0,0.0,0.0,0.0,0.0,0.0,0.0,0.0,0.0,0.0,0.0,0.0,0.0,0.0,0.0,0.0,0.0,0.0,0.0,0.0,0.0,0.0,0.0,0.0,0.0,0.0,0.0,0.0,0.0,0.0,0.0,0.0,0.0,0.0,0.0,0.0,0.0,0.0,0.0,0.0,0.0,0.0,0.0,0.0,0.0,0.0,0.0,0.0,0.0,0.0,0.0,0.0,0.0,0.0,0.0,0.0,0.0,0.0,0.0,0.0,0.0,0.0,0.0,0.0,0.0,1.4188,1.4576,1.6308,0.0,1.7079,1.595,0.0,0.0,0.0,0.0,0.0,0.0,0.0,0.0,0.0,0.0,0.0,0.0,0.0,0.0,0.0,0.0,0.0,0.0,0.0,0.0,0.0,0.0,0.0,0.0,0.0,0.0,0.0,0.0,0.0,0.0,0.0,0.0,0.0,0.0,0.0,0.0,0.0,0.0,0.0,0.0,0.0,0.0,0.0,0.0,0.0,0.0,0.0,0.0,0.0,0.0,0.0,0.0,0.0,0.0,0.0,0.0,0.0,0.0,0.0,0.0,0.0,0.0,0.0,0.0,0.0,0.0,0.0,0.0,0.0,0.0,0.0,0.0,0.0,0.0,0.0,0.0,0.0,0.0,0.0,0.0,0.0,0.0,0.0,0.0,0.0,0.0,0.0,0.0,0.0,0.0,0.0,0.0,0.0,0.0,0.0,0.0,0.0,0.0,0.0,0.0,0.0,0.0,0.0,0.0,0.0,0.0,0.0,0.0,0.0,1.3735,0.0,1.7685,0.0,1.7083,1.5654,0.0,0.0,0.0,0.0,0.0,0.0,0.0,0.0,0.0,0.0,0.0,0.0,0.0,0.0,0.0,0.0,0.0,0.0,0.0,0.0,0.0,0.0,0.0,0.0,0.0,0.0,0.0,0.0,0.0,0.0,0.0,0.0,0.0,0.0,0.0,0.0,0.0,0.0,0.0,0.0,0.0,0.0,0.0,0.0,0.0,0.0,0.0,0.0,0.0,0.0,0.0,0.0,0.0,0.0,0.0,0.0,0.0,0.0,0.0,0.0,0.0,0.0,0.0,0.0,0.0,0.0,0.0,0.0,0.0,0.0,0.0,0.0,0.0,0.0,0.0,0.0,0.0,0.0,0.0,0.0,0.0,0.0,0.0,0.0,0.0,0.0,0.0,0.0,0.0,0.0,0.0,0.0,0.0,0.0,0.0,0.0,0.0,0.0,0.0,0.0,0.0,0.0,0.0,0.0,0.0,0.0,0.0,0.0,1.3765,1.7443,1.9415,1.9534,1.7861,1.7555,1.5684,0.0,0.0,0.0,0.0,0.0,0.0,0.0,0.0,0.0,0.0,0.0,0.0,0.0,0.0,0.0,0.0,0.0,0.0,0.0,0.0,0.0,0.0,0.0,0.0,0.0,0.0,0.0,0.0,0.0,0.0,0.0,0.0,0.0,0.0,0.0,0.0,0.0,0.0,0.0,0.0,0.0,0.0,0.0,0.0,0.0,0.0,0.0,0.0,0.0,0.0,0.0,0.0,0.0,0.0,0.0,0.0,0.0,0.0,0.0,0.0,0.0,0.0,0.0,0.0,0.0,0.0,0.0,0.0,0.0,0.0,0.0,0.0,0.0,0.0,0.0,0.0,0.0,0.0,0.0,0.0,0.0,0.0,0.0,0.0,0.0,0.0,0.0,0.0,0.0,0.0,0.0,0.0,0.0,0.0,0.0,0.0,0.0,0.0,0.0,0.0,0.0,0.0,0.0,0.0,0.0,0.0,0.0,0.0,0.0,1.6398,1.7381,1.8688,2.0258,1.7354,1.5891,0.0,0.0,0.0,0.0,0.0,0.0,0.0,0.0,0.0,0.0,0.0,0.0,0.0,0.0,0.0,0.0,0.0,0.0,0.0,0.0,0.0,0.0,0.0,0.0,0.0,0.0,0.0,0.0,0.0,0.0,0.0,0.0,0.0,0.0,0.0,0.0,0.0,0.0,0.0,0.0,0.0,0.0,0.0,0.0,0.0,0.0,0.0,0.0,0.0,0.0,0.0,0.0,0.0,0.0,0.0,0.0,0.0,0.0,0.0,0.0,0.0,0.0,0.0,0.0,0.0,0.0,0.0,0.0,0.0,0.0,0.0,0.0,0.0,0.0,0.0,0.0,0.0,0.0,0.0,0.0,0.0,0.0,0.0,0.0,0.0,0.0,0.0,0.0,0.0,0.0,0.0,0.0,0.0,0.0,0.0,0.0,0.0,0.0,0.0,0.0,0.0,0.0,0.0,0.0,0.0,0.0,0.0,0.0,0.0,1.7978,1.8986,2.0124,2.1306,1.825,1.6724,1.6988,0.0,0.0,0.0,0.0,0.0,0.0,0.0,0.0,0.0,0.0,0.0,0.0,0.0,0.0,0.0,0.0,0.0,0.0,0.0,0.0,0.0,0.0,0.0,0.0,0.0,0.0,0.0,0.0,0.0,0.0,0.0,0.0,0.0,0.0,0.0,0.0,0.0,0.0,0.0,0.0,0.0,0.0,0.0,0.0,0.0,0.0,0.0,0.0,0.0,0.0,0.0,0.0,0.0,0.0,0.0,0.0,0.0,0.0,0.0,0.0,0.0,0.0,0.0,0.0,0.0,0.0,0.0,0.0,0.0,0.0,0.0,0.0,0.0,0.0,0.0,0.0,0.0,0.0,0.0,0.0,0.0,0.0,0.0,0.0,0.0,0.0,0.0,0.0,0.0,0.0,0.0,0.0,0.0,0.0,0.0,0.0,0.0,0.0,0.0,0.0,0.0,0.0,0.0,0.0,0.0,0.0,0.0,0.0,2.1613,2.3672,2.355,2.1126,2.0161,1.8182,0.0,0.0,0.0,0.0,0.0,0.0,0.0,0.0,0.0,0.0,0.0,0.0,0.0,0.0,0.0,0.0,0.0,0.0,0.0,0.0,0.0,0.0,0.0,0.0,0.0,0.0,0.0,0.0,0.0,0.0,0.0,0.0,0.0,0.0,0.0,0.0,0.0,0.0,0.0,0.0,0.0,0.0,0.0,0.0,0.0,0.0,0.0,0.0,0.0,0.0,0.0,0.0,0.0,0.0,0.0,0.0,0.0,0.0,0.0,0.0,0.0,0.0,0.0,0.0,0.0,0.0,0.0,0.0,0.0,0.0,0.0,0.0,0.0,0.0,0.0,0.0,0.0,0.0,0.0,0.0,0.0,0.0,0.0,0.0,0.0,0.0,0.0,0.0,0.0,0.0,0.0,0.0,0.0,0.0,0.0,0.0,0.0,0.0,0.0,0.0,0.0,0.0,0.0,0.0,0.0,0.0,0.0,0.0,0.0,2.3437,2.5556,2.6033,2.468,2.21,2.0137,0.0,0.0,0.0,0.0,0.0,0.0,0.0,0.0,0.0,0.0,0.0,0.0,0.0,0.0,0.0,0.0,0.0,0.0,0.0,0.0,0.0,0.0,0.0,0.0,0.0,0.0,0.0,0.0,0.0,0.0,0.0,0.0,0.0,0.0,0.0,0.0,0.0,0.0,0.0,0.0,0.0,0.0,0.0,0.0,0.0,0.0,0.0,0.0,0.0,0.0,0.0,0.0,0.0,0.0,0.0,0.0,0.0,0.0,0.0,0.0,0.0,0.0,0.0,0.0,0.0,0.0,0.0,0.0,0.0,0.0,0.0,0.0,0.0,0.0,0.0,0.0,0.0,0.0,0.0,0.0,0.0,0.0,0.0,0.0,0.0,0.0,0.0,0.0,0.0,0.0,0.0,0.0,0.0,0.0,0.0,0.0,0.0,0.0,0.0,0.0,0.0,0.0,0.0,0.0,0.0,0.0,0.0,0.0,2.2261,2.4523,2.6562,2.7419,2.7087,2.4548,2.2225,0.0,0.0,0.0,0.0,0.0,0.0,0.0,0.0,0.0,0.0,0.0,0.0,0.0,0.0,0.0,0.0,0.0,0.0,0.0,0.0,0.0,0.0,0.0,0.0,0.0,0.0,0.0,0.0,0.0,0.0,0.0,0.0,0.0,0.0,0.0,0.0,0.0,0.0,0.0,0.0,0.0,0.0,0.0,0.0,0.0,0.0,0.0,0.0,0.0,0.0,0.0,0.0,0.0,0.0,0.0,0.0,0.0,0.0,0.0,0.0,0.0,0.0,0.0,0.0,0.0,0.0,0.0,0.0,0.0,0.0,0.0,0.0,0.0,0.0,0.0,0.0,0.0,0.0,0.0,0.0,0.0,0.0,0.0,0.0,0.0,0.0,0.0,0.0,0.0,0.0,0.0,0.0,0.0,0.0,0.0,0.0,0.0,0.0,0.0,0.0,0.0,0.0,0.0,0.0,0.0,0.0,0.0,0.0,2.3184,2.5267,2.712,2.8241,2.8455,2.6933,2.4292,0.0,0.0,0.0,0.0,0.0,0.0,0.0,0.0,0.0,0.0,0.0,0.0,0.0,0.0,0.0,0.0,0.0,0.0,0.0,0.0,0.0,0.0,0.0,0.0,0.0,0.0,0.0,0.0,0.0,0.0,0.0,0.0,0.0,0.0,0.0,0.0,0.0,0.0,0.0,0.0,0.0,0.0,0.0,0.0,0.0,0.0,0.0,0.0,0.0,0.0,0.0,0.0,0.0,0.0,0.0,0.0,0.0,0.0,0.0,0.0,0.0,0.0,0.0,0.0,0.0,0.0,0.0,0.0,0.0,0.0,0.0,0.0,0.0,0.0,0.0,0.0,0.0,0.0,0.0,0.0,0.0,0.0,0.0,0.0,0.0,0.0,0.0,0.0,0.0,0.0,0.0,0.0,0.0,0.0,0.0,0.0,0.0,0.0,0.0,0.0,0.0,0.0,0.0,0.0,0.0,0.0,0.0,0.0,2.392,2.6381,2.8411,2.9389,2.9162,2.6928,2.4774,0.0,0.0,0.0,0.0,0.0,0.0,0.0,0.0,0.0,0.0,0.0,0.0,0.0,0.0,0.0,0.0,0.0,0.0,0.0,0.0,0.0,0.0,0.0,0.0,0.0,0.0,0.0,0.0,0.0,0.0,0.0,0.0,0.0,0.0,0.0,0.0,0.0,0.0,0.0,0.0,0.0,0.0,0.0,0.0,0.0,0.0,0.0,0.0,1.5308,0.0,0.0,0.0,0.0,0.0,0.0,0.0,0.0,0.0,0.0,0.0,0.0,0.0,0.0,0.0,0.0,0.0,0.0,0.0,0.0,0.0,0.0,0.0,0.0,0.0,0.0,0.0,0.0,0.0,0.0,0.0,0.0,0.0,0.0,0.0,0.0,0.0,0.0,0.0,0.0,0.0,0.0,0.0,0.0,0.0,0.0,0.0,0.0,0.0,0.0,0.0,0.0,0.0,0.0,0.0,0.0,0.0,0.0,0.0,2.4936,2.72,2.891,2.9633,2.9307,2.7306,2.5289,0.0,0.0,0.0,0.0,0.0,0.0,0.0,0.0,0.0,0.0,0.0,0.0,0.0,0.0,0.0,0.0,0.0,0.0,0.0,0.0,0.0,0.0,0.0,0.0,0.0,0.0,0.0,0.0,0.0,0.0,0.0,0.0,0.0,0.0,0.0,0.0,0.0,0.0,0.0,0.0,0.0,0.0,0.0,0.0,0.0,0.0,0.0,0.0,0.0,0.0,0.0,0.0,0.0,0.0,0.0,0.0,0.0,0.0,0.0,0.0,0.0,0.0,0.0,0.0,0.0,0.0,0.0,0.0,0.0,0.0,0.0,0.0,0.0,0.0,0.0,0.0,0.0,0.0,0.0,0.0,0.0,0.0,0.0,0.0,0.0,0.0,0.0,0.0,0.0,0.0,0.0,0.0,0.0,0.0,0.0,0.0,0.0,0.0,0.0,0.0,0.0,0.0,0.0,0.0,0.0,0.0,0.0,2.2859,2.5582,2.781,2.8913,2.9402,2.9258,2.7636,2.5686,2.3446,0.0,0.0,0.0,0.0,0.0,0.0,0.0,0.0,0.0,0.0,0.0,0.0,0.0,0.0,0.0,0.0,0.0,0.0,0.0,0.0,0.0,0.0,0.0,0.0,0.0,0.0,0.0,0.0,0.0,0.0,0.0,0.0,0.0,0.0,0.0,0.0,0.0,0.0,1.5265,1.6913,0.0,0.0,0.0,0.0,0.0,0.0,0.0,0.0,1.6589,0.0,0.0,0.0,0.0,0.0,0.0,0.0,0.0,0.0,0.0,0.0,0.0,0.0,0.0,0.0,0.0,0.0,0.0,0.0,0.0,0.0,0.0,0.0,0.0,0.0,0.0,0.0,0.0,0.0,0.0,0.0,0.0,0.0,0.0,0.0,0.0,0.0,0.0,0.0,0.0,0.0,0.0,0.0,0.0,0.0,0.0,0.0,0.0,0.0,0.0,0.0,0.0,0.0,0.0,0.0,0.0,2.2193,2.2888,2.4965,2.8419,2.8739,2.8824,2.8791,2.738,2.5674,2.3865,0.0,0.0,0.0,0.0,0.0,0.0,0.0,0.0,0.0,0.0,0.0,0.0,0.0,0.0,0.0,0.0,0.0,0.0,0.0,0.0,0.0,0.0,0.0,0.0,0.0,0.0,0.0,0.0,0.0,0.0,0.0,0.0,0.0,0.0,0.0,0.0,0.0,0.0,0.0,1.811,1.8861,0.0,0.0,0.0,0.0,0.0,0.0,0.0,0.0,1.6638,0.0,0.0,0.0,0.0,0.0,0.0,0.0,0.0,0.0,0.0,0.0,0.0,0.0,0.0,0.0,0.0,0.0,0.0,0.0,0.0,0.0,0.0,0.0,0.0,0.0,0.0,0.0,0.0,0.0,0.0,0.0,0.0,0.0,0.0,0.0,0.0,0.0,0.0,0.0,0.0,0.0,0.0,0.0,0.0,0.0,0.0,0.0,0.0,0.0,0.0,0.0,0.0,0.0,0.0,0.0,2.1772,2.3572,2.5633,2.81,2.8507,2.8507,2.8158,2.6184,2.4456,0.0,0.0,0.0,0.0,0.0,0.0,0.0,0.0,0.0,0.0,0.0,0.0,0.0,0.0,0.0,0.0,0.0,0.0,0.0,0.0,0.0,0.0,0.0,0.0,0.0,0.0,0.0,0.0,0.0,0.0,0.0,0.0,0.0,0.0,0.0,0.0,0.0,0.0,0.0,0.0,1.8674,1.9106,1.9159,0.0,0.0,0.0,0.0,0.0,0.0,1.7511,1.7325,0.0,0.0,0.0,0.0,0.0,0.0,0.0,0.0,0.0,0.0,0.0,0.0,0.0,0.0,0.0,0.0,0.0,0.0,0.0,0.0,0.0,0.0,0.0,0.0,0.0,0.0,0.0,0.0,0.0,0.0,0.0,0.0,0.0,0.0,0.0,0.0,0.0,0.0,0.0,0.0,0.0,0.0,0.0,0.0,0.0,0.0,0.0,0.0,0.0,0.0,0.0,0.0,0.0,0.0,0.0,2.0988,2.3775,2.6039,2.7665,2.81,2.8129,2.7694,2.5342,2.3472,0.0,0.0,0.0,0.0,0.0,0.0,0.0,0.0,0.0,0.0,0.0,0.0,0.0,0.0,0.0,0.0,0.0,0.0,0.0,0.0,0.0,0.0,0.0,0.0,0.0,0.0,0.0,0.0,0.0,0.0,0.0,0.0,0.0,0.0,0.0,0.0,0.0,0.0,0.0,0.0,0.0,1.9572,1.9951,1.9781,0.0,0.0,0.0,0.0,1.8847,1.8768,0.0,0.0,0.0,0.0,0.0,0.0,0.0,0.0,0.0,0.0,0.0,0.0,0.0,0.0,0.0,0.0,0.0,0.0,0.0,0.0,0.0,0.0,0.0,0.0,0.0,0.0,0.0,0.0,0.0,0.0,0.0,0.0,0.0,0.0,0.0,0.0,0.0,0.0,0.0,0.0,0.0,0.0,0.0,0.0,0.0,0.0,0.0,0.0,0.0,0.0,0.0,0.0,0.0,0.0,0.0,0.0,2.0872,2.2468,2.4684,2.7549,2.7258,2.7229,2.7694,2.5727,2.4002,0.0,0.0,0.0,0.0,0.0,0.0,0.0,0.0,0.0,0.0,0.0,0.0,0.0,0.0,0.0,0.0,0.0,0.0,0.0,0.0,0.0,0.0,0.0,0.0,0.0,0.0,0.0,0.0,0.0,0.0,0.0,0.0,0.0,0.0,0.0,0.0,0.0,0.0,0.0,0.0,0.0,2.0858,1.9991,2.0227,2.0539,0.0,0.0,1.9991,2.0959,2.0868,0.0,0.0,0.0,0.0,0.0,0.0,0.0,0.0,0.0,0.0,0.0,0.0,0.0,0.0,0.0,0.0,0.0,0.0,0.0,0.0,0.0,0.0,0.0,0.0,0.0,0.0,0.0,0.0,0.0,0.0,0.0,0.0,0.0,0.0,0.0,0.0,0.0,0.0,0.0,0.0,0.0,0.0,0.0,0.0,0.0,0.0,0.0,0.0,0.0,0.0,0.0,0.0,0.0,0.0,0.0,1.8085,2.1481,2.312,2.5052,2.7084,2.6939,2.691,2.7171,2.4916,2.3065,0.0,0.0,0.0,0.0,0.0,0.0,0.0,0.0,0.0,0.0,0.0,0.0,0.0,0.0,0.0,0.0,0.0,0.0,0.0,0.0,0.0,0.0,0.0,0.0,0.0,0.0,0.0,0.0,0.0,0.0,0.0,0.0,0.0,0.0,0.0,0.0,0.0,0.0,0.0,0.0,0.0,0.0,2.125,2.1485,0.0,0.0,0.0,2.1432,2.1847,0.0,0.0,0.0,0.0,0.0,0.0,0.0,0.0,0.0,0.0,0.0,0.0,0.0,0.0,0.0,0.0,0.0,0.0,0.0,0.0,0.0,0.0,0.0,0.0,0.0,0.0,0.0,0.0,0.0,0.0,0.0,0.0,0.0,0.0,0.0,0.0,0.0,0.0,0.0,0.0,0.0,0.0,0.0,0.0,0.0,0.0,0.0,0.0,0.0,0.0,0.0,0.0,0.0,0.0,0.0,0.0,0.0,2.1946,2.4181,2.5865,2.6968,2.7026,2.7026,2.6968,2.4626,0.0,0.0,0.0,0.0,0.0,0.0,0.0,0.0,0.0,0.0,0.0,0.0,0.0,0.0,0.0,0.0,0.0,0.0,0.0,0.0,0.0,0.0,0.0,0.0,0.0,0.0,0.0,1.0565,0.0,0.0,0.0,0.0,0.0,0.0,0.0,0.0,0.0,0.0,0.0,0.0,0.0,0.0,2.1459,2.2479,2.2871,2.3136,0.0,0.0,2.3036,2.2938,2.2751,2.1981,0.0,0.0,0.0,0.0,0.0,0.0,0.0,0.0,0.0,0.0,0.0,0.0,0.0,0.0,0.0,0.0,0.0,0.0,0.0,0.0,0.0,0.0,0.0,0.0,0.0,0.0,0.0,0.0,0.0,0.0,0.0,0.0,0.0,0.0,0.0,0.0,0.0,0.0,0.0,0.0,0.0,0.0,0.0,0.0,0.0,0.0,0.0,0.0,0.0,0.0,0.0,0.0,0.0,0.0,0.0,2.1975,2.5081,2.6968,2.7636,2.7665,2.761,2.7581,2.5676,2.3572,0.0,0.0,0.0,0.0,0.0,0.0,0.0,0.0,0.0,0.0,0.0,0.0,0.0,0.0,0.0,0.0,0.0,0.0,0.0,0.0,0.0,0.0,0.0,0.0,0.0,0.0,0.0,0.0,0.0,0.0,0.0,0.0,0.0,0.0,0.0,0.0,0.0,0.0,0.0,0.0,0.0,2.2505,2.308,2.4099,2.4988,0.0,0.0,2.4839,2.4786,2.4786,2.39,2.1342,0.0,0.0,0.0,0.0,0.0,0.0,0.0,0.0,0.0,0.0,0.0,0.0,0.0,0.0,0.0,0.0,0.0,0.0,0.0,0.0,0.0,0.0,0.0,0.0,0.0,0.0,0.0,0.0,0.0,0.0,0.0,0.0,0.0,0.0,0.0,0.0,0.0,0.0,0.0,0.0,0.0,0.0,0.0,0.0,0.0,0.0,0.0,0.0,0.0,0.0,0.0,0.0,0.0,1.9856,2.3136,2.5445,2.718,2.8274,2.8192,2.8018,2.7752,2.6462,2.4549,0.0,0.0,0.0,0.0,0.0,0.0,0.0,0.0,0.0,0.0,0.0,0.0,0.0,0.0,0.0,0.0,0.0,0.0,0.0,0.0,0.0,0.0,0.0,0.0,0.0,0.0,0.0,0.0,1.3861,1.4435,1.4546,0.0,0.0,0.0,0.0,0.0,0.0,0.0,0.0,0.0,0.0,2.3367,2.4622,2.5223,0.0,0.0,2.6164,2.6007,2.6007,2.5118,2.3869,2.2168,2.1057,0.0,0.0,0.0,0.0,0.0,0.0,0.0,0.0,0.0,0.0,0.0,0.0,0.0,0.0,0.0,0.0,0.0,0.0,0.0,0.0,0.0,0.0,0.0,0.0,0.0,0.0,0.0,0.0,0.0,0.0,0.0,0.0,0.0,0.0,0.0,0.0,0.0,0.0,0.0,0.0,0.0,0.0,0.0,0.0,0.0,0.0,0.0,0.0,0.0,0.0,0.0,0.0,2.0385,2.3768,2.5949,2.7648,2.8828,2.8713,2.8425,2.7847,2.6903,2.5063,0.0,0.0,0.0,0.0,0.0,0.0,0.0,0.0,0.0,0.0,0.0,0.0,0.0,0.0,0.0,0.0,0.0,0.0,0.0,0.0,0.0,0.0,0.0,0.0,0.0,0.0,0.0,0.0,1.4504,1.4849,1.4849,0.0,0.0,0.0,0.0,0.0,0.0,0.0,0.0,0.0,0.0,2.4308,2.585,2.6216,2.653,2.7105,2.7027,2.687,2.6713,2.5798,2.457,2.2897,0.0,0.0,0.0,0.0,0.0,0.0,0.0,0.0,0.0,0.0,0.0,0.0,0.0,0.0,0.0,0.0,0.0,0.0,0.0,0.0,0.0,0.0,0.0,0.0,0.0,0.0,0.0,0.0,0.0,0.0,1.138,0.0,0.0,0.0,0.0,0.0,0.0,0.0,0.0,0.0,0.0,0.0,0.0,0.0,0.0,0.0,0.0,0.0,0.0,0.0,0.0,0.0,0.0,2.1097,2.3579,2.6784,2.8656,2.9083,2.9288,2.9001,2.8168,2.6887,2.514,2.3052,0.0,0.0,0.0,0.0,0.0,0.0,0.0,0.0,0.0,0.0,0.0,0.0,0.0,0.0,0.0,0.0,0.0,0.0,0.0,0.0,0.0,0.0,0.0,0.0,0.0,0.0,1.4007,1.4546,1.4849,0.0,0.0,0.0,0.0,0.0,0.0,0.0,0.0,0.0,0.0,2.4204,2.5354,2.6504,2.7131,2.768,2.8229,2.7889,2.734,2.6817,2.7105,2.6504,0.0,0.0,0.0,0.0,0.0,0.0,0.0,0.0,0.0,0.0,0.0,0.0,0.0,0.0,0.0,0.0,0.0,0.0,0.0,0.0,0.0,0.0,0.0,0.0,0.0,0.0,0.0,1.7276,1.5872,0.0,0.0,0.0,0.0,0.0,0.0,0.0,0.0,0.0,0.0,0.0,2.5226,2.6271,0.0,0.0,0.0,0.0,0.0,0.0,0.0,0.0,0.0,0.0,0.0,0.0,2.216,2.4287,2.7226,2.9109,2.9768,2.9708,2.9394,2.8826,2.7883,2.6115,2.3554,0.0,0.0,0.0,0.0,0.0,0.0,0.0,0.0,0.0,0.0,0.0,0.0,0.0,0.0,0.0,0.0,0.0,0.0,0.0,0.0,0.0,0.0,0.0,0.0,0.0,1.5042,0.0,0.0,0.0,0.0,0.0,0.0,0.0,0.0,0.0,0.0,0.0,2.3446,2.4779,2.5929,2.6948,2.7706,2.7968,2.8281,0.0,0.0,0.0,0.0,0.0,0.0,0.0,0.0,0.0,0.0,0.0,0.0,0.0,0.0,2.7907,2.5037,2.4169,2.3931,2.423,0.0,0.0,0.0,0.0,0.0,0.0,0.0,0.0,0.0,0.0,0.0,0.0,0.0,0.0,2.1041,0.0,1.9711,0.0,0.0,0.0,0.0,0.0,0.0,0.0,0.0,2.633,2.7682,2.8309,2.9348,2.929,0.0,2.7736,2.5443,0.0,0.0,0.0,0.0,0.0,0.0,0.0,0.0,2.3226,2.514,2.7598,2.9213,2.9898,2.9837,2.9525,2.899,2.808,2.6519,2.4197,2.2324,2.0841,0.0,0.0,0.0,0.0,0.0,0.0,0.0,0.0,0.0,0.0,0.0,0.0,0.0,0.0,0.0,0.0,0.0,0.0,0.0,0.0,0.0,0.0,0.0,1.5902,0.0,0.0,0.0,0.0,0.0,0.0,0.0,0.0,0.0,2.2426,2.4099,2.5667,2.6582,2.7549,2.8281,2.8647,0.0,0.0,0.0,0.0,0.0,0.0,0.0,2.7419,2.7785,2.7105,2.6739,2.7445,2.8856,2.9614,2.883,0.0,0.0,2.7196,2.6294,2.6108,2.6382,2.6729,2.672,2.6283,2.6952,2.7434,0.0,0.0,0.0,0.0,0.0,0.0,0.0,0.0,2.4891,2.4838,0.0,2.4169,0.0,0.0,0.0,0.0,0.0,0.0,0.0,0.0,2.9266,3.0581,3.1098,3.1675,3.1646,3.1162,3.2225,3.1133,2.8025,2.3331,0.0,0.0,0.0,0.0,0.0,0.0,2.4346,2.6155,2.8052,2.9209,2.9617,2.9713,2.9464,2.8689,2.7537,2.6329,2.5173,2.4725,2.2961,1.9782,1.9177,0.0,0.0,0.0,0.0,0.0,0.0,0.0,0.0,0.0,0.0,0.0,0.0,0.0,0.0,0.0,0.0,0.0,0.0,0.0,0.0,1.6075,0.0,0.0,0.0,0.0,0.0,0.0,0.0,0.0,0.0,0.0,2.4517,2.6216,2.7785,2.836,0.0,0.0,0.0,0.0,2.951,3.0085,2.9693,2.9353,2.9353,2.9745,2.9693,2.8647,0.0,0.0,2.9536,3.0294,3.0712,2.9614,3.0372,3.1052,3.0973,2.9483,2.8733,2.9442,2.8591,2.8024,2.8796,2.9369,2.9697,3.2274,0.0,0.0,0.0,0.0,2.908,2.9536,3.0566,3.016,2.9067,2.7561,2.7402,0.0,0.0,0.0,0.0,0.0,0.0,2.7538,3.0172,3.1514,3.2692,3.3671,3.3482,3.3254,3.3082,3.2834,3.2283,3.1318,2.8866,2.559,2.1554,0.0,0.0,0.0,0.0,2.6862,2.7456,2.9116,3.0094,3.0263,2.9841,2.9369,2.8717,2.8352,2.779,2.7003,2.6045,2.4859,2.3435,2.1614,0.0,0.0,0.0,0.0,0.0,0.0,0.0,0.0,0.0,0.0,0.0,0.0,0.0,0.0,0.0,0.0,0.0,0.0,0.0,1.6023,1.6624,1.746,0.0,0.0,0.0,0.0,0.0,0.0,0.0,0.0,0.0,2.8307,2.8621,2.8987,0.0,0.0,2.9902,2.9876,2.9876,3.0085,3.066,0.0,0.0,0.0,2.9954,2.9693,3.0163,3.0999,3.147,3.1156,3.1705,3.2097,3.1731,3.1967,3.2202,3.2123,3.1156,3.042,3.0572,3.0288,3.0189,3.0786,3.1149,3.1209,3.6613,3.3747,3.2904,3.2988,3.3635,3.2818,3.3311,3.4561,3.3479,3.2671,3.1956,3.1493,2.9753,2.7125,2.591,0.0,0.0,0.0,2.9697,3.1944,3.2526,3.3401,3.436,3.4115,3.4044,3.4015,3.335,3.3038,3.2901,3.2139,2.9685,2.5788,0.0,0.0,2.4617,2.723,2.8725,2.8947,3.0207,3.0909,3.0909,3.0291,2.9673,2.9083,2.9055,2.8774,2.8155,2.7397,2.6497,2.5374,2.3688,2.1664,0.0,0.0,0.0,0.0,0.0,0.0,0.0,0.0,0.0,0.0,0.0,1.367,0.0,0.0,0.0,0.0,1.5526,1.7146,1.8323,1.9342,0.0,0.0,0.0,0.0,0.0,0.0,0.0,2.768,2.8882,2.9954,3.0999,3.0843,3.0686,3.079,3.0999,3.1078,3.0843,0.0,3.1182,3.1313,3.1522,3.1575,3.1365,3.0947,3.0869,3.1548,3.194,3.2176,3.2202,3.2489,3.2672,3.2672,3.2672,3.2672,3.2672,3.2123,3.1653,3.1653,3.1679,3.1784,3.2123,3.2176,3.2124,4.0097,3.8975,3.7906,3.7316,3.6962,3.6141,3.6221,3.6906,3.5566,3.5778,3.695,3.5779,3.3833,3.1153,2.9372,0.0,2.9905,3.0565,3.1547,3.2725,3.2857,3.3223,3.3946,3.4224,3.4309,3.4281,3.3889,3.3579,3.3382,3.3522,3.2647,3.0769,2.9617,2.9031,2.8983,2.9538,3.0094,3.0656,3.1246,3.1527,3.1471,3.0853,3.0235,2.9701,2.9588,2.9279,2.8717,2.8577,2.7762,2.6048,2.5289,2.3631,2.0806,0.0,0.0,0.0,0.0,0.0,0.0,0.0,0.0,0.0,0.0,0.0,0.0,0.0,0.0,0.0,1.8767,0.0,2.1616,2.321,0.0,0.0,0.0,2.5171,2.6948,2.8046,2.9301,3.0921,0.0,0.0,3.2751,0.0,3.2568,3.2045,3.2411,3.2489,3.1993,3.2306,3.2489,3.1967,3.2359,3.2489,3.2019,3.2228,3.2489,3.2568,3.2725,3.2751,3.2777,3.2855,3.2829,3.2908,3.2829,3.2855,3.2855,3.2855,3.2829,3.2829,3.2725,3.2672,3.2751,3.2671,3.2618,4.0822,4.0521,4.11,3.9786,3.7373,3.7895,3.7813,3.7345,3.7729,3.7858,3.7573,3.6656,3.4633,3.1889,3.1392,3.1034,3.0723,3.2179,3.319,3.393,3.4838,3.537,3.5495,3.5134,3.4927,3.5001,3.486,3.455,3.4028,3.4028,3.355,3.2679,3.2342,3.1274,2.9566,3.0965,3.1808,3.1949,3.2089,3.1977,3.1471,3.0853,3.0459,3.0291,2.9392,2.8858,2.8689,2.7762,2.7059,2.6582,2.5121,2.3839,2.2837,1.9722,0.0,0.0,0.0,0.0,0.0,0.0,0.0,0.0,0.0,1.8662,1.5343,0.0,2.0414,0.0,2.1328,2.2714,2.342,2.4256,0.0,0.0,2.7366,2.8386,3.0947,3.113,3.1339,3.2176,3.2515,3.2855,3.3326,3.3378,3.3326,3.3195,3.2908,3.2646,3.2515,3.2594,3.2646,3.2542,3.262,3.2646,3.2542,3.2594,3.2698,3.2672,3.3091,3.3378,3.3378,3.3744,3.3979,3.3979,3.3979,3.4005,3.3953,3.4005,3.3979,3.3927,3.33,3.2829,3.3273,3.2946,3.253,4.1948,4.1791,4.239,4.1196,3.902,3.8836,3.8564,3.8206,3.7617,3.7407,3.7338,3.6135,3.4977,3.3871,3.3442,3.2947,3.2597,3.3275,3.4004,3.4659,3.509,3.5483,3.5875,3.5703,3.5648,3.562,3.5367,3.4983,3.4674,3.4646,3.4337,3.3719,3.3719,3.2904,3.1387,3.2286,3.282,3.282,3.282,3.2511,3.1921,3.1555,3.0965,3.015,2.9729,2.9111,2.8324,2.7874,2.7256,2.6413,2.543,2.4459,2.3565,2.1321,1.9772,0.0,0.0,0.0,0.0,0.0,0.0,0.0,0.0,0.0,0.0,0.0,2.3027,0.0,2.4491,2.585,2.6713,2.7758,2.8908,3.0163,3.0294,3.1026,3.2908,3.2829,3.275,3.3216,3.3375,3.3561,3.3819,3.3871,3.3953,3.3953,3.3666,3.3352,3.3169,3.3273,3.3378,3.3143,3.33,3.3456,3.3456,3.3456,3.3456,3.3483,3.3718,3.3953,3.3953,3.4188,3.4397,3.4397,3.4397,3.4397,3.4397,3.4397,3.4397,3.4345,3.4136,3.3901,3.3927,3.3431,3.2861,4.2906,4.2433,4.2733,4.2286,4.1295,3.9614,3.915,3.9311,3.7105,3.6482,3.6831,3.544,3.5187,3.5734,3.4956,3.4479,3.4379,3.4173,3.4474,3.5201,3.4936,3.5168,3.6006,3.6136,3.6192,3.6164,3.563,3.5423,3.5339,3.5339,3.4955,3.4365,3.4209,3.3972,3.3466,3.3354,3.3326,3.3326,3.3326,3.3045,3.2539,3.2455,3.1583,2.9982,3.015,2.9504,2.7874,2.8296,2.7818,2.6189,2.6161,2.5466,2.4039,2.3144,2.2315,0.0,2.1167,0.0,0.0,0.0,0.0,0.0,0.0,0.0,0.0,2.5197,2.5955,2.6452,2.7968,2.9353,3.0372,3.181,3.2751,3.2908,3.2828,3.3088,3.374,3.3845,3.3944,3.4244,3.4464,3.4549,3.4406,3.4464,3.4607,3.4659,3.4633,3.4476,3.4058,3.4162,3.4136,3.3744,3.4084,3.4267,3.4293,3.4345,3.4319,3.4371,3.4345,3.4397,3.4371,3.4397,3.4397,3.4397,3.4502,3.4528,3.4502,3.458,3.4633,3.4711,3.5025,3.5129,3.4406,3.3845,3.3417,4.1576,4.1595,4.3377,4.3686,4.2906,4.0962,4.0372,4.074,4.0501,3.933,3.7547,3.643,3.5382,3.445,3.4238,3.3926,3.363,3.4997,3.5713,3.5948,3.6825,3.731,3.7442,3.7013,3.681,3.681,3.6697,3.6388,3.5911,3.5911,3.5574,3.4983,3.4478,3.4096,3.4056,0.0,0.0,0.0,3.3326,3.3269,3.3129,3.2651,3.2005,3.1134,2.9757,0.0,2.7846,2.7874,2.7673,2.7045,2.7428,0.0,0.0,0.0,0.0,0.0,0.0,0.0,0.0,0.0,0.0,0.0,2.6347,2.6033,2.5615,2.815,2.9902,3.0032,3.1156,3.1967,3.2202,3.2332,3.2849,3.3674,3.3669,3.3887,3.4889,3.5043,3.5095,3.5172,3.5373,3.546,3.5435,3.5635,3.5757,3.573,3.5783,3.573,3.56,3.4894,3.4397,3.4267,3.4345,3.4397,3.4397,3.4397,3.4397,3.4397,3.4397,3.4424,3.4424,3.445,3.4424,3.445,3.4789,3.5129,3.5129,3.5469,3.5618,3.5783,3.5861,3.5609,3.4433,3.3959,3.3629,4.2012,0.0,4.3709,4.4228,0.0,4.2262,4.1689,4.1842,3.9891,3.8454,3.7398,3.6351,3.5957,3.5812,3.4798,3.4841,3.5504,3.5203,3.5596,3.6436,3.6833,3.7262,3.7675,3.7886,3.7765,3.7428,3.7428,3.7119,3.6529,3.6529,3.622,3.5677,3.5293,3.4983,3.4674,3.4084,3.3635,3.3326,3.3326,3.3326,3.3297,3.3016,3.2426,3.1527,0.0,0.0,0.0,0.0,0.0,0.0,0.0,0.0,0.0,0.0,0.0,2.6634,2.6634,2.6504,2.6295,2.7288,2.8203,2.8778,2.9327,2.9301,2.8438,3.0429,3.1785,3.2098,3.2797,3.3312,3.3623,3.3824,3.4126,3.4693,3.4571,3.4827,3.5314,3.5442,3.5353,3.5264,3.5442,3.5531,3.5468,3.5797,3.5947,3.5947,3.6035,3.6123,3.6044,3.5391,3.4763,3.445,3.4397,3.4397,3.4397,3.4397,3.4424,3.4424,3.4633,3.4816,3.4842,3.5077,3.5234,3.526,3.5236,3.527,3.5531,3.53,3.5099,3.5417,3.5443,3.5093,3.4065,3.3833,3.3674,4.2404,4.2598,4.3709,4.4209,4.4303,4.33,4.2598,4.2003,0.0,0.0,0.0,3.6135,3.6405,3.749,3.5911,3.6053,3.7402,3.5575,3.5537,3.6948,3.6639,3.6983,3.7863,3.856,3.858,3.8074,3.8074,3.7737,3.7147,3.7147,3.6838,3.6276,3.6136,3.5845,3.5226,3.4646,3.414,3.3663,3.3438,3.3326,3.3326,3.3326,3.2792,3.1668,3.1965,3.131,2.9715,3.0155,2.9951,2.8941,2.8766,2.8719,2.881,2.8439,2.8618,2.9353,2.9876,2.998,2.9614,3.0555,3.0973,3.0607,3.1548,3.194,3.147,3.215,3.282,3.3493,3.3766,3.411,3.4699,3.5047,3.5405,3.5481,3.5417,3.5417,3.5545,3.5545,3.5531,3.539,3.5531,3.5455,3.5234,3.5711,3.5929,3.584,3.6159,3.6358,3.6227,3.5809,3.5286,3.4894,3.4842,3.4763,3.4711,3.4763,3.4711,3.4816,3.5155,3.5417,3.5323,3.5635,3.5807,3.5466,3.52,3.5277,3.5634,3.5042,3.4403,3.4977,3.4959,3.4625,3.3935,3.3883,3.3736,4.0617,4.1518,4.2598,4.3586,4.4303,4.33,4.1789,3.9956,3.8944,3.8166,3.7741,3.677,3.6577,3.7228,3.6939,3.6689,3.6521,3.698,3.7416,0.0,3.7865,3.8464,3.9452,3.9114,3.8833,3.8749,3.8721,3.8412,3.7821,3.7765,3.7456,3.6866,3.6332,3.577,3.5254,3.5142,3.4983,3.4871,3.3831,3.3326,3.3326,3.3326,3.2988,3.2314,3.1567,3.0726,2.9886,3.0172,3.0106,2.9629,3.0539,3.077,2.9941,2.9817,2.9823,3.0006,3.0085,3.032,3.0712,3.1365,3.1914,3.2306,3.296,3.33,3.3247,3.3378,3.3736,3.4555,3.4676,3.4873,3.5237,3.5264,3.5339,3.5745,3.5612,3.5697,3.6193,3.6269,3.6243,3.615,3.6387,3.615,3.5536,3.6125,3.6405,3.5962,3.6303,3.7039,3.6638,3.6358,3.5992,3.5887,3.5861,3.5861,3.5557,3.5861,3.5583,3.5861,3.58,3.5642,3.5137,3.5175,3.5097,3.4338,3.4552,3.4799,3.5034,3.5219,3.5178,3.5322,3.535,3.5016,3.4316,3.4221,3.4003,3.9699,4.0287,4.2084,4.3081,4.3491,4.2404,4.1019,3.9572,3.8728,3.8025,3.7535,3.7025,3.714,3.7515,3.6899,3.6995,3.7518,3.6855,3.7082,3.7795,3.796,3.8539,3.9412,3.9704,3.9704,3.9367,3.9367,3.903,3.844,3.8074,3.7765,3.7456,3.6866,3.6248,3.5761,3.5658,3.5564,3.5226,3.4281,3.3803,3.3732,3.3254,3.2876,3.2598,3.1873,3.1389,3.1116,3.1221,3.1172,3.103,3.1349,3.1362,3.0976,3.0729,3.0738,3.1026,3.0976,3.1313,3.1862,3.215,3.2568,3.3143,3.343,3.3792,3.4308,3.4166,3.4314,3.4744,3.5021,3.5238,3.5426,3.5638,3.5915,3.6142,3.61,3.6107,3.6307,3.6358,3.6358,3.6358,3.6452,3.6332,3.5953,3.5953,3.5953,3.5451,3.5833,3.5899,3.5862,3.5798,3.5694,3.5545,3.5506,3.5302,3.4945,3.483,3.483,3.483,3.5108,3.5193,3.4902,3.5052,3.5065,3.4834,3.4652,3.4678,3.5013,3.4631,3.4581,3.4872,3.4605,3.4237,3.3843,3.3843,3.3645,3.8976,3.9469,4.1167,4.1985,4.2181,4.1293,4.0313,3.9287,3.8267,3.7546,3.7187,3.7268,3.778,3.8265,3.7366,3.7667,3.861,3.7142,3.6843,3.7753,3.8096,3.8565,3.9237,4.0229,4.0463,4.0041,3.9985,3.9676,3.9086,3.8552,3.8243,3.8074,3.7512,3.695,3.6424,3.6207,3.5899,3.532,3.4659,3.4371,3.4203,3.3512,3.3046,3.2973,3.2682,3.2461,3.2388,3.224,3.224,3.224,3.1942,3.1867,3.1792,3.1517,3.1575,3.1967,3.2019,3.228,3.2829,3.2908,3.3221,3.3927,3.3979,3.4314,3.4969,3.5079,3.4981,3.4996,3.5325,3.5646,3.573,3.6081,3.6358,3.6358,3.6168,3.6143,3.6358,3.6168,3.6168,3.6263,3.6168,3.5953,3.5667,3.5162,3.4775,3.4775,3.4654,3.4435,3.4533,3.4945,3.5059,3.4892,3.4961,3.5011,3.4318,3.4342,3.4342,3.42,3.4662,3.4908,3.4817,3.5015,3.5114,3.4921,3.4459,3.4362,3.4775,3.4237,3.3744,3.4017,3.3744,3.3369,3.3369,3.3369,3.3292,3.8161,3.939,3.9287,3.9649,4.0539,4.0262,3.9572,3.8767,3.7631,3.712,3.7133,3.769,3.8708,3.984,3.8919,3.9013,3.9944,3.8962,3.8171,3.8041,3.8859,3.9211,3.9292,4.0257,4.0688,4.0603,4.0575,4.0266,3.9732,3.9592,3.9311,3.8777,3.8131,3.7554,3.7149,3.6678,3.6108,3.5627,3.5056,3.464,3.4499,3.4416,3.4135,3.3783,3.3729,3.3526,3.3114,3.2856,3.2673,3.2699,3.2568,3.2594,3.2594,3.2515,3.2542,3.2594,3.262,3.2881,3.3456,3.3509,3.3979,3.4999,3.5103,3.5279,3.5668,3.6006,3.6018,3.5887,3.578,3.5966,3.6301,3.6332,3.6383,3.6433,3.562,3.5259,3.6148,3.5571,3.5283,3.6263,3.5598,3.4581,3.4012,3.3615,3.3568,3.3615,3.3661,3.3738,3.3913,3.3988,3.404,3.4071,3.4703,3.5279,3.5135,3.5399,3.5086,3.523,3.5399,3.5041,3.4558,3.4388,3.4385,3.404,3.3668,3.3668,3.3568,3.3292,3.3392,3.3584,3.3484,3.3338,3.3315,3.3384,3.3407,3.7981,3.8431,3.8916,3.964,4.0134,3.9546,3.9055,3.8638,3.7524,3.712,3.712,3.7358,3.8146,3.9193,3.8679,3.8893,3.9385,3.9064,3.8856,3.8921,3.9653,3.9894,3.993,4.0747,4.096,4.0349,4.0597,4.0575,4.0294,3.9957,3.9368,3.8477,3.8144,3.7786,3.7372,3.7153,3.677,3.6252,3.5681,3.5278,3.4846,3.4143,3.3715,3.356,3.3301,3.3144,3.2935,3.2778,3.2672,3.2672,3.2672,3.2672,3.2672,3.2672,3.2855,3.3195,3.3535,3.3953,3.4554,3.4607,3.4946,3.573,3.5783,3.5843,3.6058,3.6251,3.6299,3.6261,3.6218,3.6225,3.6427,3.6358,3.6483,3.6664,3.5844,3.5475,3.621,3.5289,3.4785,3.5189,3.4886,3.4481,3.3994,3.3456,3.2834,3.2542,3.252,3.2894,3.2916,3.3146,3.3344,3.3322,3.3761,3.4123,3.4209,3.4237,3.4237,3.4237,3.4237,3.404,3.3941,3.3744,3.3668,3.3292,3.3361,3.3361,3.3392,3.3315,3.3338,3.3568,3.4027,3.4165,3.4188,3.4188,3.4188,3.8036,3.8043,3.8924,3.9234,3.9134,3.8638,3.8243,3.7926,3.7227,3.6904,3.6928,3.6904,3.7334,3.808,3.808,3.8466,3.9272,3.9146,3.9144,3.9615,4.0235,4.0372,4.016,4.0987,4.0921,4.0177,4.0316,4.0308,4.0027,3.984,3.9084,3.8246,3.8139,3.8,3.7547,3.7327,3.6945,3.6458,3.6093,3.5738,3.5319,3.4468,3.3913,3.3622,3.3489,3.3329,3.3143,3.3169,3.3169,3.3169,3.3143,3.3169,3.3169,3.3169,3.343,3.4031,3.4554,3.5051,3.5495,3.5521,3.5757,3.6253,3.627,3.6326,3.6456,3.6402,3.6396,3.6377,3.6483,3.6558,3.6383,3.6483,3.6664,3.6748,3.5864,3.5449,3.5656,3.4797,3.4125,3.438,3.4289,3.396,3.3665,3.2877,3.2233,3.1713,3.1755,3.2015,3.1993,3.2276,3.2598,3.2801,3.2944,3.3218,3.3229,3.3369,3.3292,3.3338,3.3461,3.3654,3.3407,3.3453,3.3545,3.3729,3.366,3.3729,3.3889,3.3843,3.3775,3.4142,3.4532,3.4785,3.467,3.4785,3.4854,3.8132,3.8624,3.8742,3.7939,3.658,3.7334,3.712,3.658,3.6386,3.6386,3.6363,3.6386,3.6796,3.7524,3.7334,3.8453,4.0236,3.9546,3.9295,3.9745,4.0578,4.0552,3.9642,4.0562,4.0629,3.9796,4.0011,3.9627,3.8549,3.897,3.8944,3.8156,3.8351,3.8195,3.7678,3.719,3.6645,3.6271,3.6158,3.6018,3.6079,3.5974,3.5398,3.4507,3.4759,3.4759,3.4402,3.4319,3.4319,3.4319,3.4319,3.4319,3.4319,3.4319,3.458,3.5155,3.5704,3.6018,3.6044,3.607,3.6332,3.6854,3.6779,3.6716,3.6929,3.6794,3.6564,3.6477,3.6739,3.6789,3.6513,3.6718,3.6676,3.5912,3.5113,3.4751,3.4635,3.3799,3.3559,3.4027,3.3564,3.2879,3.1881,3.1491,3.1683,3.1485,3.1532,3.1574,3.1636,3.1574,3.186,3.2318,3.277,3.3144,3.3242,3.3522,3.3476,3.3522,3.3821,3.3866,3.3866,3.3912,3.4073,3.4234,3.4349,3.4486,3.4647,3.4716,3.467,3.4808,3.4877,3.5014,3.5175,3.4923,3.5037,3.8689,3.8596,3.8288,3.753,3.6782,3.7067,3.6904,3.6277,3.6254,3.6254,3.6254,3.6254,3.6472,3.6688,3.658,3.7631,3.939,3.9104,3.9005,3.9243,3.9829,3.9601,3.8689,3.9514,3.9823,3.9452,3.9754,3.9734,3.9409,3.9173,3.8804,3.8485,3.8479,3.8282,3.7896,3.7648,3.7269,3.6724,3.6671,3.6488,3.6149,3.6096,3.5887,3.5521,3.5667,3.5667,3.5495,3.5495,3.5495,3.5495,3.5495,3.5495,3.5495,3.5469,3.5574,3.5809,3.5992,3.6279,3.6619,3.6671,3.6933,3.7508,3.7286,3.7154,3.7057,3.6828,3.6767,3.6835,3.6333,3.6162,3.6332,3.6478,3.6621,3.6326,3.506,3.4136,3.4185,3.3526,3.2992,3.3194,3.2992,3.2546,3.228,3.225,3.225,3.225,3.223,3.2209,3.223,3.223,3.2329,3.2522,3.2855,3.2987,3.3121,3.3844,3.428,3.4303,3.4418,3.444,3.444,3.4509,3.4647,3.4624,3.4831,3.4946,3.5014,3.5175,3.5221,3.529,3.5359,3.552,3.5749,3.5543,3.5657,3.9033,3.8573,3.8206,3.7747,3.7311,3.7265,3.6989,3.653,3.6507,3.6438,3.63,3.6254,3.6254,3.6254,3.6254,3.6904,3.795,3.8267,3.8582,3.8792,3.9183,3.9,3.8428,3.8888,3.8994,3.8639,3.8666,3.8794,3.8756,3.8445,3.8144,3.7741,3.7997,3.7826,3.751,3.7577,3.7505,3.7013,3.7092,3.709,3.6724,3.6698,3.6698,3.6698,3.6671,3.6488,3.6149,3.6096,3.6096,3.6096,3.6096,3.6096,3.6096,3.6305,3.6384,3.641,3.6593,3.6854,3.722,3.7182,3.7365,3.7756,3.7413,3.716,3.7245,3.6988,3.7076,3.7092,3.6626,3.6165,3.6326,3.6048,3.5794,3.5898,3.4728,3.3877,3.3866,3.3161,3.282,3.2778,3.2778,3.2706,3.2727,3.2706,3.2706,3.2727,3.2727,3.2727,3.2727,3.2706,3.2758,3.2896,3.3035,3.313,3.3399,3.4177,3.4328,3.4366,3.4946,3.4992,3.4992,3.5083,3.5129,3.5083,3.5129,3.5221,3.5359,3.5566,3.568,3.5749,3.5841,3.5979,3.6117,3.6185,3.6162,3.9033,3.8642,3.8573,3.8275,3.7839,3.7793,3.7494,3.7081,3.7012,3.6736,3.6392,3.63,3.6254,3.6254,3.6254,3.6386,3.658,3.7203,3.7844,3.8477,3.8582,3.8582,3.8477,3.8533,3.8275,3.7618,3.7106,3.6582,3.6488,3.6969,3.6944,3.6314,3.6922,3.7072,3.6383,3.7258,3.7292,3.71,3.7609,3.7926,3.79,3.7821,3.7769,3.7795,3.7769,3.7273,3.6253,3.6227,3.6279,3.6227,3.6227,3.6149,3.6332,3.6724,3.7011,3.709,3.7534,3.7821,3.7848,3.7638,3.7428,3.7516,3.7066,3.7133,3.7495,3.7379,3.7412,3.7543,3.7156,3.69,3.6554,3.5387,3.4406,3.3879,3.4031,3.3754,3.3048,3.2727,3.2727,3.2727,3.2727,3.2727,3.2727,3.2727,3.2727,3.2727,3.2727,3.2727,3.2727,3.2727,3.2727,3.2799,3.2943,3.3156,3.3802,3.4425,3.4294,3.4325,3.5062,3.5497,3.5451,3.5474,3.5634,3.5634,3.5726,3.5795,3.5795,3.5979,3.6025,3.6117,3.6254,3.6254,3.6254,3.6254,3.6254,3.9216,3.9078,3.9078,3.8803,3.8367,3.8344,3.8045,3.754,3.7196,3.6943,3.6759,3.6415,3.6254,3.6254,3.6254,3.6254,3.6254,3.658,3.6796,3.7096,3.7096,3.7096,3.712,3.712,3.7203,3.7394,3.7358,3.7211,3.7218,3.694,3.6771,3.6763,3.6892,3.6995,3.6848,3.7615,3.7906,3.7901,3.867,3.8893,3.8501,3.8449,3.8292,3.7926,3.79,3.7691,3.7377,3.7351,3.7351,3.7325,3.7351,3.7351,3.7377,3.7508,3.7612,3.7639,3.7795,3.7808,3.7624,3.7557,3.7619,3.7689,3.7508,3.7597,3.8054,3.7862,3.7593,3.7331,3.654,3.5779,3.5173,3.4159,3.3508,3.4161,3.362,3.3161,3.2841,3.2727,3.2727,3.2727,3.2727,3.2727,3.2727,3.2727,3.2727,3.2727,3.2727,3.2727,3.2727,3.2727,3.2727,3.2727,3.2955,3.3069,3.3388,3.384,3.4118,3.436,3.5125,3.5756,3.5818,3.5841,3.6002,3.6117,3.6208,3.6254,3.6254,3.6254,3.6254,3.6254,3.6254,3.6254,3.6254,3.6254,3.6254,3.9308,3.9308,3.9308,3.9147,3.8849,3.8849,3.855,3.8091,3.7747,3.7402,3.7012,3.6714,3.6438,3.63,3.6254,3.6254,3.6254,3.6254,3.6254,3.6254,3.6254,3.6254,3.6254,3.6254,3.6472,3.7012,3.6989,3.7145,3.7283,3.6838,3.6567,3.6805,3.6757,3.6661,3.6597,3.7262,3.7616,3.7618,3.8162,3.8523,3.8242,3.8453,3.8394,3.8084,3.834,3.8553,3.8527,3.8553,3.8344,3.8004,3.79,3.79,3.79,3.79,3.7912,3.8002,3.8028,3.8013,3.8007,3.7921,3.7877,3.8018,3.7901,3.7934,3.829,3.8116,3.7531,3.7324,3.5964,3.4888,3.4403,3.3388,3.3161,3.3706,3.3161,3.2727,3.2727,3.2727,3.2727,3.2727,3.2727,3.2727,3.2727,3.2727,3.2727,3.2727,3.2727,3.2727,3.2727,3.2727,3.2727,3.2727,3.2727,3.2841,3.2727,3.3182,3.3727,3.4314,3.5068,3.5704,3.6008,3.6094,3.6208,3.6185,3.6254,3.6254,3.6254,3.6254,3.6254,3.6254,3.6254,3.6254,3.6254,3.6254,3.6254,3.9354,3.9331,3.9308,3.9285,3.9262,3.9262,3.901,3.8665,3.8527,3.7999,3.7333,3.7127,3.6805,3.6415,3.6392,3.6369,3.6277,3.6254,3.6254,3.6254,3.6254,3.6254,3.6254,3.6254,3.6363,3.6363,3.6363,3.6363,3.6487,3.6402,3.6277,3.6356,3.631,3.611,3.6038,3.6391,3.6701,3.6573,3.7087,3.7442,3.7343,3.8015,3.8358,3.8307,3.9058,3.9468,3.9442,3.9416,3.9024,3.8187,3.8135,3.8161,3.8057,3.8004,3.8158,3.8385,3.8316,3.8453,3.8646,3.8426,3.8333,3.8434,3.8065,3.8191,3.8465,3.7746,3.7035,3.7145,3.5595,3.4447,3.4155,3.3388,3.2841,3.2727,3.2727,3.2727,3.2727,3.2727,3.2727,3.2727,3.2727,3.2727,3.2727,3.2727,3.2727,3.2727,3.2727,3.2727,3.2727,3.2727,3.2727,3.2727,3.2727,3.2727,3.2727,3.2841,3.3409,3.3952,3.4624,3.5046,3.5817,3.5927,3.6254,3.6254,3.6145,3.6254,3.6254,3.6254,3.6254,3.6254,3.6254,3.6254,3.6254,3.6254,3.6145,3.9859,3.9813,3.9446,3.9308,3.9308,3.9308,3.9239,3.9078,3.8734,3.8436,3.8114,3.7747,3.7311,3.6874,3.6828,3.6645,3.6369,3.63,3.6254,3.6254,3.6254,3.6254,3.6254,3.6254,3.6254,3.6254,3.6254,3.6254,3.6254,3.6254,3.6254,3.6254,3.6254,3.6208,3.6179,3.6885,3.7157,3.7226,3.7934,3.8025,3.7833,3.8492,3.8665,3.8409,3.9143,3.9555,3.9625,3.9625,3.952,3.9233,3.9155,3.9181,3.9102,3.8886,3.8774,3.8833,3.8691,3.8549,3.8507,3.8459,3.8538,3.8693,3.7885,3.7594,3.8105,3.7074,3.6179,3.5553,3.4692,3.4155,3.3388,3.2955,3.2727,3.2727,3.2727,3.2727,3.2727,3.2727,3.2727,3.2727,3.2727,3.2727,3.2727,3.2727,3.2727,3.2727,3.2727,3.2727,3.2727,3.2727,3.2727,3.2727,3.2727,3.2727,3.2727,3.2841,3.3069,3.3523,3.3952,3.4155,3.4936,3.5378,3.5817,3.6168,3.5927,3.5927,3.6145,3.6254,3.6254,3.5927,3.5927,3.5708,3.6036,3.6254,3.6036,4.0364,4.0341,3.9836,3.9607,3.9584,3.94,3.9308,3.9262,3.901,3.8757,3.855,3.8275,3.7839,3.7379,3.7333,3.7058,3.6622,3.6599,3.6484,3.6254,3.6254,3.6254,3.6254,3.6254,3.6254,3.6254,3.6254,3.6254,3.6254,3.6254,3.6254,3.6254,3.6254,3.6254,3.6231,3.6688,3.6989,3.7096,3.7524,3.757,3.7307,3.8014,3.828,3.8187,3.8768,3.9293,3.9293,3.9492,3.9509,3.944,3.9381,3.9407,3.9214,3.9117,3.9123,3.9205,3.906,3.8965,3.8868,3.8491,3.854,3.8711,3.7806,3.7297,3.7429,3.6534,3.5113,3.4692,3.4155,3.3388,3.2955,3.2727,3.2727,3.2727,3.2727,3.2727,3.2727,3.2727,3.2727,3.2727,3.2727,3.2727,3.2727,3.2727,3.2727,3.2727,3.2727,3.2727,3.2727,3.2727,3.2727,3.2727,3.2727,3.2612,3.2612,3.2727,3.2727,3.3182,3.3161,3.348,3.4267,3.4803,3.5157,3.5488,3.5488,3.5488,3.5245,3.5113,3.4891,3.467,3.4914,3.5135,3.5245,3.5356,3.5356,4.0892,4.0846,4.0341,4.0089,3.9974,3.9584,3.9377,3.9308,3.9262,3.9055,3.8757,3.8665,3.8367,3.7885,3.7862,3.7586,3.7104,3.7104,3.6782,3.6507,3.6323,3.6254,3.6254,3.6254,3.6254,3.6254,3.6254,3.6254,3.6254,3.6254,3.6254,3.6254,3.6254,3.6254,3.6254,3.6363,3.6254,3.6363,3.6472,3.6557,3.6595,3.7216,3.7676,3.7757,3.8466,3.8699,3.8852,3.9034,3.9246,3.8907,3.9174,3.9303,3.9082,3.8932,3.884,3.8894,3.8716,3.8686,3.898,3.8097,3.8065,3.8428,3.7002,3.6426,3.6642,3.5443,3.4246,3.4155,3.3275,3.2841,3.2727,3.2727,3.2727,3.2727,3.2727,3.2727,3.2727,3.2727,3.2727,3.2727,3.2727,3.2727,3.2727,3.2727,3.2727,3.2727,3.2727,3.2727,3.2727,3.2727,3.2727,3.2727,3.2612,3.2612,3.2612,3.2612,3.2612,3.2841,3.2477,3.2685,3.3685,3.4246,3.4357,3.4469,3.4336,3.3866,3.3417,3.3304,3.3417,3.3642,3.3866,3.3888,3.3888,3.3754,3.3754,4.1397,4.1352,4.0869,4.0433,4.0089,3.9928,3.9675,3.9331,3.9331,3.9262,3.9147,3.9147,3.8849,3.8413,3.839,3.8114,3.7655,3.7586,3.7356,3.6874,3.6415,3.63,3.63,3.6323,3.6277,3.6277,3.6254,3.6254,3.6254,3.6254,3.6254,3.6254,3.6254,3.6254,3.6254,3.6254,3.6254,3.6254,3.6254,3.6254,3.6363,3.6989,3.7418,3.7418,3.8161,3.8348,3.8113,3.8218,3.7887,3.7823,3.8913,3.9677,3.9474,3.8863,3.8398,3.816,3.7498,3.6932,3.6942,3.6858,3.6619,3.6965,3.5881,3.5024,3.5024,3.4043,3.3161,3.3048,3.2841,3.2727,3.2727,3.2727,3.2727,3.2727,3.2727,3.2747,3.2727,3.2727,3.2727,3.2727,3.2727,3.2727,3.2727,3.2727,3.2727,3.2727,3.2727,3.2727,3.2727,3.2727,3.2612,3.2498,3.2363,3.2248,3.1767,3.1767,3.1903,3.2018,3.1767,3.1401,3.2416,3.2985,3.2871,3.2871,3.2964,3.2374,3.1802,3.2031,3.2281,3.2509,3.2737,3.2623,3.2395,3.226,3.226,4.1926,4.188,4.1374,4.1007,4.0755,4.0502,4.0135,3.9721,3.9652,3.9515,3.9331,3.9308,3.903,3.8471,3.8426,3.8154,3.7815,3.7771,3.7655,3.7379,3.7104,3.7012,3.6897,3.6714,3.653,3.6323,3.6254,3.6254,3.6254,3.6254,3.6254,3.6254,3.6254,3.6254,3.6254,3.6254,3.6254,3.6254,3.6254,3.6254,3.6363,3.6688,3.6773,3.6557,3.6989,3.6965,3.6294,3.6511,3.6402,3.6511,3.7583,3.8453,3.8453,3.7796,3.737,3.7156,3.6727,3.6185,3.6185,3.5772,3.5663,3.6077,3.467,3.4246,3.4043,3.3388,3.2727,3.2727,3.2727,3.2727,3.2727,3.2727,3.2727,3.2727,3.2747,3.2809,3.2954,3.2851,3.2727,3.2727,3.2727,3.2727,3.2727,3.2727,3.2727,3.2727,3.2727,3.2727,3.2727,3.2612,3.2248,3.2133,3.1998,3.1652,3.0937,3.082,3.0956,3.0956,3.0704,3.0236,3.0334,3.0684,3.0937,3.1033,3.1245,3.0665,3.0198,3.0665,3.0897,3.0897,3.0897,3.1014,3.0781,3.0432,3.0665,4.2212,4.2166,4.1731,4.1525,4.1263,4.0728,4.0273,3.984,3.9916,3.9424,3.9135,3.9163,3.8687,3.8216,3.8194,3.7948,3.7686,3.7469,3.7473,3.7428,3.7247,3.7269,3.7201,3.704,3.6878,3.6507,3.6323,3.6277,3.6254,3.6254,3.6145,3.6145,3.6145,3.5927,3.5927,3.6036,3.5927,3.5817,3.5817,3.5817,3.5817,3.5927,3.5708,3.5466,3.5466,3.5245,3.4803,3.4914,3.5024,3.4914,3.5443,3.5663,3.5749,3.5859,3.5968,3.5968,3.564,3.5333,3.5113,3.4692,3.458,3.5553,3.4043,3.3275,3.3593,3.3275,3.2841,3.2768,3.2809,3.2892,3.283,3.3016,3.3016,3.2996,3.2975,3.312,3.3306,3.3141,3.3037,3.2851,3.2789,3.2727,3.2727,3.2727,3.2727,3.2747,3.2633,3.2633,3.2539,3.2404,3.1923,3.1421,3.1189,3.1053,3.047,2.9766,3.0001,3.0119,2.9884,2.9412,2.882,2.8938,2.9294,2.9394,2.9394,2.9057,2.882,2.9057,2.9176,2.9176,2.9275,2.9394,2.9157,2.8582,2.9157,4.1956,4.1421,4.1354,4.0807,3.9941,3.9809,3.95,3.8979,3.9059,3.8671,3.8376,3.8331,3.8089,3.7604,3.7495,3.7429,3.733,3.7096,3.7015,3.6949,3.6706,3.6645,3.7106,3.6971,3.7019,3.7198,3.6718,3.6283,3.6369,3.6254,3.6109,3.5666,3.5688,3.5468,3.5113,3.4825,3.498,3.5046,3.5046,3.5024,3.5024,3.4914,3.4936,3.4692,3.4602,3.4379,3.3952,3.384,3.3614,3.3161,3.3275,3.3388,3.3727,3.4379,3.4714,3.458,3.4022,3.3706,3.3593,3.3296,3.3069,3.3161,3.3038,3.2809,3.3017,3.2903,3.2892,3.2934,3.312,3.3265,3.3285,3.3513,3.3782,3.3803,3.3762,3.3803,3.3886,3.3803,3.3637,3.341,3.3078,3.283,3.2954,3.2901,3.2806,3.2731,3.2595,3.2206,3.1816,3.1503,3.1191,3.0665,3.0119,3.0119,3.0001,2.9294,2.8938,2.9294,2.9176,2.8838,2.8241,2.7659,2.7779,2.8241,2.8361,2.8241,2.8002,2.79,2.802,2.8361,2.8241,2.8002,2.8002,2.8002,2.8122,4.1035,4.0777,4.0777,4.0386,3.9908,3.9886,3.9624,3.9209,3.9165,3.8903,3.851,3.8226,3.774,3.7357,3.6975,3.6889,3.6824,3.7057,3.7025,3.6959,3.6806,3.6794,3.6942,3.6788,3.6911,3.6943,3.6407,3.6252,3.6499,3.6162,3.5982,3.5823,3.5688,3.5329,3.5019,3.4997,3.4709,3.4578,3.4491,3.4491,3.4491,3.4491,3.4379,3.4043,3.3931,3.3727,3.3296,3.3182,3.3069,3.2841,3.2727,3.2727,3.2903,3.3371,3.3848,3.3565,3.309,3.2747,3.2789,3.2892,3.3078,3.3099,3.3244,3.341,3.343,3.3451,3.3368,3.3451,3.3534,3.3741,3.3741,3.3969,3.4031,3.4072,3.4093,3.4217,3.43,3.4196,3.4113,3.401,3.3782,3.3596,3.3513,3.3396,3.31,3.2942,3.2666,3.1919,3.1149,3.0853,3.0677,2.9849,2.9333,2.9002,2.9021,2.8661,2.8318,2.8523,2.8625,2.8264,2.7885,2.7574,2.7263,2.7418,2.7539,2.7799,2.7556,2.7435,2.7556,2.7539,2.7539,2.7539,2.7539,2.7556,2.7677,4.0214,3.9975,3.9997,3.9997,3.9866,3.9735,3.9519,3.9325,3.9153,3.8894,3.8441,3.8097,3.7567,3.6894,3.6431,3.6178,3.63,3.6746,3.6846,3.6824,3.6803,3.6967,3.7002,3.6806,3.6687,3.6859,3.636,3.6224,3.6423,3.6148,3.5889,3.5591,3.5656,3.5432,3.497,3.4769,3.4718,3.4566,3.4437,3.4415,3.4307,3.4285,3.4017,3.3523,3.3409,3.3182,3.2841,3.2986,3.3007,3.2954,3.2996,3.3037,3.3058,3.3327,3.3348,3.3058,3.2996,3.2996,3.3099,3.3285,3.3513,3.3534,3.3844,3.3989,3.4031,3.3927,3.3989,3.4072,3.4176,3.4196,3.4217,3.43,3.4383,3.4403,3.4445,3.4465,3.4693,3.4734,3.4693,3.4569,3.4445,3.4238,3.3891,3.3252,3.2912,3.2535,3.2276,3.1334,3.0691,3.0504,3.0082,2.9062,2.8465,2.7974,2.7957,2.8114,2.7904,2.8062,2.8167,2.8044,2.7729,2.7555,2.7381,2.7521,2.7555,2.7764,2.7313,2.709,2.7194,2.7315,2.7194,2.7194,2.7315,2.7349,2.7367,4.0255,3.9341,3.9363,3.8967,3.857,3.857,3.8416,3.8353,3.8444,3.8103,3.7796,3.7541,3.7082,3.6477,3.5832,3.5603,3.5583,3.5727,3.5953,3.5932,3.5911,3.6156,3.6401,3.6524,3.6617,3.6695,3.6431,3.6221,3.6047,3.5969,3.5648,3.5339,3.5146,3.4858,3.4484,3.4581,3.4205,3.4122,3.4198,3.401,3.3696,3.3633,3.3351,3.3122,3.2924,3.2965,3.2934,3.3161,3.3306,3.3348,3.3679,3.3865,3.3927,3.3948,3.3969,3.3927,3.3906,3.3906,3.3844,3.3927,3.3989,3.3989,3.4134,3.4093,3.4217,3.4217,3.4217,3.4093,3.4424,3.4652,3.4734,3.5004,3.519,3.5169,3.5066,3.5005,3.5129,3.4575,3.4698,3.4472,3.4063,3.4105,3.394,3.3196,3.2593,3.2231,3.1764,3.0945,3.0222,3.0047,2.9779,2.887,2.8303,2.7916,2.7741,2.7792,2.7826,2.7895,2.7895,2.7895,2.7826,2.7775,2.7929,2.7946,2.7946,2.7775,2.7501,2.7295,2.7158,2.7176,2.7295,2.721,2.7073,2.7141,2.7435,3.9888,3.8925,3.8674,3.8437,3.8191,3.8191,3.8191,3.8191,3.8191,3.8067,3.786,3.7591,3.7115,3.6535,3.6266,3.6059,3.5873,3.5811,3.5645,3.55,3.5459,3.5562,3.5788,3.5788,3.6034,3.6199,3.6034,3.5764,3.5607,3.5664,3.5423,3.5281,3.5139,3.5056,3.4486,3.4445,3.4279,3.4253,3.4031,3.3969,3.3824,3.3762,3.3679,3.3492,3.3472,3.3451,3.3513,3.3617,3.3762,3.3803,3.401,3.4051,3.4155,3.4279,3.4465,3.4465,3.4714,3.4569,3.4176,3.4341,3.4424,3.4548,3.4652,3.4859,3.4817,3.4797,3.4797,3.4859,3.5004,3.5107,3.5107,3.5314,3.5376,3.5438,3.5273,3.5024,3.4879,3.4548,3.4218,3.4007,3.3757,3.3669,3.3554,3.3124,3.2467,3.197,3.1383,3.0556,2.9885,2.945,2.9142,2.8783,2.8449,2.81,2.8066,2.8066,2.8083,2.8117,2.8117,2.8117,2.8117,2.8152,2.8306,2.8271,2.8134,2.7929,2.7706,2.7655,2.7638,2.7604,2.7569,2.7535,2.7535,2.7706,2.7985,3.9827,3.9144,3.8585,3.8357,3.8336,3.8233,3.8191,3.8191,3.8191,3.8191,3.8067,3.7715,3.7301,3.6991,3.6804,3.6535,3.6308,3.6287,3.608,3.5852,3.5749,3.5749,3.5687,3.5625,3.5625,3.5583,3.579,3.5728,3.5604,3.5542,3.5603,3.5438,3.5396,3.519,3.5004,3.49,3.4776,3.4548,3.4507,3.4403,3.4279,3.4238,3.4155,3.4072,3.4072,3.4072,3.4072,3.4217,3.4238,3.4258,3.4424,3.4527,3.4569,3.4776,3.4921,3.4962,3.5169,3.5066,3.4755,3.4755,3.49,3.5024,3.5148,3.5293,3.5335,3.5418,3.5418,3.5314,3.5335,3.5376,3.5314,3.5252,3.5396,3.5207,3.5143,3.4725,3.4239,3.4044,3.373,3.3544,3.327,3.288,3.2815,3.2835,3.2454,3.1963,3.1102,3.0213,2.97,2.9137,2.8956,2.8871,2.8785,2.8597,2.858,2.8511,2.8477,2.8408,2.8408,2.846,2.8545,2.858,2.8665,2.8563,2.8426,2.8357,2.8289,2.8203,2.8117,2.798,2.7895,2.8032,2.8117,2.8254,2.834,4.0199,4.0054,3.9185,3.8792,3.875,3.8357,3.8191,3.8191,3.8191,3.8191,3.8129,3.7736,3.7529,3.7384,3.7115,3.6908,3.6763,3.6742,3.666,3.6639,3.668,3.637,3.6183,3.6059,3.6059,3.6059,3.6059,3.6059,3.6059,3.6059,3.5811,3.55,3.55,3.5418,3.5335,3.5252,3.5252,3.5107,3.5128,3.4983,3.4797,3.4672,3.4527,3.4238,3.4113,3.4072,3.4113,3.4507,3.4714,3.4714,3.4962,3.5128,3.5107,3.5211,3.5273,3.5397,3.5438,3.5438,3.5397,3.5273,3.5314,3.5376,3.548,3.5583,3.5542,3.548,3.5459,3.5583,3.5707,3.5479,3.5292,3.4997,3.524,3.4939,3.4655,3.4219,3.3758,3.3574,3.3236,3.3028,3.2655,3.219,3.1874,3.1874,3.1966,3.1414,3.0602,2.9691,2.9561,2.9196,2.9213,2.9196,2.9213,2.9162,2.9179,2.9093,2.8922,2.8888,2.8905,2.8991,2.9111,2.9111,2.8974,2.9008,2.8905,2.8888,2.8819,2.8648,2.8477,2.8271,2.8237,2.8443,2.8545,2.8614,2.8682,4.0634,4.0572,3.9951,3.9371,3.8833,3.8667,3.844,3.8212,3.8191,3.8191,3.8171,3.8005,3.7922,3.7839,3.7757,3.7488,3.726,3.7218,3.7074,3.6867,3.6763,3.668,3.6535,3.6535,3.6535,3.6535,3.6535,3.6535,3.6535,3.6535,3.6473,3.6204,3.5749,3.5459,3.5418,3.5521,3.548,3.5459,3.5438,3.5314,3.5252,3.5169,3.5066,3.4941,3.49,3.49,3.4941,3.5066,3.5148,3.5211,3.5355,3.5438,3.55,3.548,3.5625,3.5811,3.5832,3.5956,3.6039,3.579,3.5438,3.5562,3.5873,3.6142,3.5914,3.6059,3.6225,3.6287,3.6098,3.5763,3.5268,3.4983,3.4972,3.4473,3.4046,3.3539,3.3329,3.3003,3.2491,3.212,3.1532,3.1096,3.0909,3.0856,3.0882,3.071,2.9874,2.9333,2.9402,2.9419,2.9453,2.9419,2.9419,2.9333,2.9316,2.9316,2.9316,2.9299,2.9299,2.9299,2.9299,2.9299,2.9196,2.9299,2.9299,2.9162,2.9042,2.8974,2.8819,2.8631,2.8717,2.8939,2.8991,2.8974,2.8991,4.0882,4.0841,4.0551,3.9972,3.9268,3.8978,3.8667,3.8398,3.8233,3.8191,3.8191,3.8191,3.8191,3.8191,3.815,3.8026,3.7757,3.7674,3.7508,3.7384,3.7301,3.7136,3.7053,3.7011,3.7011,3.7011,3.7011,3.7011,3.7011,3.7011,3.6867,3.6577,3.6204,3.5956,3.5894,3.5832,3.5832,3.5832,3.5687,3.5645,3.5625,3.5459,3.5397,3.5355,3.5335,3.5335,3.5314,3.5335,3.5355,3.5438,3.5542,3.5625,3.5687,3.5769,3.5997,3.6204,3.637,3.6494,3.6515,3.6308,3.5852,3.6039,3.6349,3.6515,3.6515,3.6362,3.5977,3.6058,3.5949,3.5491,3.4726,3.4351,3.4316,3.3975,3.3127,3.2593,3.2711,3.2456,3.1749,3.1045,3.0874,3.0822,3.0632,3.0545,3.0693,3.068,3.0264,2.9847,2.9847,2.9813,2.9727,2.9658,2.9573,2.9453,2.9333,2.935,2.9367,2.9299,2.9299,2.9299,2.9299,2.9316,2.9316,2.9299,2.9299,2.9299,2.9248,2.9145,2.9059,2.8974,2.9093,2.9179,2.9196,2.9145,2.9196,4.0882,4.0882,4.0841,4.0572,4.0054,3.9226,3.8874,3.8771,3.8419,3.8212,3.8191,3.8191,3.8191,3.8191,3.8191,3.8129,3.8109,3.8088,3.8046,3.7964,3.786,3.7777,3.7612,3.7467,3.7488,3.7488,3.7488,3.7488,3.7488,3.7488,3.7281,3.7074,3.6867,3.6701,3.6742,3.6742,3.6742,3.668,3.6266,3.6142,3.6018,3.579,3.5666,3.5645,3.5666,3.5707,3.5707,3.5707,3.5728,3.5728,3.5976,3.608,3.6101,3.6411,3.6639,3.6763,3.6784,3.6825,3.6825,3.6784,3.6722,3.666,3.6867,3.68,3.6568,3.6071,3.552,3.5547,3.4751,3.4013,3.3423,3.3169,3.3471,3.3211,3.2347,3.2001,3.2105,3.2105,3.1392,3.1167,3.0977,3.0891,3.0635,3.048,3.0515,3.0582,3.0412,3.0361,3.0275,3.0172,3.0035,2.9967,2.9864,2.9795,2.9676,2.9487,2.9419,2.935,2.9367,2.9436,2.9402,2.935,2.935,2.9333,2.9299,2.9299,2.9299,2.9282,2.9213,2.9145,2.9213,2.9282,2.9299,2.9316,2.9316,4.0882,4.0882,4.0882,4.08,4.0572,4.0034,3.9599,3.9268,3.8833,3.846,3.8212,3.8191,3.8191,3.8191,3.8191,3.8191,3.8191,3.8191,3.8191,3.8191,3.8191,3.8109,3.7964,3.7749,3.779,3.7943,3.7964,3.779,3.7964,3.7902,3.7881,3.7736,3.755,3.7363,3.697,3.6804,3.6804,3.6784,3.6639,3.6556,3.6556,3.639,3.6287,3.6266,3.6266,3.6246,3.6246,3.6225,3.6225,3.6246,3.6494,3.6556,3.6577,3.6846,3.6991,3.7177,3.7281,3.7425,3.7591,3.7674,3.7384,3.7239,3.7192,3.7053,3.6254,3.623,3.5756,3.5085,3.4334,3.3811,3.3431,3.3175,3.3146,3.2332,3.1772,3.1772,3.1755,3.1772,3.1422,3.1388,3.1354,3.1319,3.1131,3.096,3.0926,3.084,3.0789,3.06,3.048,3.0395,3.0292,3.0292,3.0224,3.0172,3.0069,2.9881,2.9847,2.9898,2.9795,2.9744,2.9641,2.9556,2.9453,2.9487,2.9384,2.9316,2.9436,2.9504,2.935,2.9299,2.9436,2.9436,2.9402,2.9367,2.9316,4.0882,4.0882,4.0433,4.0289,4.0228,4.0265,3.9972,3.9537,3.9206,3.8833,3.8502,3.8419,3.8316,3.8233,3.8191,3.8191,3.8191,3.8191,3.8191,3.8191,3.775,3.7595,3.7461,3.7233,3.6749,3.7213,3.7502,3.7616,3.7461,3.8037,3.8129,3.8109,3.8171,3.7839,3.7467,3.7363,3.7363,3.7322,3.7218,3.7032,3.6991,3.6887,3.6763,3.6742,3.6742,3.6763,3.6784,3.6804,3.6825,3.6867,3.6949,3.7032,3.7053,3.7218,3.7405,3.7653,3.7757,3.7749,3.7493,3.7421,3.6942,3.613,3.7104,3.7031,3.6028,3.5472,3.4888,3.4396,3.4057,3.3502,3.2945,3.2684,3.2456,3.1769,3.1628,3.1628,3.1628,3.1628,3.1628,3.1611,3.1593,3.1593,3.1559,3.1525,3.1405,3.1285,3.1148,3.0943,3.0754,3.0737,3.0669,3.0635,3.0583,3.0515,3.0429,3.0292,3.0309,3.0412,3.0275,3.0104,3.0052,2.9967,2.9795,2.9693,2.9778,2.9813,2.9761,2.9727,2.9744,2.9744,2.9813,2.9744,2.9556,2.9556,2.959,4.0882,4.0719,3.9694,3.9241,3.9181,3.9739,3.9733,3.944,3.9558,3.9309,3.8874,3.8874,3.8709,3.8357,3.8295,3.8202,3.8109,3.8089,3.7954,3.7665,3.7069,3.6697,3.625,3.5859,3.5703,3.5626,3.5879,3.6638,3.6559,3.7348,3.7904,3.8191,3.8191,3.7914,3.7852,3.7678,3.7678,3.7687,3.7674,3.7529,3.7467,3.7198,3.7115,3.7094,3.7094,3.7094,3.7094,3.7074,3.7032,3.7115,3.7301,3.7446,3.7653,3.7943,3.8088,3.8017,3.7863,3.7173,3.6654,3.6539,3.6191,3.5607,3.5899,3.6171,3.5821,3.4609,3.3992,3.3332,3.2808,3.2351,3.1786,3.1979,3.2049,3.1765,3.1748,3.1748,3.173,3.1713,3.1713,3.1696,3.1696,3.1662,3.1576,3.1559,3.1559,3.1491,3.1371,3.1354,3.1217,3.1268,3.1183,3.1028,3.096,3.0857,3.0772,3.072,3.0754,3.0857,3.0635,3.0446,3.0429,3.0361,3.0172,3.0121,3.0292,3.0309,3.0138,3.0155,3.0275,3.0292,3.0224,3.0138,2.9984,3.0087,3.0155,4.0882,4.0862,4.0576,3.9838,3.9096,3.8418,3.8393,3.8728,3.9573,3.9785,3.9351,3.9351,3.9089,3.9144,3.9144,3.8555,3.8122,3.7728,3.7173,3.6697,3.6321,3.5946,3.5769,3.5508,3.5218,3.5168,3.5387,3.562,3.5664,3.6559,3.7677,3.8037,3.8182,3.7718,3.7274,3.6944,3.7543,3.777,3.778,3.7678,3.7657,3.7472,3.739,3.739,3.7522,3.7522,3.7522,3.7674,3.7695,3.7798,3.7881,3.7984,3.8026,3.7421,3.6789,3.5976,3.5821,3.5568,3.547,3.5582,3.5458,3.4957,3.5107,3.4482,3.4195,3.3721,3.3109,3.2578,3.2433,3.2216,3.2056,3.2073,3.2141,3.2159,3.2159,3.2141,3.2141,3.2124,3.2124,3.2278,3.2244,3.1902,3.1799,3.1559,3.1559,3.1559,3.1559,3.1559,3.1559,3.1559,3.1525,3.1354,3.1285,3.1165,3.1251,3.1251,3.1268,3.1251,3.1011,3.0823,3.0789,3.0703,3.0515,3.0515,3.0635,3.0566,3.0395,3.0498,3.0669,3.0617,3.0549,3.048,3.0463,3.0566,3.06,4.0433,4.0882,4.0433,3.9261,3.7805,3.6922,3.6901,3.7586,3.9026,3.9657,3.9708,3.9827,3.9425,3.8783,3.8624,3.8187,3.7047,3.7008,3.6605,3.6303,3.5582,3.5216,3.5055,3.4825,3.4233,3.4317,3.4544,3.4938,3.5078,3.6189,3.7485,3.7231,3.7602,3.7288,3.6661,3.6424,3.6661,3.6955,3.7049,3.7004,3.6964,3.6984,3.6944,3.7119,3.7274,3.7543,3.7677,3.7811,3.7945,3.7636,3.7502,3.7213,3.7059,3.6112,3.5859,3.5211,3.5287,3.5142,3.4874,3.49,3.4729,3.4375,3.3983,3.3535,3.3429,3.3089,3.2768,3.2481,3.2578,3.2604,3.2552,3.2535,3.2587,3.2638,3.2638,3.2655,3.2638,3.2621,3.2775,3.2981,3.2775,3.2364,3.2056,3.1782,3.1559,3.1559,3.1559,3.1559,3.1559,3.1559,3.1559,3.1474,3.1491,3.1474,3.1559,3.1559,3.1491,3.1439,3.1371,3.1217,3.1165,3.1114,3.1011,3.096,3.0943,3.0874,3.084,3.0909,3.1011,3.096,3.096,3.0977,3.0994,3.1028,3.1028,3.9694,4.0576,3.9405,3.7658,3.5754,3.5605,3.5587,3.5903,3.7913,3.9186,3.9738,3.998,3.9212,3.8164,3.7964,3.7236,3.6542,3.613,3.6005,3.58,3.4794,3.4305,3.3925,3.3325,3.3471,3.329,3.3546,3.4342,3.4917,3.5802,3.631,3.6096,3.7008,3.677,3.5887,3.5765,3.5727,3.5369,3.5312,3.5029,3.5387,3.5173,3.4978,3.531,3.6016,3.6561,3.6813,3.7064,3.7604,3.6773,3.6386,3.6016,3.5349,3.5092,3.5022,3.4855,3.4685,3.4408,3.4162,3.4216,3.3854,3.3308,3.2758,3.2973,3.3137,3.3145,3.2784,3.2715,3.2758,3.2895,3.2895,3.2981,3.3066,3.3083,3.3083,3.3083,3.3083,3.3135,3.3306,3.346,3.3357,3.2946,3.2604,3.2364,3.2141,3.1867,3.1679,3.1679,3.1679,3.1679,3.1628,3.1628,3.1559,3.1559,3.1559,3.1559,3.1559,3.1542,3.1525,3.1508,3.1388,3.1439,3.1542,3.1388,3.1234,3.1371,3.1405,3.1354,3.1302,3.1354,3.1371,3.1491,3.1508,3.1439,3.1371,3.8535,3.9261,3.7364,3.6052,3.5456,3.4574,3.4724,3.5605,3.6182,3.7161,3.8108,3.8813,3.8609,3.7566,3.7383,3.6657,3.5815,3.543,3.515,3.467,3.4057,3.3848,3.3665,3.3455,3.3186,3.2929,3.3318,3.3863,3.4432,3.5045,3.5706,3.5991,3.6475,3.5961,3.4938,3.4794,3.4505,3.4106,3.391,3.4412,3.5246,3.567,3.5811,3.5633,3.6036,3.5998,3.6138,3.6316,3.6355,3.6112,3.6093,3.5529,3.4536,3.4518,3.4001,3.3533,3.355,3.3511,3.3524,3.3569,3.3396,3.3517,3.3323,3.3477,3.3494,3.3272,3.3117,3.3032,3.3032,3.3152,3.3272,3.3391,3.3494,3.3494,3.3494,3.3494,3.3511,3.3683,3.3837,3.3854,3.3837,3.3528,3.3186,3.2912,3.2724,3.245,3.2141,3.2022,3.1987,3.1953,3.1833,3.1765,3.1593,3.1559,3.1559,3.1559,3.1559,3.1559,3.1542,3.1559,3.1576,3.1559,3.1559,3.1559,3.1525,3.1559,3.1559,3.1542,3.1525,3.1559,3.1559,3.1559,3.1593,3.1542,3.1542,3.7217,3.8097,3.6331,3.5605,3.5456,3.4273,3.4139,3.4875,3.5306,3.5605,3.6052,3.7364,3.7658,3.6775,3.6627,3.6052,3.5025,3.4857,3.4504,3.3954,3.382,3.37,3.37,3.3717,3.358,3.334,3.3391,3.3839,3.4168,3.4809,3.5413,3.534,3.534,3.5176,3.4168,3.4056,3.3891,3.3369,3.3169,3.3874,3.5103,3.4794,3.4577,3.4541,3.4685,3.4847,3.524,3.5383,3.5383,3.5097,3.4774,3.4342,3.3621,3.3603,3.3471,3.3172,3.3111,3.3015,3.3186,3.334,3.3494,3.3597,3.3648,3.3734,3.3734,3.3546,3.3511,3.3443,3.3477,3.358,3.358,3.3665,3.37,3.37,3.3734,3.3751,3.3888,3.4076,3.4282,3.4436,3.4231,3.3768,3.3374,3.2946,3.2844,3.2981,3.2672,3.2775,3.2672,3.2433,3.2244,3.2073,3.1987,3.1696,3.1559,3.1559,3.1559,3.1559,3.1628,3.1611,3.1645,3.1593,3.1559,3.173,3.1748,3.1559,3.1559,3.1662,3.1593,3.1559,3.1559,3.1559,3.1628,3.1748,3.1816,3.6107,3.6793,3.5754,3.5306,3.5174,3.429,3.3837,3.3988,3.4875,3.4724,3.429,3.6052,3.6201,3.5754,3.5306,3.4574,3.4139,3.4139,3.3837,3.3837,3.3837,3.3785,3.3802,3.382,3.3734,3.3734,3.3768,3.3768,3.3833,3.4434,3.4566,3.4122,3.4423,3.4857,3.4139,3.382,3.3734,3.3683,3.3683,3.3751,3.3528,3.322,3.3162,3.3025,3.2956,3.3378,3.3815,3.4106,3.4106,3.4159,3.3681,3.3405,3.3275,3.331,3.3266,3.3272,3.334,3.3477,3.3665,3.3717,3.3785,3.382,3.3837,3.3837,3.3837,3.382,3.3802,3.3802,3.382,3.3837,3.382,3.382,3.3837,3.3854,3.3888,3.3922,3.4128,3.4333,3.4556,3.4779,3.447,3.3991,3.3631,3.3186,3.3186,3.3323,3.3426,3.3614,3.3631,3.3272,3.2998,3.2809,3.2655,3.2296,3.1748,3.1679,3.1713,3.1867,3.1936,3.1816,3.185,3.221,3.233,3.2141,3.209,3.2039,3.1902,3.1953,3.1816,3.1713,3.1885,3.1987,3.1987,3.2107,3.2176,3.455,3.4423,3.429,3.4139,3.4139,3.3837,3.3837,3.3837,3.3988,3.3988,3.3988,3.3988,3.429,3.4139,3.4139,3.3837,3.3988,3.3837,3.3837,3.3837,3.3837,3.3837,3.3837,3.3837,3.3837,3.3837,3.3837,3.3837,3.3837,3.4139,3.4139,3.3837,3.3837,3.4139,3.3988,3.3837,3.3837,3.3837,3.3685,3.3685,3.3685,3.3498,3.3213,3.2995,3.2692,3.239,3.2238,3.2086,3.239,3.2844,3.3245,3.3361,3.3494,3.346,3.3546,3.3563,3.3648,3.37,3.382,3.3837,3.3837,3.3837,3.3837,3.3837,3.3837,3.3837,3.382,3.382,3.3837,3.3837,3.3837,3.3837,3.3837,3.3837,3.3871,3.3871,3.3974,3.4179,3.4385,3.4556,3.4556,3.4282,3.4094,3.3854,3.3871,3.3922,3.3785,3.3957,3.4179,3.3957,3.3683,3.346,3.3237,3.257,3.1885,3.1936,3.2004,3.2159,3.2185,3.1946,3.2216,3.3254,3.3289,3.2368,3.2628,3.2826,3.2655,3.2364,3.2227,3.2176,3.2398,3.2518,3.2467,3.2484,3.2552]},{"header":{"parameterUnit":"m.s-1","parameterCategory":1,"la1":31.0,"la2":29.5877,"lo1":-88.7671,"lo2":-86.6584,"dy":0.0162,"dx":0.0185,"nx":115,"ny":88,"refTime":"2024-08-05T12:00:00:Z","depth":0,"parameterNumber":3,"parameterNumberName":"V-component_of_WINDS"},"data":[0.0,0.0,0.0,0.0,0.0,0.0,0.0,0.0,0.0,0.0,0.0,0.0,0.0,0.0,0.0,0.0,0.0,0.0,0.0,0.0,0.0,0.0,0.0,0.0,0.0,0.0,0.0,0.0,0.0,0.0,0.0,0.0,0.0,0.0,0.0,0.0,0.0,0.0,0.0,0.0,0.0,0.0,0.0,0.0,0.0,0.0,0.0,0.0,0.0,0.0,0.0,0.0,0.0,0.0,0.0,0.0,0.0,0.0,0.0,0.0,0.0,0.0,0.0,0.0,0.0,0.0,0.0,0.0,0.0,0.0,0.0,0.0,0.0,0.0,0.0,0.0,0.0,0.0,0.0,0.0,0.0,0.0,0.0,0.0,0.0,0.0,0.0,0.0,0.0,0.0,0.0,0.0,0.0,0.0,0.0,0.0,0.0,0.0,0.0,0.0,0.0,0.0,0.0,0.0,0.0,0.0,0.0,0.0,0.0,0.0,0.0,0.0,0.0,0.0,0.0,0.0,0.0,0.0,0.0,0.0,0.0,0.0,0.0,0.0,0.0,0.0,0.0,0.0,0.0,0.0,0.0,0.0,0.0,0.0,0.0,0.0,0.0,0.0,0.0,0.0,0.0,0.0,0.0,0.0,0.0,0.0,0.0,0.0,0.0,0.0,0.0,0.0,0.0,0.0,0.0,0.0,0.0,0.0,0.0,0.0,0.0,0.0,0.0,0.0,0.0,0.0,0.0,0.0,0.0,0.0,0.0,0.0,0.0,0.0,0.0,0.0,0.0,0.0,0.0,0.0,0.0,0.0,0.0,0.0,0.0,0.0,0.0,0.0,0.0,0.0,0.0,0.0,0.0,0.0,0.0,0.0,0.0,0.0,0.0,0.0,0.0,0.0,0.0,0.0,0.0,0.0,0.0,0.0,0.0,0.0,0.0,0.0,0.0,0.0,0.0,0.0,0.0,0.0,0.0,0.0,0.0,0.0,0.0,0.0,0.0,0.0,0.0,0.0,0.0,0.0,0.0,0.0,0.0,0.0,0.0,0.0,0.0,0.0,0.0,0.0,0.0,0.0,0.0,0.0,0.0,0.0,0.0,0.0,0.0,0.0,0.0,0.0,0.0,0.0,0.0,0.0,0.0,0.0,0.0,0.0,0.0,0.0,0.0,0.0,0.0,0.0,0.0,0.0,0.0,0.0,0.0,0.0,0.0,0.0,0.0,0.0,0.0,0.0,0.0,0.0,0.0,0.0,0.0,0.0,0.0,0.0,0.0,0.0,0.0,0.0,0.0,0.0,0.0,0.0,0.0,0.0,0.0,0.0,0.0,0.0,0.0,0.0,0.0,0.0,0.0,0.0,0.0,0.0,0.0,0.0,0.0,0.0,0.0,0.0,0.0,0.0,0.0,0.0,0.0,0.0,0.0,0.0,0.0,0.0,0.0,0.0,0.0,0.0,0.0,0.0,0.0,0.0,0.0,0.0,0.0,0.0,0.0,0.0,0.0,0.0,0.0,0.0,0.0,0.0,0.0,0.0,0.0,0.0,0.0,0.0,0.0,0.0,0.0,0.0,0.0,0.0,0.0,0.0,0.0,0.0,0.0,0.0,0.0,0.0,0.0,0.0,0.0,0.0,0.0,0.0,0.0,0.0,0.0,0.0,0.0,0.0,0.0,0.0,0.0,0.0,0.0,0.0,0.0,0.0,0.0,0.0,0.0,0.0,0.0,0.0,0.0,0.0,0.0,0.0,0.0,0.0,0.0,0.0,0.0,0.0,0.0,0.0,0.0,0.0,0.0,0.0,0.0,0.0,0.0,0.0,0.0,0.0,0.0,0.0,0.0,0.0,0.0,0.0,0.0,0.0,0.0,0.0,0.0,0.0,0.0,0.0,0.0,0.0,0.0,0.0,0.0,0.0,0.0,0.0,0.0,0.0,0.0,0.0,0.0,0.0,0.0,0.0,0.0,0.0,0.0,0.0,0.0,0.0,0.0,0.0,0.0,0.0,0.0,0.0,0.0,0.0,0.0,0.0,0.0,0.0,0.0,0.0,0.0,0.0,0.0,0.0,0.0,0.0,0.0,0.0,0.0,0.0,0.0,0.0,0.0,0.0,0.0,0.0,0.0,0.0,0.0,0.0,0.0,0.0,0.0,0.0,0.0,0.0,0.0,0.0,0.0,0.0,0.0,0.0,0.0,0.0,0.0,0.0,0.0,0.0,0.0,0.0,0.0,0.0,0.0,0.0,0.0,0.0,0.0,0.0,0.0,0.0,0.0,0.0,0.0,0.0,0.0,0.0,0.0,0.0,0.0,0.0,0.0,0.0,0.0,0.0,0.0,0.0,0.0,0.0,0.0,0.0,0.0,0.0,0.0,0.0,0.0,0.0,0.0,0.0,0.0,0.0,0.0,0.0,0.0,0.0,0.0,0.0,0.0,0.0,0.0,0.0,0.0,0.0,0.0,0.0,0.0,0.0,0.0,0.0,0.0,0.0,0.0,0.0,0.0,0.0,0.0,0.0,0.0,0.0,0.0,0.0,0.0,0.0,0.0,0.0,0.0,0.0,0.0,0.0,0.0,0.0,0.0,0.0,0.0,0.0,0.0,0.0,0.0,0.0,0.0,0.0,0.0,0.0,0.0,0.0,0.0,0.0,0.0,0.0,0.0,0.0,0.0,0.0,0.0,0.0,0.0,0.0,0.0,0.0,0.0,0.0,0.0,0.0,0.0,0.0,0.0,0.0,0.0,0.0,0.0,0.0,0.0,0.0,0.0,0.0,0.0,0.0,0.0,0.0,0.0,0.0,0.0,0.0,0.0,0.0,0.0,0.0,0.0,0.0,0.0,0.0,0.0,0.0,0.0,0.0,0.0,0.0,0.0,0.0,0.0,0.0,0.0,0.0,0.0,0.0,0.0,0.0,0.0,0.0,0.0,0.0,0.0,0.0,0.0,0.0,0.0,0.0,0.0,0.0,0.0,0.0,0.0,0.0,0.0,0.0,0.0,0.0,0.0,0.0,0.0,0.0,0.0,0.0,0.0,0.0,0.0,0.0,0.0,0.0,0.0,0.0,0.0,0.0,0.0,0.0,0.0,0.0,0.0,0.0,0.0,0.0,0.0,0.0,0.0,0.0,0.0,0.0,0.0,0.0,0.0,0.0,0.0,0.0,0.0,0.0,0.0,0.0,0.0,0.0,0.0,0.0,0.0,0.0,0.0,0.0,0.0,0.0,0.0,0.0,0.0,0.0,0.0,0.0,0.0,0.0,0.0,0.0,0.0,0.0,0.0,0.0,0.0,0.0,0.0,0.0,0.0,0.0,0.0,0.0,0.0,0.0,0.0,0.0,0.0,0.0,0.0,0.0,0.0,0.0,0.0,0.0,0.0,0.0,0.0,0.0,0.0,0.0,0.0,0.0,0.0,0.0,0.0,0.0,0.0,0.0,0.0,0.0,0.0,0.0,0.0,0.0,0.0,0.0,0.0,0.0,0.0,0.0,0.0,0.0,0.0,0.0,0.0,0.0,0.0,0.0,0.0,0.0,0.0,0.0,0.0,0.0,0.0,0.0,0.0,0.0,0.0,0.0,0.0,0.0,0.0,0.0,0.0,0.0,0.0,0.0,0.0,0.0,0.0,0.0,0.0,0.0,0.0,0.0,0.0,0.0,0.0,0.0,0.0,0.0,0.0,0.0,0.0,0.0,0.0,0.0,0.0,0.0,0.0,0.0,0.0,0.0,0.0,0.0,0.0,0.0,0.0,0.0,0.0,0.0,0.0,0.0,0.0,0.0,0.0,0.0,0.0,0.0,0.0,0.0,0.0,0.0,0.0,0.0,0.0,0.0,0.0,0.0,0.0,0.0,0.0,0.0,0.0,0.0,0.0,0.0,0.0,0.0,0.0,0.0,0.0,0.0,0.0,0.0,0.0,0.0,0.0,0.0,0.0,0.0,0.0,0.0,0.0,0.0,0.0,0.0,0.0,0.0,0.0,0.0,0.0,0.0,0.0,0.0,0.0,0.0,0.0,0.0,0.0,0.0,0.0,0.0,0.0,0.0,0.0,0.0,0.0,0.0,0.0,0.0,0.0,0.0,0.0,0.0,0.0,0.0,0.0,0.0,0.0,0.0,0.0,0.0,0.0,0.0,0.0,0.0,0.0,0.0,0.0,0.0,0.0,0.0,0.0,0.0,0.0,0.0,0.0,0.0,0.0,0.0,0.0,0.0,0.0,0.0,0.0,0.0,0.0,0.0,0.0,0.0,0.0,0.0,0.0,0.0,0.0,0.0,-1.1965,0.0,0.0,0.0,0.0,0.0,0.0,0.0,0.0,0.0,0.0,0.0,0.0,0.0,0.0,0.0,0.0,0.0,0.0,0.0,0.0,0.0,0.0,0.0,0.0,0.0,0.0,0.0,0.0,0.0,0.0,0.0,0.0,0.0,0.0,0.0,0.0,0.0,0.0,0.0,0.0,0.0,0.0,0.0,0.0,0.0,0.0,0.0,0.0,0.0,0.0,0.0,0.0,0.0,0.0,0.0,0.0,0.0,0.0,0.0,0.0,0.0,0.0,0.0,0.0,0.0,0.0,0.0,0.0,0.0,0.0,0.0,0.0,0.0,0.0,0.0,0.0,0.0,0.0,0.0,0.0,0.0,0.0,0.0,0.0,0.0,0.0,0.0,0.0,0.0,0.0,0.0,0.0,0.0,0.0,0.0,0.0,0.0,0.0,0.0,0.0,0.0,0.0,0.0,0.0,0.0,0.0,0.0,0.0,0.0,0.0,-1.3452,-1.3142,-1.2316,-1.1748,-1.1523,0.0,0.0,0.0,0.0,0.0,0.0,0.0,0.0,0.0,0.0,0.0,0.0,0.0,0.0,0.0,0.0,0.0,0.0,0.0,0.0,0.0,0.0,0.0,0.0,0.0,0.0,0.0,0.0,0.0,0.0,0.0,0.0,0.0,0.0,0.0,0.0,0.0,0.0,0.0,0.0,0.0,0.0,0.0,0.0,0.0,0.0,0.0,0.0,0.0,0.0,0.0,0.0,0.0,0.0,0.0,0.0,0.0,0.0,0.0,0.0,0.0,0.0,0.0,0.0,0.0,0.0,0.0,0.0,0.0,0.0,0.0,0.0,0.0,0.0,0.0,0.0,0.0,0.0,0.0,0.0,0.0,0.0,0.0,0.0,0.0,0.0,0.0,0.0,0.0,0.0,0.0,0.0,0.0,0.0,0.0,0.0,0.0,0.0,0.0,0.0,0.0,0.0,0.0,0.0,0.0,0.0,0.0,0.0,0.0,0.0,0.0,0.0,-1.2506,-1.1972,-1.1492,0.0,0.0,0.0,0.0,0.0,0.0,0.0,0.0,0.0,0.0,0.0,0.0,0.0,0.0,0.0,0.0,0.0,0.0,0.0,0.0,0.0,0.0,0.0,0.0,0.0,0.0,0.0,0.0,0.0,0.0,0.0,0.0,0.0,0.0,0.0,0.0,0.0,0.0,0.0,0.0,0.0,0.0,0.0,0.0,0.0,0.0,0.0,0.0,0.0,0.0,0.0,0.0,0.0,0.0,0.0,0.0,0.0,0.0,0.0,0.0,0.0,0.0,0.0,0.0,0.0,0.0,0.0,0.0,0.0,0.0,0.0,0.0,0.0,0.0,0.0,0.0,0.0,0.0,0.0,0.0,0.0,0.0,0.0,0.0,0.0,0.0,0.0,0.0,0.0,0.0,0.0,0.0,0.0,0.0,0.0,0.0,0.0,0.0,0.0,0.0,0.0,0.0,0.0,0.0,0.0,0.0,0.0,0.0,0.0,0.0,-1.2692,-1.4085,-1.3668,0.0,-1.2646,0.0,0.0,0.0,0.0,0.0,0.0,0.0,0.0,0.0,0.0,0.0,0.0,0.0,0.0,0.0,0.0,0.0,0.0,0.0,0.0,0.0,0.0,0.0,0.0,0.0,0.0,0.0,0.0,0.0,0.0,0.0,0.0,0.0,0.0,0.0,0.0,0.0,0.0,0.0,0.0,0.0,0.0,0.0,0.0,0.0,0.0,0.0,0.0,0.0,0.0,0.0,0.0,0.0,0.0,0.0,0.0,0.0,0.0,0.0,0.0,0.0,0.0,0.0,0.0,0.0,0.0,0.0,0.0,0.0,0.0,0.0,0.0,0.0,0.0,0.0,0.0,0.0,0.0,0.0,0.0,0.0,0.0,0.0,0.0,0.0,0.0,0.0,0.0,0.0,0.0,0.0,0.0,0.0,0.0,0.0,0.0,0.0,0.0,0.0,0.0,0.0,0.0,0.0,0.0,0.0,0.0,0.0,0.0,0.0,0.0,0.0,-1.3699,-1.3301,-1.2955,0.0,0.0,0.0,0.0,0.0,0.0,0.0,0.0,0.0,0.0,0.0,0.0,0.0,0.0,0.0,0.0,0.0,0.0,0.0,0.0,0.0,0.0,0.0,0.0,0.0,0.0,0.0,0.0,0.0,0.0,0.0,0.0,0.0,0.0,0.0,0.0,0.0,0.0,0.0,0.0,0.0,0.0,0.0,0.0,0.0,0.0,0.0,0.0,0.0,0.0,0.0,0.0,0.0,0.0,0.0,0.0,0.0,0.0,0.0,0.0,0.0,0.0,0.0,0.0,0.0,0.0,0.0,0.0,0.0,0.0,0.0,0.0,0.0,0.0,0.0,0.0,0.0,0.0,0.0,0.0,0.0,0.0,0.0,0.0,0.0,0.0,0.0,0.0,0.0,0.0,0.0,0.0,0.0,0.0,0.0,0.0,0.0,0.0,0.0,0.0,0.0,0.0,0.0,0.0,0.0,0.0,0.0,0.0,0.0,0.0,-1.3377,0.0,-1.3765,-1.3523,-1.3187,-1.2692,0.0,0.0,0.0,0.0,0.0,0.0,0.0,0.0,0.0,0.0,0.0,0.0,0.0,0.0,0.0,0.0,0.0,0.0,0.0,0.0,0.0,0.0,0.0,0.0,0.0,0.0,0.0,0.0,0.0,0.0,0.0,0.0,0.0,0.0,0.0,0.0,0.0,0.0,0.0,0.0,0.0,0.0,0.0,0.0,0.0,0.0,0.0,0.0,0.0,0.0,0.0,0.0,0.0,0.0,0.0,0.0,0.0,0.0,0.0,0.0,0.0,0.0,0.0,0.0,0.0,0.0,0.0,0.0,0.0,0.0,0.0,0.0,0.0,0.0,0.0,0.0,0.0,0.0,0.0,0.0,0.0,0.0,0.0,0.0,0.0,0.0,0.0,0.0,0.0,0.0,0.0,0.0,0.0,0.0,0.0,0.0,0.0,0.0,0.0,0.0,0.0,0.0,0.0,0.0,0.0,0.0,0.0,0.0,0.0,-1.3614,-1.3335,-1.4854,-1.5069,-1.4362,0.0,0.0,0.0,0.0,0.0,0.0,0.0,0.0,0.0,0.0,0.0,0.0,0.0,0.0,0.0,0.0,0.0,0.0,0.0,0.0,0.0,0.0,0.0,0.0,0.0,0.0,0.0,0.0,0.0,0.0,0.0,0.0,0.0,0.0,0.0,0.0,0.0,0.0,0.0,0.0,0.0,0.0,0.0,0.0,0.0,0.0,0.0,0.0,0.0,0.0,0.0,0.0,0.0,0.0,0.0,0.0,0.0,0.0,0.0,0.0,0.0,0.0,0.0,0.0,0.0,0.0,0.0,0.0,0.0,0.0,0.0,0.0,0.0,0.0,0.0,0.0,0.0,0.0,0.0,0.0,0.0,0.0,0.0,0.0,0.0,0.0,0.0,0.0,0.0,0.0,0.0,0.0,0.0,0.0,0.0,0.0,0.0,0.0,0.0,0.0,0.0,0.0,0.0,0.0,0.0,0.0,0.0,0.0,0.0,-1.1958,-1.2285,-1.3745,0.0,-1.4587,-1.3744,0.0,0.0,0.0,0.0,0.0,0.0,0.0,0.0,0.0,0.0,0.0,0.0,0.0,0.0,0.0,0.0,0.0,0.0,0.0,0.0,0.0,0.0,0.0,0.0,0.0,0.0,0.0,0.0,0.0,0.0,0.0,0.0,0.0,0.0,0.0,0.0,0.0,0.0,0.0,0.0,0.0,0.0,0.0,0.0,0.0,0.0,0.0,0.0,0.0,0.0,0.0,0.0,0.0,0.0,0.0,0.0,0.0,0.0,0.0,0.0,0.0,0.0,0.0,0.0,0.0,0.0,0.0,0.0,0.0,0.0,0.0,0.0,0.0,0.0,0.0,0.0,0.0,0.0,0.0,0.0,0.0,0.0,0.0,0.0,0.0,0.0,0.0,0.0,0.0,0.0,0.0,0.0,0.0,0.0,0.0,0.0,0.0,0.0,0.0,0.0,0.0,0.0,0.0,0.0,0.0,0.0,0.0,0.0,0.0,-1.1525,0.0,-1.4839,0.0,-1.4462,-1.3369,0.0,0.0,0.0,0.0,0.0,0.0,0.0,0.0,0.0,0.0,0.0,0.0,0.0,0.0,0.0,0.0,0.0,0.0,0.0,0.0,0.0,0.0,0.0,0.0,0.0,0.0,0.0,0.0,0.0,0.0,0.0,0.0,0.0,0.0,0.0,0.0,0.0,0.0,0.0,0.0,0.0,0.0,0.0,0.0,0.0,0.0,0.0,0.0,0.0,0.0,0.0,0.0,0.0,0.0,0.0,0.0,0.0,0.0,0.0,0.0,0.0,0.0,0.0,0.0,0.0,0.0,0.0,0.0,0.0,0.0,0.0,0.0,0.0,0.0,0.0,0.0,0.0,0.0,0.0,0.0,0.0,0.0,0.0,0.0,0.0,0.0,0.0,0.0,0.0,0.0,0.0,0.0,0.0,0.0,0.0,0.0,0.0,0.0,0.0,0.0,0.0,0.0,0.0,0.0,0.0,0.0,0.0,0.0,-1.155,-1.4702,-1.6363,-1.6464,-1.5054,-1.4993,-1.3514,0.0,0.0,0.0,0.0,0.0,0.0,0.0,0.0,0.0,0.0,0.0,0.0,0.0,0.0,0.0,0.0,0.0,0.0,0.0,0.0,0.0,0.0,0.0,0.0,0.0,0.0,0.0,0.0,0.0,0.0,0.0,0.0,0.0,0.0,0.0,0.0,0.0,0.0,0.0,0.0,0.0,0.0,0.0,0.0,0.0,0.0,0.0,0.0,0.0,0.0,0.0,0.0,0.0,0.0,0.0,0.0,0.0,0.0,0.0,0.0,0.0,0.0,0.0,0.0,0.0,0.0,0.0,0.0,0.0,0.0,0.0,0.0,0.0,0.0,0.0,0.0,0.0,0.0,0.0,0.0,0.0,0.0,0.0,0.0,0.0,0.0,0.0,0.0,0.0,0.0,0.0,0.0,0.0,0.0,0.0,0.0,0.0,0.0,0.0,0.0,0.0,0.0,0.0,0.0,0.0,0.0,0.0,0.0,0.0,-1.376,-1.4714,-1.5891,-1.6999,-1.4626,-1.3512,0.0,0.0,0.0,0.0,0.0,0.0,0.0,0.0,0.0,0.0,0.0,0.0,0.0,0.0,0.0,0.0,0.0,0.0,0.0,0.0,0.0,0.0,0.0,0.0,0.0,0.0,0.0,0.0,0.0,0.0,0.0,0.0,0.0,0.0,0.0,0.0,0.0,0.0,0.0,0.0,0.0,0.0,0.0,0.0,0.0,0.0,0.0,0.0,0.0,0.0,0.0,0.0,0.0,0.0,0.0,0.0,0.0,0.0,0.0,0.0,0.0,0.0,0.0,0.0,0.0,0.0,0.0,0.0,0.0,0.0,0.0,0.0,0.0,0.0,0.0,0.0,0.0,0.0,0.0,0.0,0.0,0.0,0.0,0.0,0.0,0.0,0.0,0.0,0.0,0.0,0.0,0.0,0.0,0.0,0.0,0.0,0.0,0.0,0.0,0.0,0.0,0.0,0.0,0.0,0.0,0.0,0.0,0.0,0.0,-1.5219,-1.6144,-1.7036,-1.7877,-1.5381,-1.4221,-1.4574,0.0,0.0,0.0,0.0,0.0,0.0,0.0,0.0,0.0,0.0,0.0,0.0,0.0,0.0,0.0,0.0,0.0,0.0,0.0,0.0,0.0,0.0,0.0,0.0,0.0,0.0,0.0,0.0,0.0,0.0,0.0,0.0,0.0,0.0,0.0,0.0,0.0,0.0,0.0,0.0,0.0,0.0,0.0,0.0,0.0,0.0,0.0,0.0,0.0,0.0,0.0,0.0,0.0,0.0,0.0,0.0,0.0,0.0,0.0,0.0,0.0,0.0,0.0,0.0,0.0,0.0,0.0,0.0,0.0,0.0,0.0,0.0,0.0,0.0,0.0,0.0,0.0,0.0,0.0,0.0,0.0,0.0,0.0,0.0,0.0,0.0,0.0,0.0,0.0,0.0,0.0,0.0,0.0,0.0,0.0,0.0,0.0,0.0,0.0,0.0,0.0,0.0,0.0,0.0,0.0,0.0,0.0,0.0,-1.8541,-2.004,-1.9761,-1.7727,-1.6992,-1.5461,0.0,0.0,0.0,0.0,0.0,0.0,0.0,0.0,0.0,0.0,0.0,0.0,0.0,0.0,0.0,0.0,0.0,0.0,0.0,0.0,0.0,0.0,0.0,0.0,0.0,0.0,0.0,0.0,0.0,0.0,0.0,0.0,0.0,0.0,0.0,0.0,0.0,0.0,0.0,0.0,0.0,0.0,0.0,0.0,0.0,0.0,0.0,0.0,0.0,0.0,0.0,0.0,0.0,0.0,0.0,0.0,0.0,0.0,0.0,0.0,0.0,0.0,0.0,0.0,0.0,0.0,0.0,0.0,0.0,0.0,0.0,0.0,0.0,0.0,0.0,0.0,0.0,0.0,0.0,0.0,0.0,0.0,0.0,0.0,0.0,0.0,0.0,0.0,0.0,0.0,0.0,0.0,0.0,0.0,0.0,0.0,0.0,0.0,0.0,0.0,0.0,0.0,0.0,0.0,0.0,0.0,0.0,0.0,0.0,-2.0374,-2.1924,-2.1845,-1.9986,-1.7896,-1.6162,0.0,0.0,0.0,0.0,0.0,0.0,0.0,0.0,0.0,0.0,0.0,0.0,0.0,0.0,0.0,0.0,0.0,0.0,0.0,0.0,0.0,0.0,0.0,0.0,0.0,0.0,0.0,0.0,0.0,0.0,0.0,0.0,0.0,0.0,0.0,0.0,0.0,0.0,0.0,0.0,0.0,0.0,0.0,0.0,0.0,0.0,0.0,0.0,0.0,0.0,0.0,0.0,0.0,0.0,0.0,0.0,0.0,0.0,0.0,0.0,0.0,0.0,0.0,0.0,0.0,0.0,0.0,0.0,0.0,0.0,0.0,0.0,0.0,0.0,0.0,0.0,0.0,0.0,0.0,0.0,0.0,0.0,0.0,0.0,0.0,0.0,0.0,0.0,0.0,0.0,0.0,0.0,0.0,0.0,0.0,0.0,0.0,0.0,0.0,0.0,0.0,0.0,0.0,0.0,0.0,0.0,0.0,0.0,-1.9523,-2.1506,-2.309,-2.311,-2.1354,-1.9526,-1.7678,0.0,0.0,0.0,0.0,0.0,0.0,0.0,0.0,0.0,0.0,0.0,0.0,0.0,0.0,0.0,0.0,0.0,0.0,0.0,0.0,0.0,0.0,0.0,0.0,0.0,0.0,0.0,0.0,0.0,0.0,0.0,0.0,0.0,0.0,0.0,0.0,0.0,0.0,0.0,0.0,0.0,0.0,0.0,0.0,0.0,0.0,0.0,0.0,0.0,0.0,0.0,0.0,0.0,0.0,0.0,0.0,0.0,0.0,0.0,0.0,0.0,0.0,0.0,0.0,0.0,0.0,0.0,0.0,0.0,0.0,0.0,0.0,0.0,0.0,0.0,0.0,0.0,0.0,0.0,0.0,0.0,0.0,0.0,0.0,0.0,0.0,0.0,0.0,0.0,0.0,0.0,0.0,0.0,0.0,0.0,0.0,0.0,0.0,0.0,0.0,0.0,0.0,0.0,0.0,0.0,0.0,0.0,0.0,-2.0602,-2.2257,-2.3994,-2.4014,-2.2332,-2.1423,-1.9409,0.0,0.0,0.0,0.0,0.0,0.0,0.0,0.0,0.0,0.0,0.0,0.0,0.0,0.0,0.0,0.0,0.0,0.0,0.0,0.0,0.0,0.0,0.0,0.0,0.0,0.0,0.0,0.0,0.0,0.0,0.0,0.0,0.0,0.0,0.0,0.0,0.0,0.0,0.0,0.0,0.0,0.0,0.0,0.0,0.0,0.0,0.0,0.0,0.0,0.0,0.0,0.0,0.0,0.0,0.0,0.0,0.0,0.0,0.0,0.0,0.0,0.0,0.0,0.0,0.0,0.0,0.0,0.0,0.0,0.0,0.0,0.0,0.0,0.0,0.0,0.0,0.0,0.0,0.0,0.0,0.0,0.0,0.0,0.0,0.0,0.0,0.0,0.0,0.0,0.0,0.0,0.0,0.0,0.0,0.0,0.0,0.0,0.0,0.0,0.0,0.0,0.0,0.0,0.0,0.0,0.0,0.0,0.0,-2.1538,-2.365,-2.5247,-2.5435,-2.4254,-2.2297,-1.9618,0.0,0.0,0.0,0.0,0.0,0.0,0.0,0.0,0.0,0.0,0.0,0.0,0.0,0.0,0.0,0.0,0.0,0.0,0.0,0.0,0.0,0.0,0.0,0.0,0.0,0.0,0.0,0.0,0.0,0.0,0.0,0.0,0.0,0.0,0.0,0.0,0.0,0.0,0.0,0.0,0.0,0.0,0.0,0.0,0.0,0.0,0.0,0.0,-1.5241,0.0,0.0,0.0,0.0,0.0,0.0,0.0,0.0,0.0,0.0,0.0,0.0,0.0,0.0,0.0,0.0,0.0,0.0,0.0,0.0,0.0,0.0,0.0,0.0,0.0,0.0,0.0,0.0,0.0,0.0,0.0,0.0,0.0,0.0,0.0,0.0,0.0,0.0,0.0,0.0,0.0,0.0,0.0,0.0,0.0,0.0,0.0,0.0,0.0,0.0,0.0,0.0,0.0,0.0,0.0,0.0,0.0,0.0,0.0,-2.2452,-2.4491,-2.5803,-2.5987,-2.481,-2.3424,-2.0846,0.0,0.0,0.0,0.0,0.0,0.0,0.0,0.0,0.0,0.0,0.0,0.0,0.0,0.0,0.0,0.0,0.0,0.0,0.0,0.0,0.0,0.0,0.0,0.0,0.0,0.0,0.0,0.0,0.0,0.0,0.0,0.0,0.0,0.0,0.0,0.0,0.0,0.0,0.0,0.0,0.0,0.0,0.0,0.0,0.0,0.0,0.0,0.0,0.0,0.0,0.0,0.0,0.0,0.0,0.0,0.0,0.0,0.0,0.0,0.0,0.0,0.0,0.0,0.0,0.0,0.0,0.0,0.0,0.0,0.0,0.0,0.0,0.0,0.0,0.0,0.0,0.0,0.0,0.0,0.0,0.0,0.0,0.0,0.0,0.0,0.0,0.0,0.0,0.0,0.0,0.0,0.0,0.0,0.0,0.0,0.0,0.0,0.0,0.0,0.0,0.0,0.0,0.0,0.0,0.0,0.0,0.0,-2.0673,-2.3136,-2.504,-2.6033,-2.6013,-2.4988,-2.4236,-2.2133,-1.8401,0.0,0.0,0.0,0.0,0.0,0.0,0.0,0.0,0.0,0.0,0.0,0.0,0.0,0.0,0.0,0.0,0.0,0.0,0.0,0.0,0.0,0.0,0.0,0.0,0.0,0.0,0.0,0.0,0.0,0.0,0.0,0.0,0.0,0.0,0.0,0.0,0.0,0.0,-1.637,-1.7823,0.0,0.0,0.0,0.0,0.0,0.0,0.0,0.0,-1.6445,0.0,0.0,0.0,0.0,0.0,0.0,0.0,0.0,0.0,0.0,0.0,0.0,0.0,0.0,0.0,0.0,0.0,0.0,0.0,0.0,0.0,0.0,0.0,0.0,0.0,0.0,0.0,0.0,0.0,0.0,0.0,0.0,0.0,0.0,0.0,0.0,0.0,0.0,0.0,0.0,0.0,0.0,0.0,0.0,0.0,0.0,0.0,0.0,0.0,0.0,0.0,0.0,0.0,0.0,0.0,0.0,-2.007,-2.0699,-2.2479,-2.5589,-2.5876,-2.584,-2.5584,-2.3697,-2.1543,-1.9068,0.0,0.0,0.0,0.0,0.0,0.0,0.0,0.0,0.0,0.0,0.0,0.0,0.0,0.0,0.0,0.0,0.0,0.0,0.0,0.0,0.0,0.0,0.0,0.0,0.0,0.0,0.0,0.0,0.0,0.0,0.0,0.0,0.0,0.0,0.0,0.0,0.0,0.0,0.0,-1.9591,-2.0226,0.0,0.0,0.0,0.0,0.0,0.0,0.0,0.0,-1.6784,0.0,0.0,0.0,0.0,0.0,0.0,0.0,0.0,0.0,0.0,0.0,0.0,0.0,0.0,0.0,0.0,0.0,0.0,0.0,0.0,0.0,0.0,0.0,0.0,0.0,0.0,0.0,0.0,0.0,0.0,0.0,0.0,0.0,0.0,0.0,0.0,0.0,0.0,0.0,0.0,0.0,0.0,0.0,0.0,0.0,0.0,0.0,0.0,0.0,0.0,0.0,0.0,0.0,0.0,0.0,-1.9603,-2.1224,-2.308,-2.5301,-2.5667,-2.5667,-2.5354,-2.3166,-2.1166,0.0,0.0,0.0,0.0,0.0,0.0,0.0,0.0,0.0,0.0,0.0,0.0,0.0,0.0,0.0,0.0,0.0,0.0,0.0,0.0,0.0,0.0,0.0,0.0,0.0,0.0,0.0,0.0,0.0,0.0,0.0,0.0,0.0,0.0,0.0,0.0,0.0,0.0,0.0,0.0,-2.0558,-2.0851,-2.0909,0.0,0.0,0.0,0.0,0.0,0.0,-1.7897,-1.7477,0.0,0.0,0.0,0.0,0.0,0.0,0.0,0.0,0.0,0.0,0.0,0.0,0.0,0.0,0.0,0.0,0.0,0.0,0.0,0.0,0.0,0.0,0.0,0.0,0.0,0.0,0.0,0.0,0.0,0.0,0.0,0.0,0.0,0.0,0.0,0.0,0.0,0.0,0.0,0.0,0.0,0.0,0.0,0.0,0.0,0.0,0.0,0.0,0.0,0.0,0.0,0.0,0.0,0.0,0.0,-1.8898,-2.1407,-2.3446,-2.4909,-2.5301,-2.5328,-2.4936,-2.2818,-2.1042,0.0,0.0,0.0,0.0,0.0,0.0,0.0,0.0,0.0,0.0,0.0,0.0,0.0,0.0,0.0,0.0,0.0,0.0,0.0,0.0,0.0,0.0,0.0,0.0,0.0,0.0,0.0,0.0,0.0,0.0,0.0,0.0,0.0,0.0,0.0,0.0,0.0,0.0,0.0,0.0,0.0,-2.1642,-2.1773,-2.1399,0.0,0.0,0.0,0.0,-1.9432,-1.9182,0.0,0.0,0.0,0.0,0.0,0.0,0.0,0.0,0.0,0.0,0.0,0.0,0.0,0.0,0.0,0.0,0.0,0.0,0.0,0.0,0.0,0.0,0.0,0.0,0.0,0.0,0.0,0.0,0.0,0.0,0.0,0.0,0.0,0.0,0.0,0.0,0.0,0.0,0.0,0.0,0.0,0.0,0.0,0.0,0.0,0.0,0.0,0.0,0.0,0.0,0.0,0.0,0.0,0.0,0.0,0.0,-1.8793,-2.0231,-2.2323,-2.4805,-2.4543,-2.4517,-2.4936,-2.3267,-2.1329,0.0,0.0,0.0,0.0,0.0,0.0,0.0,0.0,0.0,0.0,0.0,0.0,0.0,0.0,0.0,0.0,0.0,0.0,0.0,0.0,0.0,0.0,0.0,0.0,0.0,0.0,0.0,0.0,0.0,0.0,0.0,0.0,0.0,0.0,0.0,0.0,0.0,0.0,0.0,0.0,0.0,-2.3165,-2.2106,-2.2366,-2.2611,0.0,0.0,-2.2106,-2.3074,-2.2575,0.0,0.0,0.0,0.0,0.0,0.0,0.0,0.0,0.0,0.0,0.0,0.0,0.0,0.0,0.0,0.0,0.0,0.0,0.0,0.0,0.0,0.0,0.0,0.0,0.0,0.0,0.0,0.0,0.0,0.0,0.0,0.0,0.0,0.0,0.0,0.0,0.0,0.0,0.0,0.0,0.0,0.0,0.0,0.0,0.0,0.0,0.0,0.0,0.0,0.0,0.0,0.0,0.0,0.0,0.0,-1.6284,-1.9342,-2.0908,-2.2557,-2.4387,-2.4256,-2.423,-2.4465,-2.2533,-2.0677,0.0,0.0,0.0,0.0,0.0,0.0,0.0,0.0,0.0,0.0,0.0,0.0,0.0,0.0,0.0,0.0,0.0,0.0,0.0,0.0,0.0,0.0,0.0,0.0,0.0,0.0,0.0,0.0,0.0,0.0,0.0,0.0,0.0,0.0,0.0,0.0,0.0,0.0,0.0,0.0,0.0,0.0,-2.3601,-2.3862,0.0,0.0,0.0,-2.3594,-2.3531,0.0,0.0,0.0,0.0,0.0,0.0,0.0,0.0,0.0,0.0,0.0,0.0,0.0,0.0,0.0,0.0,0.0,0.0,0.0,0.0,0.0,0.0,0.0,0.0,0.0,0.0,0.0,0.0,0.0,0.0,0.0,0.0,0.0,0.0,0.0,0.0,0.0,0.0,0.0,0.0,0.0,0.0,0.0,0.0,0.0,0.0,0.0,0.0,0.0,0.0,0.0,0.0,0.0,0.0,0.0,0.0,0.0,-1.976,-2.1773,-2.3289,-2.4282,-2.4334,-2.4334,-2.4282,-2.2271,0.0,0.0,0.0,0.0,0.0,0.0,0.0,0.0,0.0,0.0,0.0,0.0,0.0,0.0,0.0,0.0,0.0,0.0,0.0,0.0,0.0,0.0,0.0,0.0,0.0,0.0,0.0,-1.1084,0.0,0.0,0.0,0.0,0.0,0.0,0.0,0.0,0.0,0.0,0.0,0.0,0.0,0.0,-2.3833,-2.4965,-2.54,-2.5582,0.0,0.0,-2.525,-2.449,-2.4504,-2.3779,0.0,0.0,0.0,0.0,0.0,0.0,0.0,0.0,0.0,0.0,0.0,0.0,0.0,0.0,0.0,0.0,0.0,0.0,0.0,0.0,0.0,0.0,0.0,0.0,0.0,0.0,0.0,0.0,0.0,0.0,0.0,0.0,0.0,0.0,0.0,0.0,0.0,0.0,0.0,0.0,0.0,0.0,0.0,0.0,0.0,0.0,0.0,0.0,0.0,0.0,0.0,0.0,0.0,0.0,0.0,-1.9786,-2.2583,-2.4282,-2.4883,-2.4909,-2.497,-2.4943,-2.3323,-2.1224,0.0,0.0,0.0,0.0,0.0,0.0,0.0,0.0,0.0,0.0,0.0,0.0,0.0,0.0,0.0,0.0,0.0,0.0,0.0,0.0,0.0,0.0,0.0,0.0,0.0,0.0,0.0,0.0,0.0,0.0,0.0,0.0,0.0,0.0,0.0,0.0,0.0,0.0,0.0,0.0,0.0,-2.4994,-2.5633,-2.6765,-2.7752,0.0,0.0,-2.7465,-2.7407,-2.7407,-2.6312,-2.2987,0.0,0.0,0.0,0.0,0.0,0.0,0.0,0.0,0.0,0.0,0.0,0.0,0.0,0.0,0.0,0.0,0.0,0.0,0.0,0.0,0.0,0.0,0.0,0.0,0.0,0.0,0.0,0.0,0.0,0.0,0.0,0.0,0.0,0.0,0.0,0.0,0.0,0.0,0.0,0.0,0.0,0.0,0.0,0.0,0.0,0.0,0.0,0.0,0.0,0.0,0.0,0.0,0.0,-1.7878,-2.0832,-2.3113,-2.4688,-2.5458,-2.5608,-2.545,-2.4988,-2.4142,-2.2298,0.0,0.0,0.0,0.0,0.0,0.0,0.0,0.0,0.0,0.0,0.0,0.0,0.0,0.0,0.0,0.0,0.0,0.0,0.0,0.0,0.0,0.0,0.0,0.0,0.0,0.0,0.0,0.0,-1.5061,-1.5754,-1.5598,0.0,0.0,0.0,0.0,0.0,0.0,0.0,0.0,0.0,0.0,-2.5952,-2.7345,-2.8013,0.0,0.0,-2.9058,-2.8884,-2.8884,-2.7897,-2.6393,-2.4298,-2.2879,0.0,0.0,0.0,0.0,0.0,0.0,0.0,0.0,0.0,0.0,0.0,0.0,0.0,0.0,0.0,0.0,0.0,0.0,0.0,0.0,0.0,0.0,0.0,0.0,0.0,0.0,0.0,0.0,0.0,0.0,0.0,0.0,0.0,0.0,0.0,0.0,0.0,0.0,0.0,0.0,0.0,0.0,0.0,0.0,0.0,0.0,0.0,0.0,0.0,0.0,0.0,0.0,-1.8516,-2.1589,-2.3778,-2.5335,-2.6185,-2.6311,-2.6047,-2.5406,-2.476,-2.3067,0.0,0.0,0.0,0.0,0.0,0.0,0.0,0.0,0.0,0.0,0.0,0.0,0.0,0.0,0.0,0.0,0.0,0.0,0.0,0.0,0.0,0.0,0.0,0.0,0.0,0.0,0.0,0.0,-1.569,-1.6063,-1.6063,0.0,0.0,0.0,0.0,0.0,0.0,0.0,0.0,0.0,0.0,-2.6997,-2.871,-2.9116,-2.9464,-3.0103,-3.0016,-2.9842,-2.9668,-2.8652,-2.7287,-2.5429,0.0,0.0,0.0,0.0,0.0,0.0,0.0,0.0,0.0,0.0,0.0,0.0,0.0,0.0,0.0,0.0,0.0,0.0,0.0,0.0,0.0,0.0,0.0,0.0,0.0,0.0,0.0,0.0,0.0,0.0,-1.4307,0.0,0.0,0.0,0.0,0.0,0.0,0.0,0.0,0.0,0.0,0.0,0.0,0.0,0.0,0.0,0.0,0.0,0.0,0.0,0.0,0.0,0.0,-1.9416,-2.1796,-2.4543,-2.6374,-2.712,-2.6956,-2.6691,-2.6268,-2.5293,-2.3444,-2.0575,0.0,0.0,0.0,0.0,0.0,0.0,0.0,0.0,0.0,0.0,0.0,0.0,0.0,0.0,0.0,0.0,0.0,0.0,0.0,0.0,0.0,0.0,0.0,0.0,0.0,0.0,-1.5086,-1.5598,-1.6063,0.0,0.0,0.0,0.0,0.0,0.0,0.0,0.0,0.0,0.0,-2.6881,-2.8158,-2.9435,-3.0132,-3.0742,-3.1351,-3.0974,-3.0364,-2.9784,-3.0103,-2.9435,0.0,0.0,0.0,0.0,0.0,0.0,0.0,0.0,0.0,0.0,0.0,0.0,0.0,0.0,0.0,0.0,0.0,0.0,0.0,0.0,0.0,0.0,0.0,0.0,0.0,0.0,0.0,-2.1145,-2.0316,0.0,0.0,0.0,0.0,0.0,0.0,0.0,0.0,0.0,0.0,0.0,-2.2714,-2.3655,0.0,0.0,0.0,0.0,0.0,0.0,0.0,0.0,0.0,0.0,0.0,0.0,-2.0395,-2.2353,-2.5388,-2.7264,-2.7759,-2.7824,-2.7531,-2.688,-2.623,-2.446,-2.1302,0.0,0.0,0.0,0.0,0.0,0.0,0.0,0.0,0.0,0.0,0.0,0.0,0.0,0.0,0.0,0.0,0.0,0.0,0.0,0.0,0.0,0.0,0.0,0.0,0.0,-1.6416,0.0,0.0,0.0,0.0,0.0,0.0,0.0,0.0,0.0,0.0,0.0,-2.6039,-2.752,-2.8797,-2.9929,-3.0771,-3.1061,-3.1409,0.0,0.0,0.0,0.0,0.0,0.0,0.0,0.0,0.0,0.0,0.0,0.0,0.0,0.0,-3.0589,-2.6966,-2.5692,-2.5218,-2.5311,0.0,0.0,0.0,0.0,0.0,0.0,0.0,0.0,0.0,0.0,0.0,0.0,0.0,0.0,-2.4099,0.0,-2.3387,0.0,0.0,0.0,0.0,0.0,0.0,0.0,0.0,-2.5649,-2.6385,-2.5827,-2.6775,-2.6722,0.0,-2.5527,-2.3519,0.0,0.0,0.0,0.0,0.0,0.0,0.0,0.0,-2.1659,-2.3444,-2.6076,-2.7722,-2.8249,-2.8314,-2.8018,-2.739,-2.6647,-2.5056,-2.2565,-2.0908,-1.952,0.0,0.0,0.0,0.0,0.0,0.0,0.0,0.0,0.0,0.0,0.0,0.0,0.0,0.0,0.0,0.0,0.0,0.0,0.0,0.0,0.0,0.0,0.0,-1.743,0.0,0.0,0.0,0.0,0.0,0.0,0.0,0.0,0.0,-2.4907,-2.6765,-2.8507,-2.9523,-3.0597,-3.1409,-3.1816,0.0,0.0,0.0,0.0,0.0,0.0,0.0,-3.0451,-3.0858,-3.0103,-2.9697,-3.048,-3.2048,-3.289,-3.2019,0.0,0.0,-2.981,-2.857,-2.7997,-2.8168,-2.8539,-2.8654,-2.794,-2.8651,-2.9163,0.0,0.0,0.0,0.0,0.0,0.0,0.0,0.0,-2.646,-2.6403,0.0,-2.5692,0.0,0.0,0.0,0.0,0.0,0.0,0.0,0.0,-3.1247,-3.1668,-2.9254,-2.9667,-2.964,-2.9186,-3.005,-2.9159,-2.6363,-2.1947,0.0,0.0,0.0,0.0,0.0,0.0,-2.3204,-2.4929,-2.662,-2.784,-2.86,-2.8444,-2.8082,-2.7705,-2.6592,-2.5426,-2.4204,-2.3259,-2.1599,-1.9103,-1.804,0.0,0.0,0.0,0.0,0.0,0.0,0.0,0.0,0.0,0.0,0.0,0.0,0.0,0.0,0.0,0.0,0.0,0.0,0.0,0.0,-1.7853,0.0,0.0,0.0,0.0,0.0,0.0,0.0,0.0,0.0,0.0,-2.7229,-2.9116,-3.0858,-3.1496,0.0,0.0,0.0,0.0,-3.2774,-3.3412,-3.2977,-3.26,-3.26,-3.3035,-3.2977,-3.1816,0.0,0.0,-3.2803,-3.3645,-3.4109,-3.289,-3.3732,-3.4486,-3.4399,-3.2745,-3.1633,-3.199,-3.1339,-3.0852,-3.1151,-3.1632,-3.2127,-3.1303,0.0,0.0,0.0,0.0,-2.8702,-2.9794,-3.1791,-3.1368,-3.063,-2.9686,-2.9514,0.0,0.0,0.0,0.0,0.0,0.0,-2.9921,-3.0703,-3.1241,-3.1433,-3.1536,-3.1223,-3.101,-3.085,-3.0887,-3.0502,-2.959,-2.7633,-2.439,-2.0187,0.0,0.0,0.0,0.0,-2.5603,-2.6169,-2.7994,-2.9062,-2.9224,-2.8817,-2.8238,-2.7732,-2.7379,-2.6837,-2.6077,-2.4932,-2.3798,-2.2631,-2.0691,0.0,0.0,0.0,0.0,0.0,0.0,0.0,0.0,0.0,0.0,0.0,0.0,0.0,0.0,0.0,0.0,0.0,0.0,0.0,-1.7795,-1.8462,-1.9391,0.0,0.0,0.0,0.0,0.0,0.0,0.0,0.0,0.0,-3.1438,-3.1787,-3.2193,0.0,0.0,-3.3209,-3.318,-3.318,-3.3412,-3.4051,0.0,0.0,0.0,-3.3267,-3.2977,-3.3499,-3.4428,-3.4951,-3.4603,-3.5212,-3.5648,-3.5241,-3.5503,-3.5764,-3.5677,-3.4603,-3.3636,-3.3657,-3.3492,-3.3529,-3.4042,-3.4293,-3.4661,-3.5357,-3.2589,-3.1775,-3.1857,-3.2481,-3.2533,-3.3311,-3.4713,-3.4517,-3.3831,-3.2947,-3.247,-3.1217,-2.9344,-2.9545,0.0,0.0,0.0,-3.2551,-3.3662,-3.3099,-3.3111,-3.3472,-3.2658,-3.2165,-3.2139,-3.1648,-3.1352,-3.1496,-3.0767,-2.8417,-2.4579,0.0,0.0,-2.3259,-2.5953,-2.7498,-2.7832,-2.917,-2.9849,-2.9849,-2.9252,-2.8655,-2.8085,-2.8058,-2.7786,-2.7189,-2.6457,-2.5588,-2.4503,-2.2875,-2.0921,0.0,0.0,0.0,0.0,0.0,0.0,0.0,0.0,0.0,0.0,0.0,-1.5182,0.0,0.0,0.0,0.0,-1.7243,-1.9043,-2.0349,-2.1481,0.0,0.0,0.0,0.0,0.0,0.0,0.0,-3.0742,-3.2077,-3.3267,-3.4428,-3.4254,-3.408,-3.4196,-3.4428,-3.4516,-3.4254,0.0,-3.4632,-3.4777,-3.5009,-3.5067,-3.4835,-3.437,-3.4283,-3.5038,-3.5473,-3.5735,-3.5764,-3.6083,-3.6286,-3.6286,-3.6286,-3.6286,-3.6286,-3.5677,-3.5154,-3.5154,-3.5183,-3.5299,-3.5677,-3.5735,-3.5991,-3.8891,-3.7803,-3.6605,-3.6035,-3.6007,-3.6777,-3.6698,-3.5952,-3.6192,-3.6092,-3.5683,-3.4702,-3.4279,-3.4448,-3.3938,0.0,-3.5639,-3.6104,-3.6291,-3.6344,-3.6172,-3.5783,-3.5152,-3.3779,-3.3132,-3.3105,-3.2442,-3.2144,-3.2236,-3.209,-3.1253,-2.9713,-2.86,-2.7913,-2.7624,-2.84,-2.9062,-2.9604,-3.0174,-3.0446,-3.0391,-2.9794,-2.9197,-2.8682,-2.8573,-2.8275,-2.7732,-2.7596,-2.6809,-2.5154,-2.4422,-2.2821,-2.018,0.0,0.0,0.0,0.0,0.0,0.0,0.0,0.0,0.0,0.0,0.0,0.0,0.0,0.0,0.0,-2.0843,0.0,-2.4007,-2.5778,0.0,0.0,0.0,-2.7955,-2.9929,-3.1148,-3.2542,-3.4341,0.0,0.0,-3.6373,0.0,-3.617,-3.559,-3.5996,-3.6083,-3.5532,-3.588,-3.6083,-3.5503,-3.5938,-3.6083,-3.5561,-3.5793,-3.6083,-3.617,-3.6344,-3.6373,-3.6402,-3.6489,-3.646,-3.6548,-3.646,-3.6489,-3.6489,-3.6489,-3.646,-3.646,-3.6344,-3.6286,-3.6373,-3.6445,-3.6545,-4.1541,-4.1235,-4.0213,-3.9098,-3.8031,-3.7566,-3.7648,-3.8003,-3.7401,-3.6879,-3.6443,-3.6816,-3.7139,-3.7337,-3.7246,-3.7647,-3.8452,-3.7345,-3.7186,-3.7519,-3.5919,-3.5063,-3.4881,-3.4077,-3.3729,-3.3653,-3.3517,-3.3219,-3.2861,-3.2861,-3.2399,-3.1558,-3.1232,-3.0201,-2.8427,-2.9903,-3.0717,-3.0853,-3.0988,-3.088,-3.0391,-2.9794,-2.9414,-2.9252,-2.8383,-2.7868,-2.7705,-2.6809,-2.6131,-2.567,-2.4259,-2.3223,-2.2738,-1.9722,0.0,0.0,0.0,0.0,0.0,0.0,0.0,0.0,0.0,-2.0727,-1.704,0.0,-2.2672,0.0,-2.3688,-2.5226,-2.601,-2.6939,0.0,0.0,-3.0393,-3.1526,-3.437,-3.4574,-3.4806,-3.5735,-3.6112,-3.6489,-3.7012,-3.707,-3.7012,-3.6867,-3.6548,-3.6257,-3.6112,-3.6199,-3.6257,-3.6141,-3.6228,-3.6257,-3.6141,-3.6199,-3.6315,-3.6286,-3.6751,-3.707,-3.707,-3.7476,-3.7738,-3.7738,-3.7738,-3.7767,-3.7709,-3.7767,-3.7738,-3.768,-3.6983,-3.646,-3.6954,-3.7403,-3.792,-4.2131,-4.1791,-4.1295,-4.0838,-4.0407,-4.0041,-3.9761,-3.9564,-3.964,-3.9247,-3.8664,-3.9262,-3.9361,-3.9136,-3.9503,-3.9968,-4.0254,-3.9133,-3.8604,-3.8492,-3.6977,-3.6108,-3.5719,-3.478,-3.4275,-3.4248,-3.4005,-3.3783,-3.3485,-3.3457,-3.3159,-3.2562,-3.2562,-3.1775,-3.031,-3.1178,-3.1694,-3.1694,-3.1694,-3.1395,-3.0825,-3.0473,-2.9903,-2.9116,-2.8709,-2.8112,-2.7352,-2.6918,-2.6321,-2.5507,-2.4557,-2.3931,-2.3668,-2.1602,-2.0385,0.0,0.0,0.0,0.0,0.0,0.0,0.0,0.0,0.0,0.0,0.0,-2.5575,0.0,-2.72,-2.871,-2.9668,-3.0829,-3.2106,-3.3499,-3.3645,-3.4457,-3.6548,-3.646,-3.6532,-3.7215,-3.723,-3.7273,-3.7725,-3.7783,-3.7709,-3.7709,-3.7389,-3.7041,-3.6838,-3.6954,-3.707,-3.6809,-3.6983,-3.7157,-3.7157,-3.7157,-3.7157,-3.7186,-3.7447,-3.7709,-3.7709,-3.797,-3.8202,-3.8202,-3.8202,-3.8202,-3.8202,-3.8202,-3.8202,-3.8144,-3.7912,-3.7651,-3.768,-3.8121,-3.8817,-4.2164,-4.1699,-4.1447,-4.1736,-4.239,-4.2855,-4.2167,-4.0886,-4.1755,-4.1783,-4.1266,-4.1495,-4.1198,-4.0568,-4.1292,-4.1641,-4.152,-4.0726,-4.0009,-3.9266,-3.8294,-3.7548,-3.68,-3.5511,-3.495,-3.4923,-3.4407,-3.4059,-3.3977,-3.3977,-3.3756,-3.3186,-3.3179,-3.2806,-3.2318,-3.2209,-3.2182,-3.2182,-3.2182,-3.1911,-3.1422,-3.1341,-3.05,-2.8953,-2.9116,-2.8492,-2.6918,-2.7325,-2.6864,-2.5401,-2.5374,-2.5135,-2.4462,-2.3862,-2.3413,0.0,-2.3201,0.0,0.0,0.0,0.0,0.0,0.0,0.0,0.0,-2.7984,-2.8826,-2.9377,-3.1061,-3.26,-3.3732,-3.5328,-3.6373,-3.6548,-3.6619,-3.691,-3.7637,-3.7754,-3.8031,-3.8706,-3.8614,-3.8539,-3.8719,-3.8614,-3.8434,-3.8492,-3.8463,-3.8289,-3.7825,-3.7941,-3.7912,-3.7476,-3.7854,-3.8057,-3.8086,-3.8144,-3.8115,-3.8173,-3.8144,-3.8202,-3.8173,-3.8202,-3.8202,-3.8202,-3.8318,-3.8347,-3.8318,-3.8405,-3.8463,-3.8551,-3.8899,-3.9015,-3.8719,-3.9106,-3.9473,-4.4977,-4.48,-4.3188,-4.2372,-4.2164,-4.3735,-4.3484,-4.2004,-4.1035,-4.1084,-4.1884,-4.2654,-4.2922,-4.2924,-4.3043,-4.2842,-4.2279,-4.0795,-4.0013,-3.9749,-3.7802,-3.6824,-3.6634,-3.5899,-3.5547,-3.5547,-3.5438,-3.514,-3.4679,-3.4679,-3.4353,-3.3783,-3.3295,-3.3071,-3.2888,0.0,0.0,0.0,-3.2182,-3.2128,-3.1992,-3.1531,-3.0907,-3.0066,-2.8736,0.0,-2.6891,-2.6918,-2.6958,-2.6927,-2.7428,0.0,0.0,0.0,0.0,0.0,0.0,0.0,0.0,0.0,0.0,0.0,-2.9261,-2.8913,-2.8448,-3.1264,-3.3209,-3.3354,-3.4603,-3.5503,-3.5764,-3.6225,-3.6967,-3.8062,-3.8223,-3.8811,-3.9959,-4.0135,-4.0194,-4.0283,-4.0158,-4.0081,-4.0051,-3.9926,-3.9712,-3.9683,-3.9741,-3.9683,-3.9538,-3.8754,-3.8202,-3.8057,-3.8144,-3.8202,-3.8202,-3.8202,-3.8202,-3.8202,-3.8202,-3.8231,-3.8231,-3.826,-3.8231,-3.826,-3.8638,-3.9015,-3.9015,-3.9392,-3.9731,-3.9741,-3.9828,-3.9896,-3.9786,-4.0651,-4.1529,-4.5052,0.0,-4.3519,-4.2711,0.0,-4.3955,-4.4123,-4.3329,-4.3343,-4.3274,-4.3212,-4.4097,-4.3814,-4.2869,-4.3746,-4.3411,-4.2312,-4.1953,-4.1311,-4.0466,-3.8984,-3.8084,-3.7675,-3.6906,-3.6469,-3.6144,-3.6144,-3.5845,-3.5276,-3.5276,-3.4977,-3.4302,-3.4082,-3.3783,-3.3485,-3.2915,-3.2481,-3.2182,-3.2182,-3.2182,-3.2155,-3.1884,-3.1314,-3.0446,0.0,0.0,0.0,0.0,0.0,0.0,0.0,0.0,0.0,0.0,0.0,-2.9581,-2.9581,-2.9435,-2.9203,-3.0306,-3.1322,-3.1961,-3.2571,-3.2542,-3.1584,-3.3943,-3.5613,-3.5962,-3.6908,-3.7652,-3.8004,-3.8399,-3.8913,-3.956,-3.977,-4.0064,-4.0625,-4.0772,-4.0849,-4.0926,-4.0772,-4.0694,-4.0801,-4.0461,-4.0275,-4.0275,-4.0197,-4.0118,-4.0031,-3.9305,-3.8609,-3.826,-3.8202,-3.8202,-3.8202,-3.8202,-3.8231,-3.8231,-3.8463,-3.8667,-3.8696,-3.8957,-3.9131,-3.916,-3.9653,-4.0041,-3.9809,-4.043,-4.0914,-4.0742,-4.1133,-4.1637,-4.1879,-4.1967,-4.2145,-4.4684,-4.4499,-4.3519,-4.3067,-4.297,-4.3871,-4.4499,-4.4847,0.0,0.0,0.0,-4.5428,-4.4558,-4.2562,-4.3953,-4.3735,-4.2275,-4.2965,-4.2539,-4.1215,-4.0336,-3.9487,-3.8698,-3.7893,-3.7256,-3.6768,-3.6768,-3.6442,-3.5873,-3.5873,-3.5574,-3.5031,-3.4896,-3.4465,-3.3869,-3.3457,-3.2969,-3.2508,-3.2291,-3.2182,-3.2182,-3.2182,-3.1667,-3.0581,-3.1004,-3.0501,-2.8947,-2.9504,-2.9433,-2.8565,-2.9018,-2.961,-3.0227,-3.063,-3.1368,-3.26,-3.318,-3.3296,-3.289,-3.3935,-3.4399,-3.3993,-3.5038,-3.5473,-3.4951,-3.602,-3.7097,-3.7857,-3.8502,-3.9239,-3.9917,-4.0495,-4.0908,-4.0997,-4.1104,-4.1104,-4.1252,-4.1252,-4.1418,-4.1436,-4.1418,-4.1329,-4.162,-4.1263,-4.0969,-4.1048,-4.0871,-4.0379,-4.0234,-3.977,-3.9189,-3.8754,-3.8696,-3.8609,-3.8551,-3.8609,-3.8551,-3.8667,-3.9044,-3.9334,-3.9576,-3.9926,-4.0295,-4.0441,-4.1033,-4.1122,-4.0812,-4.1577,-4.2108,-4.1683,-4.2409,-4.3335,-4.3828,-4.3174,-4.2794,-4.6314,-4.5508,-4.4499,-4.3586,-4.297,-4.3871,-4.5207,-4.6783,-4.6411,-4.589,-4.5177,-4.602,-4.5574,-4.3975,-4.4218,-4.3918,-4.314,-4.2541,-4.2106,0.0,-4.0428,-3.9313,-3.8433,-3.7772,-3.7501,-3.7419,-3.7392,-3.7094,-3.6524,-3.6469,-3.6171,-3.5601,-3.5086,-3.4543,-3.3896,-3.3788,-3.3783,-3.3675,-3.2671,-3.2182,-3.2182,-3.2182,-3.1857,-3.1205,-3.1021,-3.0593,-2.9886,-3.0703,-3.1312,-3.1496,-3.2464,-3.2997,-3.2963,-3.297,-3.3122,-3.3325,-3.3412,-3.3674,-3.4109,-3.4835,-3.5444,-3.588,-3.6606,-3.6983,-3.6925,-3.707,-3.7798,-3.9057,-3.9367,-3.9765,-4.0536,-4.0926,-4.1377,-4.1852,-4.2067,-4.2354,-4.2753,-4.2842,-4.2812,-4.2891,-4.2793,-4.2891,-4.3301,-4.2862,-4.2624,-4.3049,-4.2505,-4.1865,-4.123,-4.0379,-3.9973,-3.9857,-3.9828,-3.9828,-3.9838,-3.9828,-3.9867,-3.9828,-3.9935,-4.0286,-4.0778,-4.1003,-4.1275,-4.1656,-4.2289,-4.2591,-4.25,-4.3106,-4.3441,-4.3425,-4.3654,-4.4022,-4.452,-4.4397,-4.4514,-4.7103,-4.655,-4.4932,-4.4031,-4.3681,-4.4684,-4.5958,-4.716,-4.7401,-4.7167,-4.6559,-4.6966,-4.6275,-4.4907,-4.5364,-4.468,-4.316,-4.3728,-4.3227,-4.1976,-4.1245,-4.0435,-3.9585,-3.8847,-3.8342,-3.8016,-3.8016,-3.7691,-3.7121,-3.6768,-3.6469,-3.6171,-3.5601,-3.5004,-3.4384,-3.4434,-3.4194,-3.3869,-3.3105,-3.2643,-3.2717,-3.2536,-3.2307,-3.2034,-3.2152,-3.2081,-3.1802,-3.219,-3.2563,-3.2698,-3.3471,-3.3779,-3.3657,-3.383,-3.4138,-3.4457,-3.4554,-3.4777,-3.5386,-3.5706,-3.617,-3.6809,-3.7128,-3.7695,-3.8439,-3.8618,-3.8956,-3.9618,-4.0465,-4.1258,-4.1662,-4.2097,-4.2425,-4.2693,-4.2832,-4.303,-4.3269,-4.3329,-4.3329,-4.3329,-4.325,-4.3299,-4.3615,-4.3615,-4.3615,-4.3974,-4.3663,-4.3356,-4.2929,-4.2473,-4.1793,-4.089,-4.0665,-4.079,-4.1097,-4.1143,-4.1143,-4.1143,-4.1471,-4.1756,-4.2152,-4.2333,-4.2727,-4.3016,-4.3563,-4.3792,-4.3625,-4.4326,-4.4662,-4.4434,-4.4692,-4.5024,-4.5321,-4.5321,-4.5468,-4.7704,-4.7246,-4.5721,-4.5024,-4.484,-4.566,-4.6579,-4.7448,-4.8324,-4.8491,-4.8028,-4.7916,-4.6863,-4.54,-4.6143,-4.5289,-4.3449,-4.4659,-4.4298,-4.2485,-4.2125,-4.1537,-4.0631,-3.9706,-3.9074,-3.8667,-3.8613,-3.8315,-3.7745,-3.7229,-3.6931,-3.6768,-3.6225,-3.5683,-3.5328,-3.5271,-3.4971,-3.4558,-3.406,-3.3629,-3.3465,-3.3221,-3.319,-3.3262,-3.3549,-3.3762,-3.3833,-3.3974,-3.3974,-3.3974,-3.4254,-3.4323,-3.4393,-3.4698,-3.5067,-3.5503,-3.5561,-3.5851,-3.646,-3.6548,-3.6896,-3.768,-3.7738,-3.8277,-3.9525,-4.0,-4.0241,-4.0436,-4.1543,-4.2294,-4.2581,-4.3,-4.3329,-4.3329,-4.3488,-4.3457,-4.3329,-4.3488,-4.3488,-4.3409,-4.3488,-4.3615,-4.3849,-4.4205,-4.451,-4.451,-4.4555,-4.4675,-4.46,-4.4327,-4.3487,-4.2515,-4.185,-4.191,-4.2379,-4.2409,-4.2409,-4.2423,-4.2804,-4.3107,-4.3381,-4.3823,-4.4144,-4.4297,-4.4706,-4.4781,-4.451,-4.5024,-4.5395,-4.5142,-4.5395,-4.5719,-4.5719,-4.5719,-4.5823,-4.8407,-4.7362,-4.7448,-4.7043,-4.6226,-4.652,-4.716,-4.7873,-4.8821,-4.9259,-4.9054,-4.8677,-4.7166,-4.5229,-4.5973,-4.5276,-4.3401,-4.4232,-4.43,-4.3378,-4.2593,-4.1682,-4.0688,-3.9733,-3.9292,-3.921,-3.9183,-3.8884,-3.8369,-3.8233,-3.7962,-3.7446,-3.6822,-3.6743,-3.6987,-3.6518,-3.6425,-3.6732,-3.6143,-3.5404,-3.4499,-3.4416,-3.4585,-3.4983,-3.4927,-3.5176,-3.5511,-3.5856,-3.597,-3.5999,-3.6012,-3.6041,-3.6041,-3.6112,-3.6141,-3.6199,-3.6228,-3.6519,-3.7157,-3.7215,-3.7738,-3.887,-3.8986,-3.9353,-4.0315,-4.1057,-4.1617,-4.1833,-4.2079,-4.2485,-4.3071,-4.3299,-4.3359,-4.3419,-4.3988,-4.4128,-4.3657,-4.3927,-4.4159,-4.3409,-4.4156,-4.4662,-4.5341,-4.5636,-4.5573,-4.5636,-4.5699,-4.5594,-4.5415,-4.5309,-4.5173,-4.4806,-4.4219,-4.3761,-4.3777,-4.3714,-4.3716,-4.37,-4.3714,-4.4052,-4.4432,-4.4613,-4.4812,-4.5173,-4.5499,-4.5499,-4.5573,-4.5823,-4.575,-4.5803,-4.5877,-4.5886,-4.5855,-4.595,-4.5981,-5.0175,-4.9189,-4.8706,-4.7662,-4.6578,-4.713,-4.7588,-4.7927,-4.8903,-4.9259,-4.9259,-4.9128,-4.8171,-4.6916,-4.7341,-4.6556,-4.5108,-4.5335,-4.4896,-4.3799,-4.3085,-4.2594,-4.2077,-4.057,-4.0076,-4.0526,-3.9721,-3.9183,-3.8912,-3.8586,-3.8184,-3.7977,-3.7648,-3.7786,-3.8196,-3.7972,-3.7746,-3.754,-3.76,-3.7175,-3.64,-3.5667,-3.5373,-3.552,-3.5711,-3.5856,-3.6101,-3.6244,-3.6286,-3.6286,-3.6286,-3.6286,-3.6286,-3.6286,-3.6489,-3.6867,-3.7244,-3.7709,-3.8376,-3.8434,-3.8812,-3.9683,-3.9741,-4.0159,-4.1116,-4.1518,-4.1942,-4.2644,-4.2783,-4.2981,-4.322,-4.3329,-4.3479,-4.3888,-4.466,-4.5202,-4.5318,-4.599,-4.6372,-4.6066,-4.6296,-4.6598,-4.7003,-4.734,-4.7773,-4.802,-4.7987,-4.7637,-4.767,-4.7558,-4.718,-4.6716,-4.6255,-4.5696,-4.5192,-4.5024,-4.5024,-4.5024,-4.5024,-4.5173,-4.5247,-4.5395,-4.5499,-4.5823,-4.5918,-4.5918,-4.575,-4.5855,-4.5886,-4.6202,-4.6834,-4.7024,-4.7056,-4.7056,-4.7056,-5.1403,-5.0715,-4.9597,-4.845,-4.7473,-4.7927,-4.8293,-4.8543,-4.9178,-4.9421,-4.9452,-4.9421,-4.9097,-4.8521,-4.8521,-4.7714,-4.639,-4.6446,-4.5832,-4.4384,-4.3717,-4.3484,-4.3255,-4.1708,-4.1279,-4.1787,-4.0669,-3.9958,-3.9853,-3.9321,-3.9084,-3.9089,-3.8811,-3.8838,-3.9222,-3.9162,-3.8932,-3.8587,-3.8875,-3.8831,-3.8208,-3.7451,-3.6847,-3.6531,-3.6547,-3.6693,-3.6809,-3.6838,-3.6838,-3.6838,-3.6809,-3.6838,-3.6838,-3.6838,-3.7128,-3.7796,-3.8376,-3.8928,-3.9421,-3.945,-3.9712,-4.0263,-4.0459,-4.0879,-4.1754,-4.206,-4.2426,-4.316,-4.3479,-4.3569,-4.3359,-4.3479,-4.3888,-4.4579,-4.5493,-4.6408,-4.6889,-4.7675,-4.8063,-4.7977,-4.785,-4.8275,-4.8528,-4.8972,-4.9398,-4.978,-4.9846,-4.9772,-4.9739,-4.9464,-4.9017,-4.8175,-4.7934,-4.7221,-4.6158,-4.5719,-4.5823,-4.5886,-4.5845,-4.5898,-4.5981,-4.6044,-4.6171,-4.6424,-4.6329,-4.6424,-4.6645,-4.6582,-4.6487,-4.6992,-4.753,-4.7877,-4.7719,-4.7877,-4.7972,-5.1769,-5.1256,-5.0036,-4.9667,-4.9661,-4.9097,-4.9259,-4.9661,-4.9852,-4.9852,-4.9821,-4.9852,-4.9501,-4.8903,-4.9097,-4.8126,-4.6491,-4.713,-4.683,-4.552,-4.4673,-4.4062,-4.3835,-4.2931,-4.2814,-4.343,-4.2162,-4.1395,-4.1339,-4.0887,-4.0859,-4.1277,-4.0237,-3.9899,-4.0228,-3.9882,-3.9642,-3.9931,-3.9981,-4.0002,-3.9894,-3.9778,-3.9141,-3.8156,-3.7767,-3.7767,-3.804,-3.8115,-3.8115,-3.8115,-3.8115,-3.8115,-3.8115,-3.8115,-3.8405,-3.9044,-3.9654,-4.0002,-4.0031,-4.006,-4.035,-4.0931,-4.1208,-4.1682,-4.2482,-4.2702,-4.3001,-4.328,-4.3978,-4.4038,-4.3708,-4.4148,-4.469,-4.5554,-4.6809,-4.7612,-4.789,-4.8721,-4.8602,-4.8371,-4.8836,-4.944,-5.0043,-5.0152,-5.0215,-5.0386,-5.0218,-5.0284,-5.0383,-5.0284,-5.001,-4.9529,-4.9044,-4.8224,-4.6389,-4.6139,-4.6076,-4.6139,-4.655,-4.6613,-4.6613,-4.6676,-4.6898,-4.7119,-4.7277,-4.7466,-4.7688,-4.7782,-4.7719,-4.7909,-4.8004,-4.8193,-4.8415,-4.8067,-4.8225,-5.3007,-5.2398,-5.1508,-5.0951,-5.0627,-5.0322,-5.0102,-4.9931,-4.99,-4.99,-4.99,-4.99,-4.9741,-4.9582,-4.9661,-4.8821,-4.7362,-4.7649,-4.7528,-4.6976,-4.6429,-4.6367,-4.6725,-4.5255,-4.4618,-4.4789,-4.3575,-4.2423,-4.171,-4.1825,-4.1795,-4.1451,-4.1083,-4.1053,-4.1357,-4.1266,-4.103,-4.0786,-4.0728,-4.0525,-4.0147,-4.0089,-3.9857,-3.945,-3.9266,-3.9266,-3.9421,-3.9421,-3.9421,-3.9421,-3.9421,-3.9421,-3.9421,-3.9392,-3.9509,-3.977,-3.9973,-4.0292,-4.067,-4.0728,-4.1018,-4.1657,-4.196,-4.2181,-4.2629,-4.293,-4.3239,-4.3898,-4.4667,-4.5057,-4.5471,-4.5654,-4.6039,-4.6916,-4.8256,-4.9437,-4.9973,-5.0652,-5.1047,-5.087,-5.1047,-5.1333,-5.1409,-5.1612,-5.1612,-5.1612,-5.1578,-5.1545,-5.1578,-5.1578,-5.1239,-5.0561,-5.0112,-4.9603,-4.8192,-4.7448,-4.7182,-4.7214,-4.7372,-4.7403,-4.7403,-4.7498,-4.7688,-4.7656,-4.794,-4.8098,-4.8193,-4.8415,-4.8478,-4.8573,-4.8667,-4.8889,-4.9205,-4.892,-4.9078,-5.3724,-5.3092,-5.2586,-5.1954,-5.1353,-5.129,-5.0911,-5.0279,-5.0247,-5.0153,-4.9963,-4.99,-4.99,-4.99,-4.99,-4.9421,-4.8573,-4.8324,-4.8072,-4.7904,-4.7533,-4.7734,-4.8095,-4.6966,-4.6471,-4.6665,-4.5675,-4.4431,-4.3423,-4.3646,-4.3495,-4.3225,-4.2948,-4.2943,-4.296,-4.2849,-4.2392,-4.1836,-4.1558,-4.1192,-4.0786,-4.0757,-4.0757,-4.0757,-4.0728,-4.0525,-4.0147,-4.0089,-4.0089,-4.0089,-4.0089,-4.0089,-4.0089,-4.0321,-4.0408,-4.0437,-4.0641,-4.0931,-4.1337,-4.1477,-4.168,-4.2117,-4.2474,-4.2747,-4.3035,-4.3307,-4.3796,-4.4599,-4.5635,-4.6498,-4.6916,-4.7621,-4.8153,-4.8514,-4.9597,-5.07,-5.141,-5.2053,-5.2269,-5.2203,-5.2203,-5.234,-5.2373,-5.234,-5.234,-5.2373,-5.2373,-5.2373,-5.2373,-5.234,-5.217,-5.1388,-5.1113,-5.0772,-4.9985,-4.9267,-4.8349,-4.8179,-4.8098,-4.8162,-4.8162,-4.8288,-4.8351,-4.8288,-4.8351,-4.8478,-4.8667,-4.8952,-4.911,-4.9205,-4.9331,-4.9521,-4.971,-4.9805,-4.9773,-5.3724,-5.3186,-5.3092,-5.2681,-5.208,-5.2017,-5.1606,-5.1037,-5.0943,-5.0563,-5.0089,-4.9963,-4.99,-4.99,-4.99,-4.9852,-4.9661,-4.9147,-4.8656,-4.8157,-4.8072,-4.8072,-4.8157,-4.8012,-4.8118,-4.8584,-4.814,-4.7459,-4.6493,-4.6062,-4.6031,-4.648,-4.5799,-4.5173,-4.4929,-4.4206,-4.3664,-4.3057,-4.2509,-4.2121,-4.2092,-4.2005,-4.1947,-4.1976,-4.1947,-4.1395,-4.0263,-4.0234,-4.0292,-4.0234,-4.0234,-4.0147,-4.035,-4.0786,-4.1105,-4.1192,-4.1686,-4.2005,-4.2034,-4.217,-4.2304,-4.2591,-4.2828,-4.3286,-4.3901,-4.4154,-4.4586,-4.5544,-4.6712,-4.7657,-4.8071,-4.961,-5.0532,-5.0228,-5.0691,-5.1484,-5.2125,-5.2373,-5.2373,-5.2373,-5.2373,-5.2373,-5.2373,-5.2373,-5.2373,-5.2373,-5.2373,-5.2373,-5.2373,-5.2373,-5.2373,-5.2236,-5.196,-5.1546,-5.1312,-5.1038,-4.9898,-4.9021,-4.8929,-4.8857,-4.8794,-4.8825,-4.9047,-4.9047,-4.9173,-4.9268,-4.9268,-4.9521,-4.9584,-4.971,-4.99,-4.99,-4.99,-4.99,-4.99,-5.3976,-5.3787,-5.3787,-5.3408,-5.2807,-5.2776,-5.2365,-5.167,-5.1195,-5.0848,-5.0595,-5.0121,-4.99,-4.99,-4.99,-4.99,-4.99,-4.9661,-4.9501,-4.9228,-4.9228,-4.9228,-4.9259,-4.9259,-4.9147,-4.8953,-4.8686,-4.8059,-4.7211,-4.7281,-4.7065,-4.6425,-4.6173,-4.589,-4.5707,-4.5027,-4.4578,-4.4377,-4.3708,-4.3195,-4.276,-4.2702,-4.2528,-4.2121,-4.2092,-4.186,-4.1512,-4.1482,-4.1482,-4.1453,-4.1482,-4.1482,-4.1512,-4.1657,-4.1773,-4.1802,-4.1976,-4.2175,-4.2339,-4.245,-4.2708,-4.3166,-4.353,-4.402,-4.4555,-4.4923,-4.5604,-4.6722,-4.7836,-4.8796,-5.0,-5.1122,-5.1598,-5.0885,-5.1525,-5.2053,-5.2302,-5.2373,-5.2373,-5.2373,-5.2373,-5.2373,-5.2373,-5.2373,-5.2373,-5.2373,-5.2373,-5.2373,-5.2373,-5.2373,-5.2373,-5.2373,-5.223,-5.2158,-5.1908,-5.1614,-5.0821,-4.9995,-4.97,-4.9441,-4.9299,-4.9331,-4.9552,-4.971,-4.9837,-4.99,-4.99,-4.99,-4.99,-4.99,-4.99,-4.99,-4.99,-4.99,-4.99,-5.4103,-5.4103,-5.4103,-5.3882,-5.3471,-5.3471,-5.306,-5.2428,-5.1954,-5.148,-5.0943,-5.0532,-5.0153,-4.9963,-4.99,-4.99,-4.99,-4.99,-4.99,-4.99,-4.99,-4.99,-4.99,-4.99,-4.9741,-4.934,-4.9309,-4.8848,-4.8152,-4.8444,-4.8306,-4.7534,-4.7472,-4.7349,-4.7053,-4.6427,-4.604,-4.5634,-4.5078,-4.4512,-4.4187,-4.3847,-4.3588,-4.3236,-4.2956,-4.2818,-4.2789,-4.2818,-4.2586,-4.2208,-4.2092,-4.2092,-4.2092,-4.2092,-4.2291,-4.2578,-4.2607,-4.2777,-4.3148,-4.3431,-4.3573,-4.4122,-4.4377,-4.481,-4.543,-4.583,-4.6762,-4.7773,-4.9048,-5.0057,-5.1005,-5.1908,-5.2053,-5.1655,-5.2053,-5.2373,-5.2373,-5.2373,-5.2373,-5.2373,-5.2373,-5.2373,-5.2373,-5.2373,-5.2373,-5.2373,-5.2373,-5.2373,-5.2373,-5.2373,-5.2373,-5.2373,-5.2373,-5.2302,-5.2373,-5.2086,-5.1688,-5.1112,-5.055,-5.0055,-4.9789,-4.9679,-4.9837,-4.9805,-4.99,-4.99,-4.99,-4.99,-4.99,-4.99,-4.99,-4.99,-4.99,-4.99,-4.99,-5.4166,-5.4134,-5.4103,-5.4071,-5.404,-5.404,-5.3692,-5.3218,-5.3028,-5.2302,-5.1385,-5.1101,-5.0658,-5.0121,-5.0089,-5.0058,-4.9931,-4.99,-4.99,-4.99,-4.99,-4.99,-4.99,-4.99,-4.9821,-4.9821,-4.9821,-4.9821,-4.9536,-4.9647,-4.9931,-4.9584,-4.9521,-4.9474,-4.8702,-4.8292,-4.7614,-4.7022,-4.6417,-4.6031,-4.591,-4.5304,-4.4911,-4.4852,-4.4147,-4.3834,-4.3805,-4.3776,-4.334,-4.2411,-4.2353,-4.2382,-4.2266,-4.2208,-4.2752,-4.3387,-4.35,-4.3847,-4.4457,-4.4596,-4.4882,-4.5,-4.5364,-4.5717,-4.6455,-4.7241,-4.8047,-4.8848,-5.0133,-5.107,-5.1359,-5.1908,-5.2302,-5.2373,-5.2373,-5.2373,-5.2373,-5.2373,-5.2373,-5.2373,-5.2373,-5.2373,-5.2373,-5.2373,-5.2373,-5.2373,-5.2373,-5.2373,-5.2373,-5.2373,-5.2373,-5.2373,-5.2373,-5.2373,-5.2373,-5.2302,-5.1941,-5.154,-5.1092,-5.0755,-5.0214,-5.0136,-4.99,-4.99,-4.9979,-4.99,-4.99,-4.99,-4.99,-4.99,-4.99,-4.99,-4.99,-4.99,-4.9979,-5.4861,-5.4798,-5.4292,-5.4103,-5.4103,-5.4103,-5.4008,-5.3787,-5.3313,-5.2902,-5.246,-5.1954,-5.1353,-5.0753,-5.069,-5.0437,-5.0058,-4.9963,-4.99,-4.99,-4.99,-4.99,-4.99,-4.99,-4.99,-4.99,-4.99,-4.99,-4.99,-4.99,-4.99,-4.99,-4.99,-4.9837,-4.9568,-4.8948,-4.8643,-4.8295,-4.769,-4.7167,-4.672,-4.6077,-4.5471,-4.4971,-4.4438,-4.4123,-4.4008,-4.4008,-4.3892,-4.3573,-4.3485,-4.3515,-4.3427,-4.3568,-4.3826,-4.4086,-4.4314,-4.4541,-4.4887,-4.503,-4.5322,-4.5908,-4.6576,-4.7262,-4.7904,-4.8755,-4.9568,-5.0306,-5.0951,-5.1359,-5.1908,-5.223,-5.2373,-5.2373,-5.2373,-5.2373,-5.2373,-5.2373,-5.2373,-5.2373,-5.2373,-5.2373,-5.2373,-5.2373,-5.2373,-5.2373,-5.2373,-5.2373,-5.2373,-5.2373,-5.2373,-5.2373,-5.2373,-5.2373,-5.2373,-5.2302,-5.2158,-5.1868,-5.154,-5.1359,-5.0832,-5.0525,-5.0214,-5.001,-5.0136,-5.0136,-4.9979,-4.99,-4.99,-5.0136,-5.0136,-5.0292,-5.0058,-4.99,-5.0058,-5.5557,-5.5525,-5.483,-5.4514,-5.4482,-5.4229,-5.4103,-5.404,-5.3692,-5.3344,-5.306,-5.2681,-5.208,-5.1448,-5.1385,-5.1006,-5.0405,-5.0374,-5.0216,-4.99,-4.99,-4.99,-4.99,-4.99,-4.99,-4.99,-4.99,-4.99,-4.99,-4.99,-4.99,-4.99,-4.99,-4.99,-4.9868,-4.9582,-4.9309,-4.9228,-4.8903,-4.8522,-4.8183,-4.7577,-4.7061,-4.6531,-4.5998,-4.5602,-4.5602,-4.543,-4.5052,-4.4383,-4.4122,-4.4151,-4.4323,-4.4408,-4.4611,-4.4902,-4.5132,-4.5421,-4.5913,-4.6281,-4.6545,-4.696,-4.7742,-4.8388,-4.8779,-4.9599,-5.0615,-5.0951,-5.1359,-5.1908,-5.223,-5.2373,-5.2373,-5.2373,-5.2373,-5.2373,-5.2373,-5.2373,-5.2373,-5.2373,-5.2373,-5.2373,-5.2373,-5.2373,-5.2373,-5.2373,-5.2373,-5.2373,-5.2373,-5.2373,-5.2373,-5.2373,-5.2373,-5.2445,-5.2445,-5.2373,-5.2373,-5.2086,-5.2053,-5.1802,-5.1285,-5.0876,-5.0679,-5.0448,-5.0448,-5.0448,-5.057,-5.0615,-5.0767,-5.0919,-5.08,-5.0647,-5.057,-5.0493,-5.0493,-5.6283,-5.622,-5.5525,-5.5177,-5.5019,-5.4482,-5.4198,-5.4103,-5.404,-5.3755,-5.3344,-5.3218,-5.2807,-5.2144,-5.2112,-5.1733,-5.1069,-5.1069,-5.0627,-5.0247,-4.9995,-4.99,-4.99,-4.99,-4.99,-4.99,-4.99,-4.99,-4.99,-4.99,-4.99,-4.99,-4.99,-4.99,-4.99,-4.9821,-4.99,-4.9821,-4.9741,-4.963,-4.9456,-4.8942,-4.844,-4.8327,-4.7714,-4.7576,-4.7552,-4.7352,-4.6565,-4.4955,-4.467,-4.4817,-4.4958,-4.4984,-4.5476,-4.6147,-4.6551,-4.693,-4.7498,-4.811,-4.8285,-4.8095,-4.9103,-4.9678,-4.9519,-5.0384,-5.1252,-5.1359,-5.198,-5.2302,-5.2373,-5.2373,-5.2373,-5.2373,-5.2373,-5.2373,-5.2373,-5.2373,-5.2373,-5.2373,-5.2373,-5.2373,-5.2373,-5.2373,-5.2373,-5.2373,-5.2373,-5.2373,-5.2373,-5.2373,-5.2373,-5.2373,-5.2445,-5.2445,-5.2445,-5.2445,-5.2445,-5.2302,-5.2483,-5.2307,-5.1623,-5.1252,-5.1177,-5.1102,-5.1145,-5.141,-5.1704,-5.1776,-5.1704,-5.1557,-5.141,-5.1443,-5.1443,-5.1484,-5.1484,-5.6979,-5.6915,-5.6252,-5.5651,-5.5177,-5.4956,-5.4609,-5.4134,-5.4134,-5.404,-5.3882,-5.3882,-5.3471,-5.287,-5.2839,-5.246,-5.1828,-5.1733,-5.1417,-5.0753,-5.0121,-4.9963,-4.9963,-4.9995,-4.9931,-4.9931,-4.99,-4.99,-4.99,-4.99,-4.99,-4.99,-4.99,-4.99,-4.99,-4.99,-4.99,-4.99,-4.99,-4.99,-4.9821,-4.9309,-4.8984,-4.8984,-4.8407,-4.821,-4.8346,-4.8263,-4.8275,-4.7978,-4.6996,-4.6251,-4.6423,-4.6936,-4.7418,-4.776,-4.843,-4.901,-4.9247,-4.9358,-4.9487,-4.9278,-5.0073,-5.0723,-5.0723,-5.1434,-5.2053,-5.2125,-5.2302,-5.2373,-5.2373,-5.2373,-5.2373,-5.2373,-5.2373,-5.2407,-5.2373,-5.2373,-5.2373,-5.2373,-5.2373,-5.2373,-5.2373,-5.2373,-5.2373,-5.2373,-5.2373,-5.2373,-5.2373,-5.2373,-5.2445,-5.2516,-5.2553,-5.2624,-5.287,-5.287,-5.2834,-5.2764,-5.287,-5.3043,-5.2383,-5.2026,-5.2098,-5.2098,-5.1993,-5.2316,-5.2667,-5.2527,-5.242,-5.2279,-5.2137,-5.2208,-5.235,-5.2387,-5.2387,-5.7706,-5.7642,-5.6947,-5.6441,-5.6094,-5.5746,-5.5241,-5.4672,-5.4577,-5.4387,-5.4134,-5.4103,-5.3967,-5.3935,-5.3871,-5.349,-5.2771,-5.2226,-5.1828,-5.1448,-5.1069,-5.0943,-5.0785,-5.0532,-5.0279,-4.9995,-4.99,-4.99,-4.99,-4.99,-4.99,-4.99,-4.99,-4.99,-4.99,-4.99,-4.99,-4.99,-4.99,-4.99,-4.9821,-4.9582,-4.947,-4.963,-4.9309,-4.9278,-4.9726,-4.9567,-4.9647,-4.9567,-4.8759,-4.8126,-4.8126,-4.8594,-4.8922,-4.9085,-4.9407,-4.9805,-4.9805,-5.0151,-5.0229,-4.9884,-5.0919,-5.1252,-5.1434,-5.1908,-5.2373,-5.2373,-5.2373,-5.2373,-5.2373,-5.2373,-5.2373,-5.2373,-5.2407,-5.2506,-5.2738,-5.2572,-5.2373,-5.2373,-5.2373,-5.2373,-5.2373,-5.2373,-5.2373,-5.2373,-5.2373,-5.2373,-5.2373,-5.2445,-5.2624,-5.2694,-5.2731,-5.2939,-5.3315,-5.3382,-5.3349,-5.3349,-5.3449,-5.3715,-5.3615,-5.3415,-5.3315,-5.3213,-5.3044,-5.3382,-5.3647,-5.3382,-5.3247,-5.3247,-5.3247,-5.318,-5.3315,-5.3515,-5.3382,-5.8367,-5.8303,-5.7702,-5.7417,-5.7317,-5.6836,-5.6201,-5.5597,-5.5447,-5.5271,-5.4613,-5.4401,-5.474,-5.4832,-5.48,-5.4448,-5.3821,-5.3018,-5.2536,-5.2472,-5.2218,-5.2009,-5.1914,-5.1452,-5.0992,-5.0247,-4.9995,-4.9931,-4.99,-4.99,-4.9979,-4.9979,-4.9979,-5.0136,-5.0136,-5.0058,-5.0136,-5.0214,-5.0214,-5.0214,-5.0214,-5.0136,-5.0292,-5.0416,-5.0416,-5.057,-5.0876,-5.08,-5.0723,-5.08,-5.0384,-5.0229,-5.0119,-5.0041,-4.9962,-4.9962,-5.0197,-5.0461,-5.0615,-5.0951,-5.1027,-5.0306,-5.1434,-5.198,-5.1729,-5.198,-5.2302,-5.244,-5.2506,-5.2638,-5.2539,-5.2837,-5.2837,-5.2804,-5.2771,-5.3003,-5.3301,-5.3036,-5.287,-5.2572,-5.2473,-5.2373,-5.2373,-5.2373,-5.2373,-5.2407,-5.2478,-5.2478,-5.2582,-5.262,-5.2867,-5.3076,-5.3213,-5.3247,-5.3583,-5.3977,-5.3847,-5.3781,-5.3912,-5.4171,-5.4488,-5.4425,-5.4235,-5.4136,-5.4136,-5.4362,-5.4488,-5.4362,-5.4299,-5.4299,-5.42,-5.4136,-5.4264,-5.4614,-5.4264,-5.855,-5.8882,-5.8786,-5.855,-5.8388,-5.8194,-5.7743,-5.7248,-5.7098,-5.6796,-5.6099,-5.6034,-5.5679,-5.5489,-5.5328,-5.5231,-5.4826,-5.4229,-5.3858,-5.3761,-5.3407,-5.307,-5.2748,-5.2556,-5.214,-5.1435,-5.077,-5.0169,-5.0058,-4.99,-5.039,-5.0466,-5.0498,-5.0653,-5.0852,-5.0908,-5.0896,-5.0755,-5.0755,-5.0723,-5.0723,-5.08,-5.0832,-5.0951,-5.1059,-5.121,-5.154,-5.1614,-5.1762,-5.2053,-5.198,-5.1908,-5.1688,-5.121,-5.0984,-5.1027,-5.1401,-5.1655,-5.1729,-5.2013,-5.2158,-5.2053,-5.2362,-5.2506,-5.2329,-5.2401,-5.2638,-5.2705,-5.3003,-5.3235,-5.3268,-5.3632,-5.4063,-5.4096,-5.403,-5.4096,-5.4229,-5.4096,-5.3831,-5.3467,-5.2937,-5.2539,-5.2738,-5.2909,-5.3014,-5.3152,-5.319,-5.3335,-5.3478,-5.3481,-5.3483,-5.3652,-5.3781,-5.3781,-5.3847,-5.4235,-5.4425,-5.4235,-5.4299,-5.4523,-5.4834,-5.5174,-5.5113,-5.4834,-5.4772,-5.4834,-5.4957,-5.5053,-5.4992,-5.4772,-5.4834,-5.4957,-5.4957,-5.4957,-5.4896,-5.9152,-5.9331,-5.9331,-5.9314,-5.9166,-5.9134,-5.8745,-5.813,-5.8065,-5.7676,-5.7093,-5.6672,-5.6481,-5.6173,-5.5864,-5.5733,-5.5636,-5.5199,-5.4891,-5.4794,-5.4567,-5.4293,-5.4003,-5.3777,-5.3455,-5.3005,-5.2236,-5.1534,-5.1407,-5.1645,-5.1627,-5.188,-5.1926,-5.1888,-5.1674,-5.1641,-5.1459,-5.1264,-5.1135,-5.1135,-5.1135,-5.1135,-5.121,-5.1434,-5.1508,-5.1688,-5.2013,-5.2086,-5.2158,-5.2302,-5.2373,-5.2373,-5.2401,-5.2382,-5.2122,-5.1933,-5.2191,-5.2407,-5.2473,-5.2638,-5.2937,-5.297,-5.3202,-5.3467,-5.35,-5.3533,-5.34,-5.3533,-5.3665,-5.3997,-5.3997,-5.4361,-5.446,-5.4527,-5.456,-5.4759,-5.4891,-5.4725,-5.4593,-5.4427,-5.4063,-5.3765,-5.3632,-5.3705,-5.3751,-5.3756,-5.3833,-5.4188,-5.45,-5.4533,-5.4498,-5.4689,-5.4879,-5.4834,-5.4868,-5.5057,-5.5278,-5.5085,-5.4988,-5.5174,-5.5323,-5.5609,-5.5589,-5.5294,-5.5234,-5.5453,-5.5269,-5.5329,-5.5269,-5.5234,-5.5234,-5.5234,-5.5234,-5.5269,-5.5209,-5.9902,-5.9827,-5.9859,-5.9859,-5.9946,-6.0033,-5.9707,-5.9133,-5.9154,-5.8763,-5.8079,-5.7558,-5.7299,-5.7084,-5.6639,-5.6244,-5.6165,-5.5781,-5.5668,-5.5636,-5.5603,-5.5588,-5.5377,-5.5085,-5.4648,-5.439,-5.4161,-5.3452,-5.2748,-5.2842,-5.3207,-5.3266,-5.3363,-5.3278,-5.2834,-5.278,-5.2205,-5.1977,-5.1782,-5.175,-5.1587,-5.1554,-5.1638,-5.1868,-5.1941,-5.2086,-5.2302,-5.2534,-5.2567,-5.2738,-5.2804,-5.287,-5.2904,-5.3334,-5.3367,-5.2904,-5.2804,-5.2804,-5.297,-5.3268,-5.3632,-5.3665,-5.4162,-5.4394,-5.446,-5.4295,-5.4394,-5.4527,-5.4692,-5.4725,-5.4759,-5.4891,-5.5024,-5.5057,-5.5123,-5.5156,-5.5521,-5.5587,-5.5521,-5.5322,-5.5123,-5.4792,-5.4501,-5.4528,-5.4506,-5.4686,-5.4794,-5.5383,-5.5653,-5.5889,-5.5985,-5.6125,-5.6168,-5.6108,-5.6073,-5.6082,-5.6274,-5.6283,-5.6187,-5.6248,-5.623,-5.6185,-5.6139,-5.6115,-5.6185,-5.63,-5.5999,-5.5543,-5.5448,-5.5389,-5.5448,-5.5448,-5.5389,-5.5459,-5.5494,-6.0532,-6.0292,-6.0325,-6.0581,-6.0835,-6.0835,-6.0886,-6.0787,-6.0637,-6.039,-5.9614,-5.9498,-5.8771,-5.7813,-5.7066,-5.6702,-5.6669,-5.6624,-5.6435,-5.6402,-5.6369,-5.6211,-5.6053,-5.5974,-5.5585,-5.544,-5.5567,-5.4724,-5.3948,-5.3577,-5.3604,-5.3901,-5.412,-5.3934,-5.4128,-5.402,-5.4212,-5.408,-5.394,-5.3643,-5.3148,-5.3049,-5.2858,-5.2494,-5.2434,-5.25,-5.2705,-5.3069,-5.3301,-5.3367,-5.3897,-5.4195,-5.4295,-5.4328,-5.4361,-5.4295,-5.4262,-5.4262,-5.4162,-5.4295,-5.4394,-5.4394,-5.4626,-5.456,-5.4759,-5.4759,-5.4759,-5.456,-5.509,-5.5454,-5.5587,-5.6017,-5.6316,-5.6282,-5.6117,-5.6293,-5.6492,-5.6421,-5.6345,-5.6529,-5.6412,-5.5655,-5.5114,-5.5247,-5.5333,-5.5545,-5.5858,-5.6405,-5.684,-5.7109,-5.7205,-5.7276,-5.7079,-5.6921,-5.6877,-5.6982,-5.7052,-5.7193,-5.7193,-5.7193,-5.7052,-5.6947,-5.7263,-5.7298,-5.7298,-5.6947,-5.6385,-5.5964,-5.5683,-5.5718,-5.5964,-5.5788,-5.5507,-5.5648,-5.5939,-6.2311,-6.1396,-6.1,-6.0919,-6.1119,-6.1119,-6.1119,-6.1119,-6.1119,-6.092,-6.0589,-6.0158,-5.9396,-5.8469,-5.8038,-5.7707,-5.7409,-5.7309,-5.7044,-5.6812,-5.6746,-5.6636,-5.6447,-5.6447,-5.629,-5.6277,-5.629,-5.6138,-5.5357,-5.5181,-5.5336,-5.538,-5.5424,-5.5292,-5.5189,-5.5123,-5.4858,-5.4551,-5.446,-5.4361,-5.4129,-5.403,-5.3897,-5.3599,-5.3566,-5.3533,-5.3632,-5.3798,-5.403,-5.4096,-5.4427,-5.4494,-5.4659,-5.4858,-5.5156,-5.5156,-5.5554,-5.5322,-5.4692,-5.4957,-5.509,-5.5289,-5.5454,-5.5786,-5.5719,-5.5686,-5.5686,-5.5786,-5.6017,-5.6183,-5.6183,-5.6514,-5.6614,-5.6713,-5.7,-5.7153,-5.7196,-5.7214,-5.723,-5.7446,-5.7594,-5.6875,-5.6398,-5.6516,-5.6806,-5.7087,-5.7501,-5.8077,-5.8337,-5.8427,-5.845,-5.8367,-5.8008,-5.7614,-5.7544,-5.7544,-5.7579,-5.7649,-5.7649,-5.7649,-5.7649,-5.7719,-5.8035,-5.7965,-5.7684,-5.7263,-5.6806,-5.6701,-5.6666,-5.6596,-5.6526,-5.6455,-5.6455,-5.6806,-5.7062,-6.3736,-6.2643,-6.1748,-6.1384,-6.1351,-6.1185,-6.1119,-6.1119,-6.1119,-6.1119,-6.092,-6.0357,-5.9694,-5.9198,-5.8899,-5.8469,-5.8104,-5.8071,-5.774,-5.7376,-5.721,-5.721,-5.7111,-5.7011,-5.7011,-5.6945,-5.7,-5.69,-5.6978,-5.6879,-5.6702,-5.6713,-5.6371,-5.6316,-5.6017,-5.5852,-5.5653,-5.5289,-5.5222,-5.5057,-5.4858,-5.4792,-5.4659,-5.4527,-5.4527,-5.4527,-5.4527,-5.4759,-5.4792,-5.4825,-5.509,-5.5256,-5.5322,-5.5653,-5.5885,-5.5951,-5.6282,-5.6117,-5.562,-5.562,-5.5852,-5.6051,-5.6249,-5.6481,-5.6547,-5.668,-5.668,-5.6514,-5.6547,-5.6614,-5.679,-5.6967,-5.7199,-5.7453,-5.763,-5.7792,-5.8126,-5.8376,-5.8423,-5.8395,-5.8506,-5.8413,-5.8001,-5.8035,-5.8249,-5.8564,-5.9114,-5.9617,-5.9569,-5.9411,-5.9369,-5.9194,-5.9018,-5.8632,-5.8597,-5.8457,-5.8386,-5.8246,-5.8246,-5.8351,-5.8527,-5.8597,-5.8773,-5.8562,-5.8281,-5.8141,-5.8,-5.7825,-5.7649,-5.7368,-5.7193,-5.7474,-5.7649,-5.793,-5.8105,-6.4332,-6.41,-6.2709,-6.208,-6.2013,-6.1384,-6.1119,-6.1119,-6.1119,-6.1119,-6.102,-6.039,-6.0059,-5.9827,-5.9396,-5.9065,-5.8833,-5.88,-5.8668,-5.8634,-5.8701,-5.8204,-5.7906,-5.7707,-5.7707,-5.7707,-5.7707,-5.7707,-5.7707,-5.7707,-5.7309,-5.6812,-5.6812,-5.668,-5.6547,-5.6415,-5.6415,-5.6183,-5.6216,-5.5984,-5.5686,-5.5487,-5.5256,-5.4792,-5.4593,-5.4527,-5.4593,-5.5222,-5.5554,-5.5554,-5.5951,-5.6216,-5.6183,-5.6349,-5.6448,-5.6647,-5.6713,-5.6713,-5.6647,-5.6448,-5.6514,-5.6614,-5.6779,-5.6945,-5.6879,-5.6779,-5.6746,-5.6945,-5.7144,-5.7056,-5.731,-5.7673,-5.8074,-5.8437,-5.8833,-5.9268,-5.9667,-5.995,-5.9959,-5.9583,-5.9521,-5.9596,-5.9633,-5.9633,-5.8874,-5.9081,-5.9418,-5.9879,-5.9943,-5.9861,-5.9896,-5.9861,-5.9896,-5.9791,-5.9826,-5.965,-5.9299,-5.9229,-5.9264,-5.944,-5.9685,-5.9685,-5.9405,-5.9475,-5.9264,-5.9229,-5.9089,-5.8737,-5.8386,-5.7965,-5.7895,-5.8316,-5.8527,-5.8667,-5.8808,-6.5028,-6.4929,-6.3935,-6.3007,-6.2146,-6.1881,-6.1516,-6.1152,-6.1119,-6.1119,-6.1086,-6.0821,-6.0688,-6.0556,-6.0423,-5.9993,-5.9628,-5.9562,-5.933,-5.8999,-5.8833,-5.8701,-5.8469,-5.8469,-5.8469,-5.8469,-5.8469,-5.8469,-5.8469,-5.8469,-5.8369,-5.7939,-5.721,-5.6746,-5.668,-5.6846,-5.6779,-5.6746,-5.6713,-5.6514,-5.6415,-5.6282,-5.6117,-5.5918,-5.5852,-5.5852,-5.5918,-5.6117,-5.6249,-5.6349,-5.6581,-5.6713,-5.6812,-5.6779,-5.7011,-5.7309,-5.7342,-5.7541,-5.7674,-5.7276,-5.6713,-5.6912,-5.7409,-5.7839,-5.7475,-5.7707,-5.7972,-5.8071,-5.8051,-5.8075,-5.8696,-5.9093,-5.9371,-5.9708,-6.0177,-6.0818,-6.1067,-6.1421,-6.1429,-6.105,-6.1224,-6.1359,-6.1322,-6.1218,-6.0284,-5.9627,-5.9919,-6.0142,-6.0282,-6.0317,-6.0388,-6.0317,-6.0317,-6.0142,-6.0107,-6.0107,-6.0107,-6.0072,-6.0072,-6.0072,-6.0072,-6.0072,-5.9861,-6.0072,-6.0072,-5.9791,-5.9545,-5.9405,-5.9089,-5.8702,-5.8878,-5.9334,-5.944,-5.9405,-5.944,-6.5425,-6.5359,-6.4895,-6.3968,-6.2842,-6.2378,-6.1881,-6.145,-6.1185,-6.1119,-6.1119,-6.1119,-6.1119,-6.1119,-6.1053,-6.0854,-6.0423,-6.0291,-6.0026,-5.9827,-5.9694,-5.9429,-5.9297,-5.9231,-5.9231,-5.9231,-5.9231,-5.9231,-5.9231,-5.9231,-5.8999,-5.8535,-5.7939,-5.7541,-5.7442,-5.7342,-5.7342,-5.7342,-5.7111,-5.7044,-5.7011,-5.6746,-5.6647,-5.6581,-5.6547,-5.6547,-5.6514,-5.6547,-5.6581,-5.6713,-5.6879,-5.7011,-5.7111,-5.7243,-5.7608,-5.7939,-5.8204,-5.8403,-5.8436,-5.8104,-5.7376,-5.7674,-5.8171,-5.8436,-5.8436,-5.8761,-5.8997,-5.9131,-5.9243,-5.9655,-6.0148,-6.0408,-6.0653,-6.0978,-6.1975,-6.261,-6.2504,-6.2681,-6.2649,-6.2608,-6.2606,-6.2501,-6.2115,-6.194,-6.1562,-6.0869,-6.1033,-6.1195,-6.1195,-6.1125,-6.0949,-6.0809,-6.0633,-6.0388,-6.0142,-6.0177,-6.0212,-6.0072,-6.0072,-6.0072,-6.0072,-6.0107,-6.0107,-6.0072,-6.0072,-6.0072,-5.9966,-5.9756,-5.958,-5.9405,-5.965,-5.9826,-5.9861,-5.9756,-5.9861,-6.5425,-6.5425,-6.5359,-6.4929,-6.41,-6.2775,-6.2212,-6.2047,-6.1483,-6.1152,-6.1119,-6.1119,-6.1119,-6.1119,-6.1119,-6.102,-6.0986,-6.0953,-6.0887,-6.0755,-6.0589,-6.0456,-6.0191,-5.996,-5.9993,-5.9993,-5.9993,-5.9993,-5.9993,-5.9993,-5.9661,-5.933,-5.8999,-5.8734,-5.88,-5.88,-5.88,-5.8701,-5.8038,-5.7839,-5.7641,-5.7276,-5.7077,-5.7044,-5.7077,-5.7144,-5.7144,-5.7144,-5.7177,-5.7177,-5.7574,-5.774,-5.7773,-5.827,-5.8634,-5.8833,-5.8866,-5.8933,-5.8933,-5.8866,-5.8767,-5.8668,-5.8999,-5.9179,-5.9093,-5.9443,-6.0001,-6.0348,-6.0495,-6.0734,-6.1238,-6.1731,-6.1968,-6.2461,-6.3484,-6.3834,-6.3694,-6.3694,-6.3657,-6.355,-6.3512,-6.3337,-6.281,-6.2494,-6.2564,-6.2357,-6.2354,-6.2248,-6.2073,-6.1862,-6.1581,-6.1441,-6.123,-6.109,-6.0844,-6.0458,-6.0317,-6.0177,-6.0212,-6.0352,-6.0282,-6.0177,-6.0177,-6.0142,-6.0072,-6.0072,-6.0072,-6.0036,-5.9896,-5.9756,-5.9896,-6.0036,-6.0072,-6.0107,-6.0107,-6.5425,-6.5425,-6.5425,-6.5293,-6.4929,-6.4067,-6.3372,-6.2842,-6.2146,-6.155,-6.1152,-6.1119,-6.1119,-6.1119,-6.1119,-6.1119,-6.1119,-6.1119,-6.1119,-6.1119,-6.1119,-6.0986,-6.0755,-6.0705,-6.0771,-6.0721,-6.0755,-6.0771,-6.0755,-6.0655,-6.0622,-6.039,-6.0092,-5.9794,-5.9164,-5.8899,-5.8899,-5.8866,-5.8634,-5.8502,-5.8502,-5.8237,-5.8071,-5.8038,-5.8038,-5.8005,-5.8005,-5.7972,-5.7972,-5.8005,-5.8403,-5.8502,-5.8535,-5.8966,-5.9198,-5.9496,-5.9661,-5.9893,-6.0158,-6.0291,-5.9827,-5.9595,-5.9809,-6.017,-6.0336,-6.0897,-6.1312,-6.1698,-6.1941,-6.2272,-6.2875,-6.3055,-6.3335,-6.3798,-6.4428,-6.4428,-6.4393,-6.4428,-6.4425,-6.4355,-6.4285,-6.4214,-6.3828,-6.3477,-6.3407,-6.3231,-6.3126,-6.274,-6.2494,-6.2319,-6.2108,-6.2108,-6.1967,-6.1862,-6.1652,-6.1265,-6.1195,-6.13,-6.109,-6.0984,-6.0774,-6.0598,-6.0388,-6.0458,-6.0247,-6.0107,-6.0352,-6.0493,-6.0177,-6.0072,-6.0352,-6.0352,-6.0282,-6.0212,-6.0107,-6.5425,-6.5425,-6.5658,-6.5746,-6.5646,-6.4752,-6.3968,-6.3272,-6.2742,-6.2146,-6.1616,-6.1483,-6.1318,-6.1185,-6.1119,-6.1119,-6.1119,-6.1119,-6.1119,-6.1119,-6.1301,-6.135,-6.1432,-6.1662,-6.177,-6.1628,-6.1499,-6.1383,-6.1432,-6.1169,-6.102,-6.0986,-6.1086,-6.0556,-5.996,-5.9794,-5.9794,-5.9728,-5.9562,-5.9264,-5.9198,-5.9032,-5.8833,-5.88,-5.88,-5.8833,-5.8866,-5.8899,-5.8933,-5.8999,-5.9131,-5.9264,-5.9297,-5.9562,-5.986,-6.0258,-6.0423,-6.0705,-6.1183,-6.1365,-6.0879,-6.0729,-6.1146,-6.1327,-6.147,-6.2063,-6.2616,-6.3021,-6.3383,-6.3677,-6.3967,-6.4145,-6.4392,-6.4777,-6.4846,-6.4846,-6.4846,-6.4846,-6.4846,-6.4811,-6.4776,-6.4776,-6.4706,-6.4636,-6.439,-6.4144,-6.3863,-6.3442,-6.3056,-6.3021,-6.288,-6.281,-6.2705,-6.2564,-6.2389,-6.2108,-6.2143,-6.2354,-6.2073,-6.1722,-6.1616,-6.1441,-6.109,-6.0879,-6.1055,-6.1125,-6.102,-6.0949,-6.0984,-6.0984,-6.1125,-6.0984,-6.0598,-6.0598,-6.0668,-6.5425,-6.5481,-6.6062,-6.6287,-6.6186,-6.5167,-6.4208,-6.3425,-6.3305,-6.2908,-6.2212,-6.2212,-6.1947,-6.1384,-6.1285,-6.1434,-6.1584,-6.1551,-6.1634,-6.1765,-6.2307,-6.23,-6.2471,-6.2741,-6.2785,-6.2649,-6.2459,-6.2199,-6.2064,-6.1547,-6.1252,-6.1119,-6.1119,-6.097,-6.087,-6.0886,-6.0886,-6.0605,-6.0291,-6.0059,-5.996,-5.9529,-5.9396,-5.9363,-5.9363,-5.9363,-5.9363,-5.933,-5.9264,-5.9396,-5.9694,-5.9926,-6.0258,-6.0721,-6.0953,-6.1136,-6.1185,-6.1561,-6.1917,-6.203,-6.237,-6.23,-6.2493,-6.2336,-6.2358,-6.3083,-6.3595,-6.4031,-6.4389,-6.4533,-6.4812,-6.4848,-6.4988,-6.5127,-6.5092,-6.5092,-6.5057,-6.5022,-6.5022,-6.4987,-6.4987,-6.4917,-6.4741,-6.4706,-6.4706,-6.4566,-6.432,-6.4285,-6.4004,-6.4109,-6.3934,-6.3618,-6.3477,-6.3267,-6.3091,-6.2986,-6.3056,-6.3267,-6.281,-6.2424,-6.2389,-6.2248,-6.1862,-6.1757,-6.2108,-6.2143,-6.1792,-6.1827,-6.2073,-6.2108,-6.1967,-6.1792,-6.1476,-6.1687,-6.1827,-6.5425,-6.5392,-6.557,-6.5975,-6.6372,-6.6542,-6.5834,-6.4774,-6.4261,-6.367,-6.2974,-6.2974,-6.2861,-6.2643,-6.2643,-6.2915,-6.3133,-6.3415,-6.3741,-6.3882,-6.3872,-6.3859,-6.3869,-6.4059,-6.3863,-6.3444,-6.3188,-6.3281,-6.2717,-6.2064,-6.1483,-6.1169,-6.1401,-6.155,-6.1728,-6.179,-6.1565,-6.1334,-6.1052,-6.0886,-6.0853,-6.0554,-6.0421,-6.0421,-6.034,-6.034,-6.034,-6.0291,-6.0324,-6.049,-6.0622,-6.0788,-6.0854,-6.1365,-6.1837,-6.2313,-6.2358,-6.2547,-6.2693,-6.3212,-6.364,-6.405,-6.4324,-6.4174,-6.3974,-6.4092,-6.463,-6.4986,-6.5408,-6.5689,-6.5724,-6.5759,-6.59,-6.5935,-6.5935,-6.59,-6.59,-6.5865,-6.5865,-6.6181,-6.611,-6.5408,-6.5198,-6.4706,-6.4706,-6.4706,-6.4706,-6.4706,-6.4706,-6.4706,-6.4636,-6.4285,-6.4144,-6.3898,-6.4074,-6.4074,-6.4109,-6.4074,-6.3583,-6.3196,-6.3126,-6.2951,-6.2564,-6.2564,-6.281,-6.267,-6.2319,-6.2529,-6.288,-6.2775,-6.2635,-6.2494,-6.2459,-6.267,-6.274,-6.5658,-6.5425,-6.5658,-6.632,-6.7161,-6.765,-6.7261,-6.6432,-6.5597,-6.4714,-6.3856,-6.3736,-6.371,-6.36,-6.3651,-6.3869,-6.4491,-6.4424,-6.4699,-6.4824,-6.5534,-6.5199,-6.5241,-6.5497,-6.5412,-6.4882,-6.4628,-6.4683,-6.3939,-6.3317,-6.2695,-6.2892,-6.258,-6.2676,-6.318,-6.3408,-6.318,-6.2737,-6.2273,-6.1891,-6.1823,-6.1857,-6.179,-6.1776,-6.1728,-6.1565,-6.1483,-6.1401,-6.1318,-6.1417,-6.1499,-6.1628,-6.1676,-6.2234,-6.2741,-6.3196,-6.3333,-6.3726,-6.4229,-6.4614,-6.4973,-6.5337,-6.5982,-6.5816,-6.5607,-6.5648,-6.5722,-6.5864,-6.6426,-6.6848,-6.6742,-6.6707,-6.6813,-6.6918,-6.6918,-6.6953,-6.6918,-6.6883,-6.7199,-6.762,-6.7199,-6.6356,-6.5724,-6.5162,-6.4706,-6.4706,-6.4706,-6.4706,-6.4706,-6.4706,-6.4706,-6.453,-6.4566,-6.453,-6.4706,-6.4706,-6.4566,-6.446,-6.432,-6.4004,-6.3898,-6.3793,-6.3583,-6.3477,-6.3442,-6.3302,-6.3231,-6.3372,-6.3583,-6.3477,-6.3477,-6.3512,-6.3547,-6.3618,-6.3618,-6.6062,-6.557,-6.6235,-6.7243,-6.8319,-6.8397,-6.8362,-6.8241,-6.701,-6.5865,-6.4847,-6.4607,-6.4619,-6.479,-6.4772,-6.5149,-6.5585,-6.5857,-6.597,-6.5593,-6.6485,-6.6607,-6.6582,-6.684,-6.6767,-6.677,-6.6555,-6.5971,-6.5669,-6.4923,-6.4506,-6.5118,-6.4424,-6.4335,-6.4742,-6.4855,-6.4786,-6.4804,-6.4034,-6.3521,-6.3188,-6.3128,-6.3102,-6.3051,-6.2696,-6.238,-6.2186,-6.1991,-6.1665,-6.2119,-6.2392,-6.2696,-6.3119,-6.3307,-6.3837,-6.4195,-6.4553,-6.5054,-6.5625,-6.6081,-6.6442,-6.6805,-6.7164,-6.7232,-6.7195,-6.6843,-6.6847,-6.6706,-6.7164,-6.7445,-6.7445,-6.762,-6.7796,-6.7831,-6.7831,-6.7831,-6.7831,-6.7936,-6.8287,-6.8603,-6.8392,-6.755,-6.6848,-6.6356,-6.59,-6.5338,-6.4952,-6.4952,-6.4952,-6.4952,-6.4846,-6.4846,-6.4706,-6.4706,-6.4706,-6.4706,-6.4706,-6.4671,-6.4636,-6.4601,-6.4355,-6.446,-6.4671,-6.4355,-6.4039,-6.432,-6.439,-6.4285,-6.4179,-6.4285,-6.432,-6.4566,-6.4601,-6.446,-6.432,-6.6745,-6.632,-6.7407,-6.8162,-6.8474,-6.8967,-6.8892,-6.8397,-6.8049,-6.7386,-6.6675,-6.6221,-6.6205,-6.6398,-6.6412,-6.6816,-6.7359,-6.7342,-6.7885,-6.8044,-6.8309,-6.7889,-6.7893,-6.8214,-6.8041,-6.7515,-6.7193,-6.7183,-6.6497,-6.5911,-6.5421,-6.5265,-6.513,-6.5549,-6.6056,-6.6132,-6.6283,-6.6577,-6.6195,-6.5406,-6.4916,-6.4684,-6.4606,-6.4615,-6.4346,-6.4278,-6.42,-6.4189,-6.4257,-6.4483,-6.4449,-6.4761,-6.5296,-6.5262,-6.5664,-6.6168,-6.6203,-6.6485,-6.6872,-6.733,-6.7721,-6.7966,-6.8322,-6.8638,-6.8673,-6.8217,-6.7901,-6.7725,-6.7725,-6.7971,-6.8217,-6.8463,-6.8673,-6.8673,-6.8673,-6.8673,-6.8708,-6.906,-6.9376,-6.9411,-6.9376,-6.8744,-6.8041,-6.748,-6.7093,-6.6532,-6.59,-6.5654,-6.5584,-6.5514,-6.5268,-6.5127,-6.4776,-6.4706,-6.4706,-6.4706,-6.4706,-6.4706,-6.4671,-6.4706,-6.4741,-6.4706,-6.4706,-6.4706,-6.4636,-6.4706,-6.4706,-6.4671,-6.4636,-6.4706,-6.4706,-6.4706,-6.4776,-6.4671,-6.4671,-6.7488,-6.6995,-6.797,-6.8397,-6.8474,-6.9118,-6.9227,-6.8816,-6.8551,-6.8397,-6.8162,-6.7407,-6.7243,-6.7731,-6.7811,-6.8162,-6.874,-6.8781,-6.8828,-6.9231,-6.934,-6.9095,-6.9095,-6.913,-6.8849,-6.8357,-6.8463,-6.8243,-6.7422,-6.7225,-6.6954,-6.6816,-6.6816,-6.6858,-6.7422,-6.7566,-6.7605,-6.8039,-6.8006,-6.7571,-6.672,-6.6485,-6.6069,-6.6,-6.5925,-6.5883,-6.5585,-6.5508,-6.5508,-6.5662,-6.5745,-6.5971,-6.6342,-6.6307,-6.6767,-6.7265,-6.7513,-6.769,-6.8041,-6.8357,-6.8673,-6.8884,-6.8989,-6.9165,-6.9165,-6.8779,-6.8708,-6.8568,-6.8638,-6.8849,-6.8849,-6.9024,-6.9095,-6.9095,-6.9165,-6.92,-6.9481,-6.9867,-7.0288,-7.0604,-7.0183,-6.9235,-6.8428,-6.755,-6.7339,-6.762,-6.6988,-6.7199,-6.6988,-6.6497,-6.611,-6.5759,-6.5584,-6.4987,-6.4706,-6.4706,-6.4706,-6.4706,-6.4846,-6.4811,-6.4882,-6.4776,-6.4706,-6.5057,-6.5092,-6.4706,-6.4706,-6.4917,-6.4776,-6.4706,-6.4706,-6.4706,-6.4846,-6.5092,-6.5233,-6.8266,-6.7765,-6.8319,-6.8551,-6.8663,-6.9153,-6.9376,-6.9302,-6.8816,-6.8892,-6.9153,-6.8162,-6.8083,-6.8319,-6.8551,-6.8967,-6.9227,-6.9227,-6.9376,-6.9376,-6.9376,-6.927,-6.9305,-6.934,-6.9165,-6.9165,-6.9235,-6.9235,-6.8986,-6.8688,-6.8578,-6.9192,-6.9043,-6.8781,-6.9227,-6.934,-6.9165,-6.906,-6.906,-6.92,-6.8744,-6.8112,-6.7618,-6.7338,-6.7197,-6.6945,-6.6725,-6.6577,-6.6577,-6.6681,-6.7186,-6.7368,-6.7476,-6.7546,-6.7829,-6.8217,-6.8357,-6.8638,-6.9024,-6.913,-6.927,-6.934,-6.9376,-6.9376,-6.9376,-6.934,-6.9305,-6.9305,-6.934,-6.9376,-6.934,-6.934,-6.9376,-6.9411,-6.9481,-6.9551,-6.9972,-7.0394,-7.085,-7.1307,-7.0675,-6.9691,-6.8954,-6.8041,-6.8041,-6.8322,-6.8533,-6.8919,-6.8954,-6.8217,-6.7655,-6.7269,-6.6953,-6.6216,-6.5092,-6.4952,-6.5022,-6.5338,-6.5478,-6.5233,-6.5303,-6.604,-6.6286,-6.59,-6.5794,-6.5689,-6.5408,-6.5514,-6.5233,-6.5022,-6.5373,-6.5584,-6.5584,-6.5829,-6.597,-6.9678,-6.9043,-6.9153,-6.9227,-6.9227,-6.9376,-6.9376,-6.9376,-6.9302,-6.9302,-6.9302,-6.9302,-6.9153,-6.9227,-6.9227,-6.9376,-6.9302,-6.9376,-6.9376,-6.9376,-6.9376,-6.9376,-6.9376,-6.9376,-6.9376,-6.9376,-6.9376,-6.9376,-6.9376,-6.9227,-6.9227,-6.9376,-6.9376,-6.9227,-6.9302,-6.9376,-6.9376,-6.9376,-6.9449,-6.9449,-6.9449,-6.9063,-6.9243,-6.9175,-6.9318,-6.946,-6.953,-6.96,-6.946,-6.9246,-6.8924,-6.8781,-6.8673,-6.8603,-6.8779,-6.8814,-6.8989,-6.9095,-6.934,-6.9376,-6.9376,-6.9376,-6.9376,-6.9376,-6.9376,-6.9376,-6.934,-6.934,-6.9376,-6.9376,-6.9376,-6.9376,-6.9376,-6.9376,-6.9446,-6.9446,-6.9656,-7.0078,-7.0499,-7.085,-7.085,-7.0288,-6.9902,-6.9411,-6.9446,-6.9551,-6.927,-6.9621,-7.0078,-6.9621,-6.906,-6.8603,-6.8147,-6.6777,-6.5373,-6.5478,-6.5619,-6.5935,-6.6356,-6.6602,-6.7165,-6.8182,-6.8252,-6.7482,-6.727,-6.7304,-6.6953,-6.6356,-6.6075,-6.597,-6.6426,-6.6672,-6.6567,-6.6602,-6.6742]}]]